[[{"header":{"parameterUnit":"m.s-1","parameterCategory":1,"la1":30.6,"la2":28.766,"lo1":-90.7593,"lo2":-88.6598,"dy":0.0162,"dx":0.0183,"nx":116,"ny":114,"refTime":"2024-02-09T18:00:00:Z","depth":0,"parameterNumber":2,"parameterNumberName":"U-component_of_WINDS"},"data":[0.0,0.0,0.0,0.0,0.0,0.0,0.0,0.0,0.0,0.0,0.0,0.0,0.0,0.0,0.0,0.0,0.0,0.0,0.0,0.0,0.0,0.0,0.0,0.0,0.0,0.0,0.0,0.0,0.0,0.0,0.0,0.0,0.0,0.0,0.0,0.0,0.0,0.0,0.0,0.0,0.0,0.0,0.0,0.0,0.0,0.0,0.0,0.0,0.0,0.0,0.0,0.0,0.0,0.0,0.0,0.0,0.0,0.0,0.0,0.0,0.0,0.0,0.0,0.0,0.0,0.0,0.0,0.0,0.0,0.0,0.0,0.0,0.0,0.0,0.0,0.0,0.0,0.0,0.0,0.0,0.0,0.0,0.0,0.0,0.0,0.0,0.0,0.0,0.0,0.0,0.0,0.0,0.0,0.0,0.0,0.0,0.0,0.0,0.0,0.0,0.0,0.0,0.0,0.0,0.0,0.0,0.0,0.0,0.0,0.0,0.0,0.0,0.0,0.0,0.0,0.0,0.0,0.0,0.0,0.0,0.0,0.0,0.0,0.0,0.0,0.0,0.0,0.0,0.0,0.0,0.0,0.0,0.0,0.0,0.0,0.0,0.0,0.0,0.0,0.0,0.0,0.0,0.0,0.0,0.0,0.0,0.0,0.0,0.0,0.0,0.0,0.0,0.0,0.0,0.0,0.0,0.0,0.0,0.0,0.0,0.0,0.0,0.0,0.0,0.0,0.0,0.0,0.0,0.0,0.0,0.0,0.0,0.0,0.0,0.0,0.0,0.0,0.0,0.0,0.0,0.0,0.0,0.0,0.0,0.0,0.0,0.0,0.0,0.0,0.0,0.0,0.0,0.0,0.0,0.0,0.0,0.0,0.0,0.0,0.0,0.0,0.0,0.0,0.0,0.0,0.0,0.0,0.0,0.0,0.0,0.0,0.0,0.0,0.0,0.0,0.0,0.0,0.0,0.0,0.0,0.0,0.0,0.0,0.0,0.0,0.0,0.0,0.0,0.0,0.0,0.0,0.0,0.0,0.0,0.0,0.0,0.0,0.0,0.0,0.0,0.0,0.0,0.0,0.0,0.0,0.0,0.0,0.0,0.0,0.0,0.0,0.0,0.0,0.0,0.0,0.0,0.0,0.0,0.0,0.0,0.0,0.0,0.0,0.0,0.0,0.0,0.0,0.0,0.0,0.0,0.0,0.0,0.0,0.0,0.0,0.0,0.0,0.0,0.0,0.0,0.0,0.0,0.0,0.0,0.0,0.0,0.0,0.0,0.0,0.0,0.0,0.0,0.0,0.0,0.0,0.0,0.0,0.0,0.0,0.0,0.0,0.0,0.0,0.0,0.0,0.0,0.0,0.0,0.0,0.0,0.0,0.0,0.0,0.0,0.0,0.0,0.0,0.0,0.0,0.0,0.0,0.0,0.0,0.0,0.0,0.0,0.0,0.0,0.0,0.0,0.0,0.0,0.0,0.0,0.0,0.0,0.0,0.0,0.0,0.0,0.0,0.0,0.0,0.0,0.0,0.0,0.0,0.0,0.0,0.0,0.0,0.0,0.0,0.0,0.0,0.0,0.0,0.0,0.0,0.0,0.0,0.0,0.0,0.0,0.0,0.0,0.0,0.0,0.0,0.0,0.0,0.0,0.0,0.0,0.0,0.0,0.0,0.0,0.0,0.0,0.0,0.0,0.0,0.0,0.0,0.0,0.0,0.0,0.0,0.0,0.0,0.0,0.0,0.0,0.0,0.0,0.0,0.0,0.0,0.0,0.0,0.0,0.0,0.0,0.0,0.0,0.0,0.0,0.0,0.0,0.0,0.0,0.0,0.0,0.0,0.0,0.0,0.0,0.0,0.0,0.0,0.0,0.0,0.0,0.0,0.0,0.0,0.0,0.0,0.0,0.0,0.0,0.0,0.0,0.0,0.0,0.0,0.0,0.0,0.0,0.0,0.0,0.0,0.0,0.0,0.0,0.0,0.0,0.0,0.0,0.0,0.0,0.0,0.0,0.0,0.0,0.0,0.0,0.0,0.0,0.0,0.0,0.0,0.0,0.0,0.0,0.0,0.0,0.0,0.0,0.0,0.0,0.0,0.0,0.0,0.0,0.0,0.0,0.0,0.0,0.0,0.0,0.0,0.0,0.0,0.0,0.0,0.0,0.0,0.0,0.0,0.0,0.0,0.0,0.0,0.0,0.0,0.0,0.0,0.0,0.0,0.0,0.0,0.0,0.0,0.0,0.0,0.0,0.0,0.0,0.0,0.0,0.0,0.0,0.0,0.0,0.0,0.0,0.0,0.0,0.0,0.0,0.0,0.0,0.0,0.0,0.0,0.0,0.0,0.0,0.0,0.0,0.0,0.0,0.0,0.0,0.0,0.0,0.0,0.0,0.0,0.0,0.0,0.0,0.0,0.0,0.0,0.0,0.0,0.0,0.0,0.0,0.0,0.0,0.0,0.0,0.0,0.0,0.0,0.0,0.0,0.0,0.0,0.0,0.0,0.0,0.0,0.0,0.0,0.0,0.0,0.0,0.0,0.0,0.0,0.0,0.0,0.0,0.0,0.0,0.0,0.0,0.0,0.0,0.0,0.0,0.0,0.0,0.0,0.0,0.0,0.0,0.0,0.0,0.0,0.0,0.0,0.0,0.0,0.0,0.0,0.0,0.0,0.0,0.0,0.0,0.0,0.0,0.0,0.0,0.0,0.0,0.0,0.0,0.0,0.0,0.0,0.0,0.0,0.0,0.0,0.0,0.0,0.0,0.0,0.0,0.0,0.0,0.0,0.0,0.0,0.0,0.0,0.0,0.0,0.0,0.0,0.0,0.0,0.0,0.0,0.0,0.0,0.0,0.0,0.0,0.0,0.0,0.0,0.0,0.0,0.0,0.0,0.0,0.0,0.0,0.0,0.0,0.0,0.0,0.0,0.0,0.0,0.0,0.0,0.0,0.0,0.0,0.0,0.0,0.0,0.0,0.0,0.0,0.0,0.0,0.0,0.0,0.0,0.0,0.0,0.0,0.0,0.0,0.0,0.0,0.0,0.0,0.0,0.0,0.0,0.0,0.0,0.0,0.0,0.0,0.0,0.0,0.0,0.0,0.0,0.0,0.0,0.0,0.0,0.0,0.0,0.0,0.0,0.0,0.0,0.0,0.0,0.0,0.0,0.0,0.0,0.0,0.0,0.0,0.0,0.0,0.0,0.0,0.0,0.0,0.0,0.0,0.0,0.0,0.0,0.0,0.0,0.0,0.0,0.0,0.0,0.0,0.0,0.0,0.0,0.0,0.0,0.0,0.0,0.0,0.0,0.0,0.0,0.0,0.0,0.0,0.0,0.0,0.0,0.0,0.0,0.0,0.0,0.0,0.0,0.0,0.0,0.0,0.0,0.0,0.0,0.0,0.0,0.0,0.0,0.0,0.0,0.0,0.0,0.0,0.0,0.0,0.0,0.0,0.0,0.0,0.0,0.0,0.0,0.0,0.0,0.0,0.0,0.0,0.0,0.0,0.0,0.0,0.0,0.0,0.0,0.0,0.0,0.0,0.0,0.0,0.0,0.0,0.0,0.0,0.0,0.0,0.0,0.0,0.0,0.0,0.0,0.0,0.0,0.0,0.0,0.0,0.0,0.0,0.0,0.0,0.0,0.0,0.0,0.0,0.0,0.0,0.0,0.0,0.0,0.0,0.0,0.0,0.0,0.0,0.0,0.0,0.0,0.0,0.0,0.0,0.0,0.0,0.0,0.0,0.0,0.0,0.0,0.0,0.0,0.0,0.0,0.0,0.0,0.0,0.0,0.0,0.0,0.0,0.0,0.0,0.0,0.0,0.0,0.0,0.0,0.0,0.0,0.0,0.0,0.0,0.0,0.0,0.0,0.0,0.0,0.0,0.0,0.0,0.0,0.0,0.0,0.0,0.0,0.0,0.0,0.0,0.0,0.0,0.0,0.0,0.0,0.0,0.0,0.0,0.0,0.0,0.0,0.0,0.0,0.0,0.0,0.0,0.0,0.0,0.0,0.0,0.0,0.0,0.0,0.0,0.0,0.0,0.0,0.0,0.0,0.0,0.0,0.0,0.0,0.0,0.0,0.0,0.0,0.0,0.0,0.0,0.0,0.0,0.0,0.0,0.0,0.0,0.0,0.0,0.0,0.0,0.0,0.0,0.0,0.0,0.0,0.0,0.0,0.0,0.0,0.0,0.0,0.0,0.0,0.0,0.0,0.0,0.0,0.0,0.0,0.0,0.0,0.0,0.0,0.0,0.0,0.0,0.0,0.0,0.0,0.0,0.0,0.0,0.0,0.0,0.0,0.0,0.0,0.0,0.0,0.0,0.0,0.0,0.0,0.0,0.0,0.0,0.0,0.0,0.0,0.0,0.0,0.0,0.0,0.0,0.0,0.0,0.0,0.0,0.0,0.0,0.0,0.0,0.0,0.0,0.0,0.0,0.0,0.0,0.0,0.0,0.0,0.0,0.0,0.0,0.0,0.0,0.0,0.0,0.0,0.0,0.0,0.0,0.0,0.0,0.0,0.0,0.0,0.0,0.0,0.0,0.0,0.0,0.0,0.0,0.0,0.0,0.0,0.0,0.0,0.0,0.0,0.0,0.0,0.0,0.0,0.0,0.0,0.0,0.0,0.0,0.0,0.0,0.0,0.0,0.0,0.0,0.0,0.0,0.0,0.0,0.0,0.0,0.0,0.0,0.0,0.0,0.0,0.0,0.0,0.0,0.0,0.0,0.0,0.0,0.0,0.0,0.0,0.0,0.0,0.0,0.0,0.0,0.0,0.0,0.0,0.0,0.0,0.0,0.0,0.0,0.0,0.0,0.0,0.0,0.0,0.0,0.0,0.0,0.0,0.0,0.0,0.0,0.0,0.0,0.0,0.0,0.0,0.0,0.0,0.0,0.0,0.0,0.0,0.0,0.0,0.0,0.0,0.0,0.0,0.0,0.0,0.0,0.0,0.0,0.0,0.0,0.0,0.0,0.0,0.0,0.0,0.0,0.0,0.0,0.0,0.0,0.0,0.0,0.0,0.0,0.0,0.0,0.0,0.0,0.0,0.0,0.0,0.0,0.0,0.0,0.0,0.0,0.0,0.0,0.0,0.0,0.0,0.0,0.0,0.0,0.0,0.0,0.0,0.0,0.0,0.0,0.0,0.0,0.0,0.0,0.0,0.0,0.0,0.0,0.0,0.0,0.0,0.0,0.0,0.0,0.0,0.0,0.0,0.0,0.0,0.0,0.0,0.0,0.0,0.0,0.0,0.0,0.0,0.0,0.0,0.0,0.0,0.0,0.0,0.0,0.0,0.0,0.0,0.0,0.0,0.0,0.0,0.0,0.0,0.0,0.0,0.0,0.0,0.0,0.0,0.0,0.0,0.0,0.0,0.0,0.0,0.0,0.0,0.0,0.0,0.0,0.0,0.0,0.0,0.0,0.0,0.0,0.0,0.0,0.0,0.0,0.0,0.0,0.0,0.0,0.0,0.0,0.0,0.0,0.0,0.0,0.0,0.0,0.0,0.0,0.0,0.0,0.0,0.0,0.0,0.0,0.0,0.0,0.0,0.0,0.0,0.0,0.0,0.0,0.0,0.0,0.0,0.0,0.0,0.0,0.0,0.0,0.0,0.0,0.0,0.0,0.0,0.0,0.0,0.0,0.0,0.0,0.0,0.0,0.0,0.0,0.0,0.0,0.0,0.0,0.0,0.0,0.0,0.0,0.0,0.0,0.0,0.0,0.0,0.0,0.0,0.0,0.0,0.0,0.0,0.0,0.0,0.0,0.0,0.0,0.0,0.0,0.0,0.0,0.0,0.0,0.0,0.0,0.0,0.0,0.0,0.0,0.0,0.0,0.0,0.0,0.0,0.0,0.0,0.0,0.0,0.0,0.0,0.0,0.0,0.0,0.0,0.0,0.0,0.0,0.0,0.0,0.0,0.0,0.0,0.0,0.0,0.0,0.0,0.0,0.0,0.0,0.0,0.0,0.0,0.0,0.0,0.0,0.0,0.0,0.0,0.0,0.0,0.0,0.0,0.0,0.0,0.0,0.0,0.0,0.0,0.0,0.0,0.0,0.0,0.0,0.0,0.0,0.0,0.0,0.0,0.0,-3.987,-4.0223,0.0,0.0,0.0,0.0,0.0,0.0,0.0,0.0,0.0,0.0,0.0,0.0,0.0,0.0,0.0,0.0,0.0,0.0,0.0,0.0,0.0,0.0,0.0,0.0,0.0,0.0,-4.5594,-4.5594,-4.5594,-4.5594,0.0,0.0,0.0,0.0,-4.1893,-4.1677,-4.1284,-4.0672,-4.037,-4.0203,-4.0309,-4.1605,-4.1605,-4.0615,0.0,0.0,0.0,0.0,0.0,0.0,0.0,0.0,0.0,0.0,0.0,0.0,0.0,0.0,0.0,0.0,0.0,0.0,0.0,0.0,0.0,0.0,0.0,0.0,0.0,0.0,0.0,0.0,0.0,0.0,0.0,0.0,0.0,0.0,0.0,0.0,0.0,0.0,0.0,0.0,0.0,0.0,0.0,0.0,0.0,0.0,0.0,0.0,0.0,0.0,0.0,0.0,0.0,0.0,0.0,0.0,0.0,0.0,0.0,0.0,0.0,0.0,0.0,0.0,0.0,0.0,0.0,0.0,0.0,0.0,-4.0972,-4.0493,0.0,0.0,0.0,0.0,0.0,0.0,0.0,0.0,0.0,0.0,0.0,0.0,0.0,0.0,0.0,0.0,0.0,0.0,0.0,0.0,0.0,0.0,0.0,-4.5594,-4.5594,-4.5594,-4.5594,-4.5556,-4.5364,-4.5364,-4.4701,-4.3162,-4.3585,-4.2893,-4.0785,-4.0978,-4.1119,-4.1199,-4.0838,-4.128,-4.2506,-4.2653,-4.157,-3.9576,-4.095,0.0,0.0,0.0,0.0,0.0,0.0,0.0,0.0,0.0,0.0,0.0,0.0,0.0,0.0,0.0,0.0,0.0,0.0,0.0,0.0,0.0,0.0,0.0,0.0,0.0,0.0,0.0,0.0,0.0,0.0,0.0,0.0,0.0,0.0,0.0,0.0,0.0,0.0,0.0,0.0,0.0,0.0,0.0,0.0,0.0,0.0,0.0,0.0,0.0,0.0,0.0,0.0,0.0,0.0,0.0,0.0,0.0,0.0,0.0,0.0,0.0,0.0,0.0,-4.3335,-4.4316,-4.5872,-4.4857,-4.4688,-4.506,-4.32,-4.1644,-4.0544,-4.1685,0.0,0.0,0.0,0.0,0.0,0.0,0.0,0.0,0.0,0.0,0.0,0.0,0.0,0.0,0.0,0.0,0.0,0.0,0.0,0.0,0.0,-4.5594,-4.5594,-4.5594,-4.5594,-4.5287,-4.4509,-4.447,-4.4047,-4.3124,-4.247,-4.197,-4.1662,-4.0748,-4.0446,-4.0887,-4.1638,-4.2483,-4.3368,-4.4048,-4.421,-4.3852,-4.2991,-4.3512,-4.4923,0.0,0.0,0.0,0.0,0.0,0.0,0.0,0.0,0.0,0.0,0.0,0.0,0.0,0.0,0.0,0.0,0.0,0.0,0.0,0.0,0.0,0.0,0.0,0.0,0.0,0.0,0.0,0.0,0.0,0.0,0.0,0.0,0.0,0.0,0.0,0.0,0.0,0.0,0.0,0.0,0.0,-4.1462,-4.0931,0.0,0.0,0.0,0.0,0.0,0.0,0.0,0.0,0.0,0.0,0.0,0.0,0.0,-4.3409,-4.4959,-4.6215,-4.665,-4.621,-4.7496,-4.7597,-4.6684,-4.7767,-4.797,-4.7432,-4.7128,0.0,-4.2042,-4.2189,0.0,0.0,0.0,0.0,0.0,0.0,0.0,0.0,0.0,0.0,0.0,0.0,0.0,0.0,0.0,0.0,0.0,0.0,0.0,0.0,0.0,-4.6432,-4.7009,-4.7009,-4.8317,-4.8163,-4.5893,-4.6163,-4.524,-4.2508,-4.247,-4.1989,-4.0861,-4.1085,-4.1618,-4.2426,-4.4217,-4.55,-4.6319,-4.6662,-4.7279,-4.8086,-4.7574,-4.6318,-4.4662,-4.3748,0.0,0.0,0.0,0.0,0.0,0.0,0.0,0.0,0.0,0.0,0.0,0.0,0.0,0.0,0.0,0.0,0.0,0.0,0.0,0.0,0.0,0.0,0.0,0.0,0.0,0.0,0.0,0.0,0.0,0.0,0.0,0.0,0.0,0.0,0.0,0.0,0.0,0.0,0.0,-4.1302,-4.197,-4.0045,-4.1604,-4.1648,0.0,0.0,0.0,0.0,0.0,0.0,0.0,0.0,0.0,-4.3673,-4.4384,-4.5432,-4.6921,-4.7567,-4.8173,-4.8646,-4.9289,-4.9695,-4.9898,-5.0135,-5.0304,-5.0371,-4.99,-4.8376,-4.594,-4.4276,-4.2719,-4.1196,0.0,0.0,0.0,0.0,-3.7851,-3.8435,0.0,0.0,0.0,0.0,0.0,0.0,0.0,0.0,0.0,0.0,0.0,0.0,-4.6518,-4.7702,-4.8664,-4.9199,-5.0691,-5.0278,-4.7232,-4.7078,-4.5547,-4.1962,-4.22,-4.1716,-4.012,-4.1716,-4.3033,-4.3996,-4.665,-4.8329,-4.9122,-4.9303,-5.0235,-5.172,-5.172,-4.9709,-4.6264,-4.5251,-4.3729,-4.1979,0.0,0.0,0.0,0.0,0.0,0.0,0.0,0.0,0.0,0.0,0.0,0.0,0.0,0.0,0.0,0.0,0.0,0.0,0.0,0.0,0.0,0.0,0.0,0.0,0.0,0.0,0.0,0.0,0.0,0.0,0.0,0.0,0.0,0.0,0.0,0.0,0.0,-4.1677,-4.2388,-3.9614,-4.2422,-4.3003,0.0,0.0,0.0,0.0,0.0,0.0,-4.3132,-4.3876,-4.4993,-4.6515,-4.6921,-4.7733,-4.9018,-4.9224,-4.9898,-5.0947,-5.0947,-5.1522,-5.2604,-5.2063,-5.1995,-5.2266,-5.1522,-5.0473,-4.9086,-4.6515,-4.431,-4.2448,-4.117,-4.0121,-3.9276,-3.9276,-3.9411,-3.9715,0.0,0.0,0.0,0.0,0.0,0.0,0.0,0.0,0.0,0.0,0.0,-4.6518,-4.8933,-4.9279,-5.012,-5.212,-5.1333,-4.9803,-4.7524,-4.5563,-4.3701,-4.1885,-4.1046,-4.0449,-4.012,-4.2618,-4.4203,-4.4823,-4.8041,-4.9974,-5.0803,-5.1548,-5.2727,-5.4216,-5.4216,-5.3665,-5.2438,-4.7812,-4.6177,-4.6379,-4.1805,0.0,0.0,0.0,0.0,0.0,0.0,0.0,0.0,0.0,0.0,0.0,0.0,0.0,0.0,0.0,0.0,0.0,0.0,0.0,0.0,0.0,0.0,0.0,0.0,0.0,0.0,0.0,0.0,0.0,0.0,0.0,0.0,0.0,0.0,0.0,0.0,0.0,0.0,-4.0316,-4.4553,0.0,0.0,0.0,0.0,-4.324,-4.391,-4.4722,-4.55,-4.621,-4.7293,-4.8781,-5.0202,-5.1319,-5.2063,-5.2841,-5.3281,-5.3348,-5.3348,-5.3382,-5.345,-5.3416,-5.2976,-5.2266,-5.1522,-5.0777,-4.9898,-4.8376,-4.6003,-4.3254,-4.2482,-4.1305,-4.0028,-4.0028,-4.0468,-4.1102,0.0,0.0,0.0,0.0,0.0,0.0,0.0,0.0,-4.5648,-4.5603,-4.7018,-4.8586,-5.0096,-5.2164,-5.3968,-5.5278,-5.5522,-5.4304,-5.1344,-4.8904,-4.6586,-4.4355,-4.217,-4.1504,-4.2581,-4.4814,-4.6185,-4.6564,-4.9292,-5.0766,-5.1052,-5.1301,-5.281,-5.517,-5.517,-5.528,-5.528,-5.1426,-4.8453,-4.6104,-4.3314,-4.1589,0.0,0.0,0.0,0.0,0.0,0.0,0.0,0.0,0.0,0.0,0.0,0.0,0.0,0.0,0.0,0.0,0.0,0.0,0.0,0.0,0.0,0.0,0.0,0.0,0.0,0.0,0.0,0.0,0.0,0.0,0.0,0.0,0.0,0.0,0.0,0.0,0.0,-4.4485,-4.7733,0.0,-4.5838,-4.6921,-4.7597,-4.7056,-4.7699,-4.8646,-4.9898,-5.0676,-5.1352,-5.1894,-5.2875,-5.3281,-5.3078,-5.3382,-5.3518,-5.3518,-5.3518,-5.3518,-5.3518,-5.3518,-5.3078,-5.23,-5.2029,-5.1217,-5.0067,-4.9526,-4.7827,-4.5507,-4.4784,-4.3538,-4.2211,-4.2219,-4.2083,-4.1914,0.0,0.0,0.0,0.0,0.0,0.0,0.0,0.0,-4.564,-4.5603,-4.7817,-4.9933,-5.1395,-5.428,-5.667,-5.7937,-5.7916,-5.6467,-5.3195,-5.022,-4.7432,-4.4863,-4.2934,-4.2712,-4.4346,-4.6707,-4.8011,-4.8223,-5.0396,-5.1444,-5.1444,-5.1444,-5.2931,-5.5596,-5.5596,-5.6051,-5.6675,-5.4509,-5.1279,-4.7333,-4.4967,-4.3506,-4.2468,0.0,0.0,0.0,0.0,0.0,0.0,0.0,0.0,0.0,0.0,0.0,0.0,0.0,0.0,0.0,0.0,0.0,0.0,0.0,0.0,0.0,0.0,0.0,0.0,0.0,0.0,0.0,0.0,0.0,0.0,0.0,0.0,0.0,0.0,-4.5703,-4.7733,-4.7225,-5.0473,-5.1726,-4.9224,-5.0405,-5.115,-5.0913,-5.1319,-5.2131,-5.3382,-5.3721,-5.3991,-5.4228,-5.4735,-5.4634,-5.389,-5.3856,-5.3754,-5.3518,-5.3518,-5.3518,-5.3518,-5.3518,-5.2942,-5.1928,-5.1928,-5.1082,-4.9729,-4.9729,-4.8714,-4.712,-4.635,-4.5274,-4.4153,-4.3882,-4.3504,-4.2997,0.0,0.0,0.0,0.0,0.0,0.0,0.0,-4.5783,-4.5754,-4.5659,-4.7894,-5.0471,-5.301,-5.5588,-5.7935,-5.997,-5.8181,-5.5696,-5.2755,-4.8973,-4.5722,-4.3205,-4.324,-4.3915,-4.526,-4.8071,-4.9601,-4.9722,-5.1331,-5.2112,-5.2112,-5.2112,-5.3367,-5.5596,-5.5596,-5.6051,-5.6822,-5.6785,-5.4488,-5.0538,-4.669,-4.5477,-4.5559,0.0,0.0,0.0,0.0,0.0,0.0,0.0,0.0,0.0,0.0,0.0,0.0,0.0,0.0,0.0,0.0,0.0,0.0,0.0,0.0,0.0,0.0,0.0,0.0,0.0,0.0,0.0,0.0,0.0,0.0,0.0,0.0,0.0,-4.3477,-4.7361,-4.9627,-4.8277,-5.2672,-5.46,-5.1691,-5.4025,-5.548,-5.4702,-5.4668,-5.4972,-5.5614,-5.504,-5.4972,-5.5649,-5.5716,-5.5378,-5.46,-5.46,-5.4228,-5.3518,-5.3518,-5.3518,-5.3518,-5.3484,-5.2638,-5.1185,-5.1183,-5.0338,-4.9018,-4.9018,-4.8557,-4.7864,-4.7117,-4.6376,-4.5606,-4.4902,-4.4615,-4.431,0.0,0.0,0.0,0.0,0.0,0.0,-4.5872,-4.5819,-4.5986,-4.6459,-4.9817,-5.2895,-5.478,-5.7857,-5.9977,-6.0545,-5.7812,-5.5478,-5.4035,-4.8733,-4.4794,-4.2974,-4.4579,-4.6136,-4.7408,-4.9429,-5.0477,-5.0574,-5.1607,-5.2112,-5.2112,-5.2112,-5.3367,-5.5596,-5.5596,-5.6051,-5.6748,-5.6161,-5.4633,-5.2368,-4.9523,-4.7143,-4.5103,0.0,0.0,0.0,0.0,0.0,0.0,0.0,0.0,0.0,0.0,0.0,0.0,0.0,0.0,0.0,0.0,0.0,0.0,0.0,0.0,0.0,0.0,0.0,0.0,0.0,0.0,0.0,0.0,0.0,0.0,0.0,-4.4553,-4.7225,-4.7428,-4.9458,-5.1555,-5.3315,-5.531,-5.6393,-5.6089,-5.6799,-5.7002,-5.6258,-5.619,-5.5818,-5.4938,-5.5716,-5.5784,-5.4938,-5.5953,-5.5886,-5.46,-5.46,-5.4228,-5.3518,-5.3518,-5.3518,-5.3484,-5.2909,-5.2131,-5.1183,-5.0642,-4.9864,-4.9018,-4.9018,-4.8886,-4.8622,-4.7891,-4.6832,-4.5682,-4.5452,-4.435,-4.2793,0.0,0.0,0.0,0.0,0.0,0.0,-4.5935,-4.5857,-4.5951,-4.6322,-5.0356,-5.3587,-5.4549,-5.8042,-6.0029,-5.9254,-5.6819,-5.4294,-5.1982,-4.7569,-4.4773,-4.4112,-4.6712,-4.865,-4.9566,-5.121,-5.1965,-5.1886,-5.2358,-5.2554,-5.2554,-5.2554,-5.3484,-5.5097,-5.5097,-5.5354,-5.5794,-5.5647,-5.4506,-5.2702,-5.1694,-4.9958,-4.7841,-4.5875,-4.5503,-4.578,-4.3648,-4.3993,-4.5166,-4.3372,0.0,0.0,0.0,0.0,0.0,0.0,0.0,0.0,0.0,0.0,0.0,0.0,0.0,0.0,0.0,0.0,0.0,0.0,0.0,0.0,0.0,0.0,0.0,0.0,-4.753,-5.0371,-5.1623,-5.257,-5.3822,-5.5919,-5.6799,-5.7408,-5.7848,-5.7881,-5.7712,-5.7273,-5.6968,-5.6562,-5.5987,-5.6494,-5.6562,-5.5987,-5.6494,-5.6258,-5.5074,-5.4735,-5.4228,-5.3518,-5.3518,-5.3518,-5.3484,-5.301,-5.2098,-5.0884,-5.0644,-4.9965,-4.9018,-4.9018,-4.8655,-4.8029,0.0,0.0,0.0,0.0,-4.3693,-4.2173,0.0,0.0,0.0,0.0,0.0,0.0,-4.5971,-4.5927,-4.5875,-4.5796,-5.0028,-5.3022,-5.2964,-5.6759,-5.8613,-5.6896,-5.5165,-5.2343,-4.8135,-4.6266,-4.5659,-4.6269,-4.9363,-5.1276,-5.1758,-5.3253,-5.3775,-5.3272,-5.3345,-5.3304,-5.3203,-5.3277,-5.3739,-5.4399,-5.4399,-5.4399,-5.4436,-5.5133,-5.4141,-5.2209,-5.3155,-5.2966,-5.1785,-4.8469,-4.797,-4.8748,-4.594,-4.4988,-4.4973,-4.4777,0.0,0.0,0.0,0.0,0.0,0.0,0.0,0.0,0.0,0.0,0.0,0.0,0.0,0.0,0.0,0.0,0.0,0.0,0.0,0.0,0.0,0.0,0.0,0.0,-5.0608,-5.2639,-5.5446,-5.5987,-5.6292,-5.6867,-5.7476,-5.7881,-5.7881,-5.7881,-5.7848,-5.778,-5.7239,-5.7137,-5.7611,-5.7171,0.0,0.0,0.0,-5.6461,-5.5716,-5.4972,-5.4228,-5.3518,-5.3518,-5.3518,-5.3484,-5.3315,-5.2267,-5.0583,-5.0848,-5.0202,-4.9018,-4.9018,-4.8124,-4.6773,-4.6608,-4.6494,-4.6169,-4.4069,-4.2818,-4.2058,0.0,0.0,0.0,0.0,0.0,0.0,-4.6082,-4.5974,-4.6134,-4.6818,-5.0079,-5.2089,-5.1503,-5.4647,-5.6408,-5.5372,-5.2412,-4.9371,-4.643,-4.7081,-4.8106,-4.9295,-5.1884,-5.3464,-5.3876,-5.4839,-5.479,-5.3683,-5.4351,-5.4172,-5.3203,-5.3849,-5.4252,-5.4399,-5.4399,-5.4399,-5.4399,-5.4583,-5.3667,-5.2233,-5.3709,-5.3122,-5.1267,-4.9937,-4.9627,-4.9661,-4.7902,-4.8369,-4.9579,-4.781,-4.8156,-4.9129,-4.809,-4.65,0.0,0.0,0.0,0.0,0.0,0.0,0.0,0.0,0.0,0.0,0.0,0.0,0.0,0.0,0.0,0.0,0.0,0.0,0.0,-4.9458,-5.2672,-5.5243,-5.6427,-5.7611,-5.8186,-5.7746,-5.7814,-5.7881,-5.7881,-5.7881,-5.7645,-5.707,-5.7408,-5.7239,-5.619,-5.7103,-5.7476,-5.7036,-5.6867,-5.6461,-5.5716,-5.4972,-5.4228,-5.3518,-5.3518,0.0,-5.345,-5.2232,-5.1422,-5.0984,-4.99,-4.9255,-4.9018,-4.9018,-4.8154,-4.6664,-4.5495,-4.4609,-4.394,-4.2886,-4.2038,-4.1316,0.0,0.0,0.0,0.0,0.0,0.0,-4.6136,-4.5988,-4.6074,-4.6502,-4.9051,-5.0713,-5.0381,-5.2714,-5.3774,-5.2391,-4.9466,-4.7606,-4.7377,-4.8844,-5.0647,-5.262,-5.4676,-5.5835,-5.6034,-5.6451,-5.6251,-5.5388,-5.5801,-5.5676,-5.5119,-5.5044,-5.5044,-5.5044,-5.4615,-5.4224,-5.3833,-5.4261,-5.3639,-5.2428,-5.3695,-5.341,-5.2199,-5.2309,-5.1872,-5.115,-5.0845,-5.0929,-5.1066,-5.0373,-5.03,-5.0429,-4.9995,-4.8129,-4.5983,0.0,0.0,0.0,0.0,0.0,0.0,0.0,0.0,0.0,0.0,0.0,0.0,0.0,0.0,-4.3335,-4.4823,0.0,-4.9965,-5.2976,-5.5344,-5.707,-5.7814,-5.8558,-5.8727,-5.7983,-5.7881,-5.7881,-5.7881,-5.7881,-5.7746,-5.7374,-5.7679,-5.7577,-5.6833,-5.7476,-5.7543,-5.6833,-5.6461,-5.5919,-5.5175,-5.4431,-5.3856,-5.3518,-5.3518,-5.3518,-5.3484,-5.2302,-5.1426,-5.0787,-4.9938,-4.9359,-4.8951,-4.8206,-4.7267,-4.6135,-4.5032,-4.4103,-4.3323,-4.2571,-4.1842,-4.1103,0.0,0.0,0.0,0.0,0.0,0.0,0.0,-4.6011,-4.5959,-4.5978,-4.7971,-4.9326,-4.9063,-5.0703,-5.1015,-4.9139,-4.7484,-4.7357,-4.9255,-5.09,-5.3086,-5.6026,-5.7399,-5.8124,-5.8205,-5.8053,-5.7696,-5.7116,-5.7267,-5.7235,-5.7003,-5.6441,-5.6026,-5.5686,-5.5028,-5.4258,-5.3509,-5.422,-5.3896,-5.2956,-5.3961,-5.3939,-5.3448,-5.4437,-5.3848,-5.255,-5.3062,-5.2238,-5.1008,-5.183,-5.1165,-5.0149,-5.0914,-4.9359,-4.6994,-4.5699,-4.4607,0.0,0.0,0.0,0.0,0.0,0.0,0.0,0.0,0.0,-4.2963,-4.3476,-4.4692,-4.6413,-4.8951,-5.0642,-5.2807,-5.6258,-5.7408,-5.8084,-5.8693,-5.893,-5.8727,-5.7983,-5.7881,-5.7881,-5.7881,-5.7881,-5.7881,-5.7881,-5.7881,-5.7881,-5.7881,-5.7881,-5.7543,-5.6833,-5.6089,-5.5344,-5.46,-5.3856,-5.3518,-5.3518,-5.3518,-5.3416,-5.3247,-5.2438,-5.1496,-5.0387,-5.0043,-4.9461,-4.8673,-4.7348,-4.6379,-4.5614,-4.4726,-4.3888,-4.3103,-4.2518,-4.173,-4.0894,0.0,0.0,0.0,0.0,0.0,0.0,0.0,0.0,-4.6136,-4.6246,-4.7744,-4.8279,-4.6831,-4.8241,-4.8497,-4.648,-4.8171,-4.9826,-5.0949,-5.259,-5.5347,-5.9474,-5.975,-6.0043,-6.0426,-5.9696,-5.8693,-5.7544,-5.8254,-5.8053,-5.7003,-5.7612,-5.7121,-5.5686,-5.5611,-5.5104,-5.4371,-5.4446,-5.4414,-5.4371,-5.5473,-5.509,-5.3953,-5.5133,-5.459,-5.3127,-5.2473,-5.1243,-4.9969,-5.0796,-5.0439,-4.9909,-5.1441,-5.1157,-4.9752,-4.6995,-4.5055,-4.3216,-4.0208,-3.9932,-4.1071,-4.3558,-4.3754,-4.4455,0.0,0.0,-4.7111,-4.8055,-4.888,-4.9796,-5.0777,-5.2232,-5.4025,-5.6427,-5.7408,-5.7915,-5.8017,-5.8592,-5.8727,-5.7983,-5.7881,-5.7881,-5.7881,-5.7881,-5.7881,-5.7881,-5.7881,-5.7881,-5.7881,-5.7881,-5.7543,-5.6833,-5.6089,-5.5344,-5.46,-5.3856,-5.3518,-5.3518,-5.3518,-5.3112,-5.2404,-5.1661,-5.0884,-5.0077,-4.9429,-4.8704,-4.7967,-4.7153,-4.6368,-4.5546,-4.4116,-4.3064,-4.2414,-4.233,-4.1443,-4.0206,0.0,0.0,0.0,0.0,0.0,0.0,0.0,0.0,0.0,-4.6289,-4.6821,-4.6969,-4.6367,-4.6953,-4.7025,-4.6095,-4.786,-5.0028,-5.2377,-5.4506,-5.7352,-6.1134,-6.1735,-6.2068,-6.2243,-6.1435,-6.0991,-6.093,-6.0278,-5.9983,-5.9939,-5.9262,-5.856,-5.7862,-5.6968,-5.6092,-5.5362,-5.5861,-5.5641,-5.5084,-5.6436,-5.6046,-5.4583,-5.4326,-5.2968,-5.1187,-5.1322,-5.0064,0.0,-4.921,-4.9496,-4.9679,-5.0371,-5.0053,-4.9038,-4.6912,-4.5832,-4.4898,-4.3093,-4.2801,-4.3442,-4.5004,-4.6214,-4.7641,-4.98,-4.9901,-4.9811,-5.078,-5.1199,-5.1894,-5.3518,-5.4363,-5.5513,0.0,-5.8355,-5.8558,-5.8558,-5.8457,-5.8084,-5.734,-5.6867,-5.6968,-5.7814,-5.7881,-5.7881,-5.7881,-5.7881,-5.7881,-5.7881,-5.7881,-5.7374,-5.6224,-5.5886,-5.5141,-5.3957,-5.3653,-5.3518,-5.3484,-5.3044,-5.264,-5.227,-5.1089,-5.0173,-4.9429,-4.9123,-4.8338,-4.7242,-4.6922,-4.6107,-4.4964,-4.3817,-4.2976,-4.2272,-4.1818,-4.1018,-4.0113,0.0,0.0,0.0,0.0,0.0,0.0,0.0,0.0,0.0,0.0,-4.6203,-4.6199,-4.6289,-4.6289,-4.6247,-4.6095,-4.7395,-4.957,-5.2833,-5.5113,-5.8077,-6.1947,-6.2666,-6.332,-6.4012,-6.2974,-6.282,-6.3666,-6.1973,-6.1485,-6.2062,-6.055,-5.9749,-5.9528,-5.844,-5.7466,-5.6713,-5.7334,-5.7052,-5.6259,-5.7263,-5.6648,-5.4934,-5.343,-5.1316,-4.9233,-4.9559,-4.8025,-4.6049,-4.6768,-4.7421,-4.7865,-4.8159,-4.836,-4.8098,-4.6205,-4.535,-4.489,-4.416,-4.4514,-4.5329,-4.6322,-4.8416,-5.0464,-5.1231,-5.1874,-5.2484,-5.3159,-5.3118,-5.3444,-5.5074,-5.5412,-5.6055,-5.8084,-5.8389,-5.8389,-5.8389,-5.7915,-5.7306,-5.6596,-5.5852,-5.5919,-5.7171,-5.7273,-5.7273,-5.7273,-5.7476,-5.7577,-5.7577,-5.7577,-5.7002,-5.575,-5.5513,-5.4803,-5.3518,-5.3518,-5.3382,-5.3179,-5.2806,-5.2301,-5.163,-5.0379,-4.9497,-4.9018,-4.9018,-4.8173,-4.6786,-4.6786,-4.5906,-4.4513,-4.3707,-4.2963,-4.2211,-4.146,-4.0722,-4.0113,0.0,0.0,0.0,0.0,0.0,0.0,0.0,0.0,0.0,0.0,0.0,0.0,0.0,-4.6289,-4.6247,-4.6095,-4.6904,-4.8772,-5.1927,-5.3738,-5.6888,-6.187,-6.2139,-6.3294,-6.5782,-6.4128,-6.3705,-6.4551,-6.2858,-6.2062,-6.2101,-6.1166,-6.0398,-5.9796,-5.9727,-5.9304,-5.8615,-5.8654,-5.8558,-5.8385,-5.7965,-5.67,-5.4887,-5.2734,-5.0395,-4.8068,-4.6952,-4.4778,-4.2546,-4.337,-4.3681,-4.3845,-4.4599,-4.6452,-4.775,-4.4821,-4.3018,-4.1881,-4.1583,-4.3254,-4.5582,-4.7714,-5.0105,-5.2527,-5.4913,-5.5473,-5.5564,-5.5588,-5.5049,-5.4566,-5.4635,-5.4634,-5.5108,-5.663,-5.6867,-5.6867,-5.6867,-5.6867,-5.6562,-5.5817,-5.5074,-5.4938,0.0,-5.5749,-5.5749,-5.5749,-5.6427,-5.6833,-5.6833,-5.6833,-5.6494,-5.575,-5.5006,-5.4262,-5.3518,-5.3518,-5.3112,-5.2334,-5.3107,-5.2295,-5.0143,-4.9393,-4.9018,-4.9018,-4.9018,-4.8173,-4.6786,-4.6786,-4.5906,-4.4513,-4.3707,-4.2963,-4.2185,-4.1474,-4.073,-4.0113,0.0,0.0,0.0,0.0,0.0,0.0,0.0,0.0,0.0,0.0,0.0,0.0,0.0,0.0,0.0,0.0,-4.6965,-4.832,-5.0499,-5.3138,-5.5599,-5.7892,-6.0641,-6.2486,-6.3371,-6.345,-6.4144,-6.5474,-6.3306,-6.2549,-6.307,-6.1611,-6.0889,-6.078,-6.0266,-5.9941,-5.9705,-5.9705,-5.933,-5.873,-5.8404,-5.705,-5.4921,-5.215,-4.9569,-4.7178,0.0,-4.3847,-4.2498,-4.1652,-4.1615,-4.1956,-4.2233,-4.2856,-4.3426,-4.2975,-4.2887,-4.3141,-4.4108,-4.6172,-4.8587,-5.0982,-5.2968,-5.4898,-5.6748,-5.6843,-5.633,-5.5809,-5.3943,-5.2428,-5.2341,-5.1941,-5.2097,-5.3585,-5.5074,-5.6089,-5.6089,-5.6494,-5.6359,-5.5108,-5.4735,0.0,0.0,0.0,0.0,-5.5647,-5.6393,-5.6596,-5.6122,-5.6528,-5.6224,-5.5006,-5.4735,-5.4262,-5.3518,-5.3518,-5.3382,-5.3078,-5.2329,-5.1074,-4.9359,-4.9089,-4.9018,-4.9018,-4.9018,-4.8173,-4.6786,-4.6786,-4.5906,-4.4513,-4.3707,-4.2963,-4.2185,-4.1474,-4.073,-4.0113,0.0,0.0,0.0,0.0,0.0,0.0,0.0,0.0,0.0,0.0,0.0,0.0,0.0,0.0,0.0,0.0,0.0,-4.7701,-4.9346,-5.1629,-5.3553,-5.4994,-5.7889,-5.9785,-6.0364,-6.0726,-6.1694,-6.3299,-6.144,-6.1019,-6.1818,-6.0709,-6.0274,-6.0429,-5.9953,-5.9797,-5.9818,-5.9505,-5.8868,-5.7935,-5.708,-5.552,-5.3388,-5.0462,-4.8339,0.0,-4.4419,-4.3433,-4.2934,-4.1301,-4.0888,-4.1058,-4.0781,-4.0671,-4.0891,-4.1992,-4.3057,-4.4268,-4.5883,-4.8306,-5.0986,-5.3445,-5.506,-5.6308,-5.7336,-5.7193,-5.6393,-5.4736,-5.2854,-5.1205,-5.0096,-4.9507,-4.9634,-5.0911,-5.2367,-5.3687,-5.4769,-5.5074,-5.504,-5.4634,-5.4093,-5.3687,0.0,0.0,0.0,-5.4871,-5.5615,-5.5818,-5.5344,-5.575,-5.5581,-5.4634,-5.4329,-5.3991,-5.3518,-5.3213,-5.3043,-5.2939,-5.1244,-4.9927,-4.9018,-4.9018,-4.9018,-4.9018,-4.9018,-4.8179,-4.681,-4.6794,-4.5906,-4.4547,-4.4045,-4.3206,-4.2233,-4.1753,-4.0967,-4.0113,0.0,0.0,0.0,0.0,0.0,0.0,0.0,0.0,0.0,0.0,0.0,0.0,0.0,0.0,0.0,0.0,0.0,0.0,-4.8462,-4.9385,-5.086,-5.3108,-5.414,-5.541,-5.6997,-5.6388,-5.6854,-5.848,-5.7657,-5.7714,-5.8498,-5.847,-5.8515,-5.8655,-5.8655,-5.8767,-5.8867,-5.8047,-5.7101,-5.6068,-5.4195,-5.2385,-5.0472,-4.7876,-4.6903,-4.6577,-4.4124,-4.3521,-4.37,-4.2155,-4.1415,-4.1022,-4.0157,-3.9937,-4.0341,-4.1956,-4.3571,-4.5168,-4.6892,-4.9738,-5.2747,-5.5082,-5.6235,-5.6822,-5.6822,-5.6712,-5.5725,-5.2568,-5.1789,-5.076,0.0,0.0,-4.7739,-4.867,-4.9018,-5.0202,-5.3145,-5.2976,-5.3044,0.0,0.0,0.0,0.0,0.0,0.0,-5.345,0.0,-5.4566,-5.4532,-5.4566,-5.4566,-5.4532,-5.3856,-5.3518,-5.3518,-5.2739,-5.2192,-5.1902,-4.9986,-4.9052,-4.9018,-4.9018,-4.8984,-4.892,-4.892,-4.8127,-4.6748,-4.6739,-4.5906,-4.4615,-4.4615,-4.3658,-4.2307,-4.2301,-4.1365,-4.0113,0.0,0.0,0.0,0.0,0.0,0.0,0.0,0.0,0.0,0.0,0.0,0.0,0.0,0.0,0.0,0.0,0.0,0.0,-4.6871,-4.8246,-4.8989,-4.8971,-5.1527,-5.3141,-5.3563,-5.4727,-5.5813,-5.6732,-5.6013,-5.579,-5.5939,-5.5322,-5.5104,-5.5269,-5.5269,-5.5272,-5.5312,-5.5078,-5.4452,-5.3548,-5.2296,-5.1121,-4.9826,-4.7745,-4.6954,-4.674,-4.5432,-4.4902,-4.45,-4.2624,-4.1957,-4.1735,-4.0341,-4.0708,-4.1992,-4.3608,-4.5241,-4.7113,-4.9958,-5.2674,-5.495,-5.6198,-5.6638,-5.6822,-5.6822,-5.5427,-5.3528,-5.1511,-4.8841,-4.6148,-4.3797,-4.4296,-4.5375,-4.6365,-4.9323,0.0,-5.4059,-5.5074,0.0,-5.5446,0.0,-5.531,-5.4397,-5.4126,0.0,0.0,-5.416,-5.4363,-5.3822,-5.4296,-5.4329,-5.3788,-5.3585,-5.3518,-5.3518,-5.3279,-5.2427,-5.0866,-5.0367,-4.9729,-4.9018,-4.9018,-4.8689,-4.8161,-4.8161,-4.734,-4.5965,-4.5992,-4.5452,-4.4615,-4.4615,-4.3676,-4.2317,-4.232,-4.1349,-4.0113,0.0,0.0,0.0,0.0,0.0,0.0,0.0,0.0,0.0,0.0,0.0,0.0,0.0,0.0,0.0,0.0,0.0,0.0,0.0,-4.7087,-4.7331,-4.6867,-4.853,-4.9474,-4.9474,-5.0566,-5.1515,-5.2299,-5.2367,-5.2555,-5.2905,-5.2789,-5.2803,-5.2851,-5.2851,-5.2851,-5.2851,-5.2461,-5.1836,0.0,0.0,-4.8935,-4.7976,-4.6887,-4.643,-4.6278,-4.5787,-4.539,-4.4941,0.0,0.0,-4.2286,-4.2066,-4.2616,-4.3828,-4.6177,0.0,-4.937,-5.227,-5.4546,-5.6308,-5.7116,-5.7079,-5.6455,-5.5023,-5.3371,-5.1279,-4.8233,-4.5899,-4.3736,-4.1554,-4.2455,-4.3768,-4.4453,0.0,0.0,-5.2773,-5.4093,-5.504,0.0,-5.5784,0.0,-5.4668,-5.46,-5.4296,0.0,-5.416,-5.4262,-5.3551,-5.4194,-5.4262,-5.3518,-5.3518,-5.3179,-5.2503,-5.25,-5.1617,-4.9859,-4.983,-4.956,-4.9018,-4.9018,-4.8622,-4.7897,-4.7894,-4.7056,-4.5685,-4.5689,-4.5263,-4.4615,-4.4615,-4.3664,-4.2286,-4.2306,-4.1375,-4.0113,0.0,0.0,0.0,0.0,0.0,0.0,0.0,0.0,0.0,0.0,0.0,0.0,0.0,0.0,0.0,0.0,0.0,0.0,0.0,0.0,-4.6089,-4.6089,-4.5978,-4.5879,-4.5879,-4.6005,-4.6433,-4.7223,-4.8118,-4.8906,-4.9687,-5.0391,-5.0703,-5.0703,-5.0703,-5.0703,-5.0664,-4.9961,-4.9258,-4.8476,-4.7601,-4.6727,-4.5931,0.0,-4.574,-4.5637,-4.5603,-4.5323,-4.4974,0.0,-4.4218,-4.3168,-4.452,-4.5091,-4.5863,-4.9005,-5.0472,-5.1646,-5.4069,-5.5831,-5.7138,-5.7927,-5.7294,-5.5706,-5.2741,-5.1083,-4.8857,-4.4268,-4.3184,-4.237,-4.0294,-4.132,-4.2711,-4.3262,0.0,-4.7885,-5.117,-5.2128,-5.3281,-5.5411,-5.5141,-5.4702,-5.46,-5.46,-5.4296,-5.3551,-5.416,-5.4262,-5.3551,-5.4093,-5.416,-5.3518,-5.3517,-5.2773,-5.1219,-5.1183,-5.0439,-4.9018,-4.9018,-4.9018,-4.9018,-4.9018,-4.8622,-4.7894,-4.7825,-4.6981,-4.5682,-4.5586,-4.5196,-4.4615,-4.4615,-4.3707,-4.2429,-4.2351,-4.1443,-4.0257,0.0,0.0,0.0,0.0,0.0,0.0,0.0,0.0,0.0,0.0,-4.7187,-4.6289,0.0,0.0,0.0,0.0,0.0,0.0,0.0,0.0,0.0,-4.6089,-4.5978,-4.5879,-4.5879,-4.5939,-4.6066,-4.6323,-4.6489,-4.6706,-4.6992,-4.7109,-4.7187,-4.7187,-4.7187,-4.7187,-4.7187,-4.7031,-4.6875,-4.6758,-4.6562,-4.6313,-4.6064,-4.5935,0.0,0.0,-4.5624,-4.495,-4.4319,-4.5633,-4.6164,-4.6252,-4.619,-4.712,-4.8704,-5.0942,-5.216,-5.3335,-5.5721,-5.7079,-5.7927,-5.8466,-5.6678,-5.4417,-5.2921,-4.9547,0.0,0.0,-4.1442,-4.0065,-3.8593,-4.0076,-4.2286,-4.4493,-4.6256,-4.8879,-5.3325,-5.3575,-5.389,0.0,-5.5615,-5.5277,-5.4668,-5.46,0.0,0.0,-5.416,-5.4262,-5.3551,-5.3619,-5.3619,-5.3518,-5.3516,-5.2769,-5.1217,-5.1208,-5.0461,-4.9018,-4.9018,-4.9018,-4.9018,-4.9018,-4.8622,-4.7861,-4.7271,-4.6492,-4.5648,-4.5066,-4.471,-4.4615,-4.4615,-4.4029,-4.3143,-4.2502,-4.1756,-4.0991,0.0,0.0,0.0,0.0,0.0,0.0,0.0,-4.793,-4.8437,-5.0586,-5.0156,-4.9141,-4.7812,-4.6836,-4.6289,0.0,0.0,0.0,0.0,0.0,0.0,0.0,-4.582,-4.5731,-4.5731,-4.5813,-4.5886,-4.5992,0.0,-4.6153,-4.6289,-4.6289,-4.6289,-4.6289,-4.6289,-4.6289,-4.6289,-4.6289,-4.6289,-4.6289,-4.6289,-4.6204,-4.6087,0.0,0.0,0.0,0.0,0.0,-4.4969,-4.6186,-4.7051,-4.7662,-4.7947,-4.8896,-5.0375,-5.2845,-5.3837,-5.4626,-5.6816,-5.7703,-5.8029,-5.8282,-5.6049,-5.3178,-5.0897,0.0,0.0,0.0,-3.9827,-3.9067,-3.8421,-3.9904,0.0,-4.2935,-4.4797,-4.7226,-5.0403,-5.1603,-5.276,-5.4364,-5.4905,-5.5006,-5.4634,-5.46,-5.4296,-5.3551,-5.416,-5.4262,-5.3551,-5.3518,-5.3518,-5.3518,-5.3517,-5.2771,-5.1219,-5.118,-5.0466,-4.9018,-4.9018,-4.9018,-4.9018,-4.9018,-4.8622,-4.7861,-4.7106,-4.6362,-4.5648,-4.4874,-4.4615,-4.4615,-4.4615,-4.4119,-4.3354,-4.2983,-4.2426,-4.1764,0.0,0.0,0.0,0.0,0.0,0.0,0.0,-4.9609,-5.0234,-5.3164,-5.3203,-5.2148,-4.9961,-4.8164,-4.6914,0.0,0.0,0.0,0.0,0.0,0.0,0.0,0.0,0.0,0.0,0.0,0.0,-4.5879,-4.5998,0.0,0.0,0.0,0.0,0.0,-4.6289,-4.6289,-4.6289,-4.6289,-4.6289,0.0,0.0,-4.6245,0.0,0.0,0.0,0.0,0.0,0.0,-4.5748,0.0,-4.7317,-4.801,-4.891,-4.9938,-5.133,-5.3863,-5.4857,-5.5566,-5.7524,-5.8106,-5.815,-5.8282,-5.5622,-5.2144,-4.912,-4.5753,0.0,-3.935,-3.8689,-3.8689,-3.8689,-3.9738,-4.0853,-4.165,-4.3188,-4.5169,-4.7605,-4.9532,-5.1321,0.0,-5.389,0.0,-5.4363,-5.4363,0.0,-5.3551,-5.4025,-5.4093,-5.3551,-5.3518,-5.3518,-5.3518,-5.3314,-5.257,-5.1185,-5.0913,-5.0168,-4.9018,-4.9018,-4.9018,-4.9018,-4.9018,-4.8655,-4.8091,-4.7185,-4.6476,-4.5874,-4.497,-4.4615,-4.4615,-4.4615,-4.4209,-4.3627,-4.3457,-4.301,-4.2521,0.0,0.0,0.0,0.0,0.0,0.0,0.0,-5.0117,-5.1562,-5.5703,-5.4844,-5.3476,-5.2461,-5.0859,-4.8906,0.0,0.0,0.0,0.0,0.0,0.0,0.0,0.0,0.0,0.0,0.0,0.0,-4.5879,-4.5892,0.0,0.0,0.0,0.0,0.0,0.0,-4.6289,-4.6289,-4.6289,0.0,0.0,0.0,0.0,0.0,0.0,0.0,0.0,0.0,-4.5594,0.0,0.0,0.0,-4.7154,-4.7982,-4.9625,-5.1521,-5.2884,0.0,0.0,-5.765,-5.8353,-5.8716,-5.9158,-5.5657,-5.1531,-4.9405,0.0,-4.1699,-3.9203,-3.8689,-3.8689,-3.8689,-3.8836,-3.9884,-4.2822,-4.2975,-4.4294,-4.8788,-4.9758,-5.0562,-5.2114,0.0,0.0,-5.3619,-5.3619,-5.3585,-5.3518,-5.3551,-5.3585,-5.3518,-5.3518,-5.3518,-5.3518,-5.2602,-5.1822,-5.1217,-4.9864,-4.912,-4.9018,-4.9018,-4.9018,-4.9018,-4.9018,-4.8984,-4.8818,-4.739,-4.6748,-4.6589,-4.5196,-4.4615,-4.4615,-4.4615,-4.4547,-4.4412,-4.3673,-4.3369,-4.3301,0.0,0.0,0.0,0.0,0.0,0.0,-4.9805,-4.9766,-5.1133,-5.5976,-5.6015,-5.543,-5.5078,-5.3516,-5.082,-4.6641,0.0,0.0,0.0,0.0,0.0,0.0,0.0,0.0,0.0,0.0,-4.5687,-4.5879,-4.5879,0.0,0.0,0.0,0.0,0.0,0.0,-4.6289,-4.6289,-4.6289,0.0,0.0,0.0,0.0,0.0,0.0,0.0,0.0,0.0,0.0,-4.5671,0.0,0.0,0.0,-4.6471,-4.7549,0.0,0.0,-5.3182,-5.4913,-5.6515,-5.7825,-5.8581,-5.7975,-5.4535,-5.0679,-4.8384,0.0,-4.1022,-3.9093,-3.8689,-3.8689,-3.8689,-3.8689,-3.9276,-4.1038,-4.1112,-4.196,-4.4901,-4.587,-4.723,-4.9792,-5.0915,0.0,0.0,0.0,-5.3518,-5.3518,-5.3518,-5.3518,-5.3518,-5.3518,-5.3518,-5.3518,-5.2637,-5.1726,-5.0788,-5.0038,-4.9424,-4.9018,-4.9018,-4.9018,-4.9018,-4.9018,-4.8775,-4.8256,-4.7242,-4.6544,-4.6039,-4.5032,-4.4615,-4.4615,-4.4615,-4.4615,-4.4581,-4.4215,-4.4113,-4.4113,0.0,0.0,0.0,0.0,0.0,-4.7187,-4.9805,-4.9883,-5.1211,-5.5625,-5.6211,-5.6211,-5.6211,-5.4219,-5.1406,-4.7773,-4.6758,0.0,0.0,0.0,0.0,0.0,0.0,0.0,0.0,0.0,-4.5696,-4.5867,-4.5867,-4.5967,0.0,0.0,-4.6201,-4.6246,0.0,0.0,0.0,0.0,0.0,0.0,0.0,0.0,0.0,0.0,0.0,0.0,0.0,0.0,0.0,0.0,0.0,0.0,0.0,-4.6009,-4.7002,0.0,-5.1684,-5.3607,-5.5239,-5.674,-5.762,-5.6722,-5.34,-4.9774,0.0,0.0,-4.0618,-3.9019,-3.8689,-3.8689,-3.8689,-3.8689,-3.8946,-3.9753,-4.0084,-4.0853,-4.2575,-4.3799,-4.5376,0.0,0.0,-5.0184,0.0,-5.2875,-5.3247,-5.3484,-5.3078,-5.2909,-5.3145,-5.2942,-5.2909,-5.3146,-5.2403,-5.1459,-5.0386,-4.9972,-4.9492,-4.9018,-4.9018,-4.9018,-4.9018,-4.9018,-4.8707,-4.815,-4.7199,-4.6515,-4.596,-4.4976,-4.4615,-4.4615,-4.4615,-4.4615,-4.4615,-4.4615,-4.4615,-4.4615,0.0,0.0,0.0,0.0,0.0,0.0,-4.9805,-5.0859,-5.2305,-5.4961,-5.5312,-5.5312,-5.5312,-5.2266,-5.0234,-5.0156,-4.7773,0.0,0.0,0.0,0.0,0.0,0.0,0.0,0.0,0.0,-4.5665,-4.5783,-4.5783,-4.583,-4.5884,-4.5884,-4.5978,-4.6091,0.0,0.0,0.0,0.0,0.0,0.0,0.0,0.0,0.0,0.0,0.0,0.0,0.0,0.0,0.0,0.0,0.0,0.0,0.0,-4.5594,-4.5941,-4.7654,-4.9923,-5.2308,-5.4038,-5.5132,-5.5751,-5.5708,-5.2602,-4.8893,0.0,0.0,-4.0618,-3.9019,-3.8689,-3.8689,-3.8689,-3.8689,-3.8946,-3.9753,-4.0561,-4.1645,-4.3277,-4.4933,-4.6096,0.0,0.0,-4.8301,-4.9961,-5.1454,-5.2638,-5.345,-5.2097,0.0,-5.2266,-5.1623,-5.1559,-5.227,-5.1596,-5.0853,-5.0109,-4.9393,-4.9018,-4.9018,-4.9018,-4.9018,-4.9018,-4.9018,-4.9018,-4.8917,-4.7446,-4.6792,-4.6656,-4.5185,-4.4615,-4.4615,-4.4615,-4.4615,-4.4615,-4.4615,-4.4615,-4.4615,0.0,0.0,0.0,0.0,0.0,0.0,0.0,-4.7734,-4.8867,-5.1484,-5.1797,-5.2461,-5.4219,-5.1875,-5.0195,-5.0195,-4.7812,0.0,0.0,0.0,0.0,0.0,0.0,0.0,0.0,-4.5594,-4.6235,-4.7506,-4.7506,-4.7863,-4.8506,-4.7923,-4.7367,-4.6824,-4.6304,-4.6138,0.0,0.0,0.0,0.0,0.0,0.0,0.0,0.0,0.0,0.0,0.0,0.0,0.0,0.0,0.0,0.0,0.0,0.0,0.0,-4.5509,-4.774,-5.023,-5.0455,-5.1429,-5.2121,-5.1204,-4.8582,-4.5883,-4.4562,-4.2176,-3.9974,-3.8909,-3.8689,-3.8689,-3.8689,-3.8689,-3.9129,-4.0524,-4.0912,-4.1462,0.0,0.0,0.0,-4.6881,-4.9735,-5.1611,0.0,0.0,-5.2807,-5.1995,-5.1961,-5.1826,-5.1589,-5.1352,-5.1488,-5.2096,-5.1016,-5.0109,-4.9345,-4.9128,-4.9018,-4.9018,-4.9018,-4.8748,-4.8274,-4.8274,-4.7699,-4.6718,-4.624,-4.6065,-4.5964,-4.4987,-4.519,-4.5974,-4.4987,-4.4891,-4.5297,-4.4818,-4.4615,-4.4615,0.0,0.0,0.0,0.0,0.0,0.0,0.0,-4.6562,-4.7383,-4.9023,-4.9219,-5.0195,-5.2734,-5.0428,-4.9059,-5.0117,-4.7771,0.0,0.0,0.0,0.0,0.0,0.0,0.0,-4.5594,-4.5594,-4.6617,-4.8709,-4.8709,-4.9351,-5.0537,-5.0033,-4.9026,-4.7589,-4.7125,-4.6619,0.0,0.0,0.0,0.0,0.0,0.0,-4.5594,0.0,0.0,0.0,0.0,0.0,0.0,0.0,0.0,0.0,0.0,0.0,0.0,0.0,-4.5817,-4.7472,-4.7531,-4.8213,-4.8715,-4.7872,-4.5951,-4.3975,-4.2837,0.0,-3.968,-3.8872,-3.8689,-3.8689,-3.8689,-3.8689,-3.9019,-4.0031,-4.0691,-4.1279,-4.1772,0.0,0.0,-4.6455,0.0,0.0,0.0,-5.1589,-5.1928,-5.1219,-5.1116,-5.098,-5.0811,-5.0541,-5.0539,-5.0839,-5.0371,-4.977,-4.9005,-4.8993,-4.9018,-4.9018,-4.9018,-4.8612,-4.7906,-4.8176,-4.7665,-4.6549,-4.6549,-4.6549,0.0,-4.5737,-4.594,-4.6718,-4.5799,-4.5534,-4.5635,-4.5162,-4.4852,-4.4615,0.0,0.0,0.0,0.0,0.0,0.0,0.0,-4.6953,-4.75,-4.75,-4.75,-4.8398,-5.0781,-4.8069,-4.7125,-4.9687,0.0,0.0,0.0,0.0,0.0,0.0,0.0,0.0,-4.5594,-4.5671,-4.6941,-4.9471,-4.9625,-5.0548,-5.2154,-5.2115,-5.0806,-4.8568,-4.8389,-4.7489,0.0,0.0,0.0,0.0,-4.5834,-4.5696,0.0,0.0,0.0,0.0,0.0,0.0,0.0,0.0,0.0,0.0,0.0,0.0,0.0,0.0,0.0,0.0,0.0,-4.5349,-4.544,-4.5402,-4.4258,-4.2763,-4.1332,-4.0377,0.0,-3.8836,-3.8689,-3.8726,-3.8762,-3.8726,-3.8726,-3.8872,-4.0104,-4.1132,0.0,-4.3427,0.0,0.0,-4.7158,0.0,-4.7973,-4.9323,-5.0405,-5.1014,-4.983,-4.9357,-4.9965,-4.9357,-4.9018,-4.9018,-4.9666,-4.9668,-4.9018,-4.9018,-4.8984,-4.8917,-4.8984,-4.8612,-4.7868,-4.8612,-4.8545,-4.7804,-4.777,-4.777,-4.7736,-4.6955,-4.6684,-4.6786,-4.6684,-4.6244,-4.5703,-4.5635,-4.5196,-4.4615,0.0,0.0,0.0,0.0,0.0,0.0,0.0,0.0,0.0,0.0,-4.6558,-4.6795,-4.7284,-4.6605,-4.6368,0.0,0.0,0.0,0.0,0.0,0.0,0.0,0.0,0.0,-4.5594,-4.624,-4.7855,-5.0404,-5.1664,-5.3164,-5.478,-5.4164,-5.2887,-5.0971,-4.9135,-4.7489,0.0,0.0,0.0,0.0,-4.5701,-4.5637,0.0,0.0,0.0,0.0,-4.5594,-4.5594,0.0,0.0,0.0,0.0,0.0,0.0,0.0,0.0,-4.3297,-4.2523,-4.2056,0.0,-4.1996,-4.1673,-4.0689,-3.99,0.0,-3.957,0.0,0.0,0.0,0.0,0.0,-3.9129,-3.9093,-4.0325,-4.0838,-4.1315,-4.1919,0.0,0.0,-4.8806,-4.985,-4.9999,-4.8849,-5.0101,-5.0541,-4.9593,-4.9729,-4.9661,-4.9289,-4.9086,-4.9018,-4.9018,-4.9156,-4.9156,-4.9018,-4.9018,-4.8714,-4.8173,-4.8748,-4.8308,-4.709,-4.7834,-4.7767,-4.7022,-4.6481,-4.6549,-4.6955,-4.5635,-4.5771,-4.6684,-4.5563,-4.5365,-4.5635,-4.506,-4.475,-4.4615,0.0,0.0,0.0,0.0,0.0,0.0,0.0,0.0,0.0,0.0,0.0,0.0,0.0,0.0,0.0,0.0,0.0,0.0,0.0,0.0,0.0,0.0,0.0,-4.5594,-4.5594,-4.6432,-4.8317,-5.1241,-5.2549,-5.4241,-5.6291,-5.5434,-5.3933,-5.1779,-4.8956,-4.7066,-4.5966,-4.5858,-4.5834,-4.5847,-4.565,0.0,0.0,0.0,0.0,0.0,-4.5594,-4.5594,0.0,-4.5594,-4.5594,-4.5594,0.0,0.0,0.0,0.0,-4.2697,-4.1807,-4.0403,-4.034,-4.0564,-4.0337,-3.9786,-3.935,-3.979,0.0,0.0,0.0,0.0,0.0,0.0,0.0,-3.9533,-4.0414,-4.1185,0.0,0.0,0.0,-4.66,-4.8716,-4.9099,-4.912,0.0,-4.9424,-4.9325,-4.8578,-4.8883,-4.8917,-4.8545,-4.8815,-4.9018,-4.9018,-4.9018,-4.9018,-4.9018,-4.868,-4.8277,-4.7906,-4.797,-4.7394,-4.6312,-4.7056,-4.6989,-4.6278,-4.6244,-4.6413,-4.6718,-4.5969,-4.6104,-4.6718,-4.5906,-4.5635,-4.5669,-4.5229,-4.4886,-4.4615,0.0,0.0,0.0,0.0,0.0,0.0,0.0,0.0,0.0,0.0,0.0,0.0,0.0,0.0,0.0,0.0,0.0,0.0,0.0,0.0,0.0,0.0,-4.5594,-4.571,-4.5979,-4.6586,-4.8462,-5.1731,-5.2856,-5.4587,-5.6791,-5.6319,-5.4549,-5.1587,-4.8654,-4.6788,-4.5815,-4.5789,-4.5796,-4.5802,-4.5648,0.0,0.0,0.0,0.0,0.0,0.0,0.0,0.0,-4.5594,-4.5594,-4.5594,-4.5594,0.0,0.0,0.0,0.0,0.0,-3.9825,-3.9988,-4.0531,-4.016,-3.9963,-3.9863,-3.9753,0.0,0.0,0.0,0.0,0.0,0.0,-3.9423,0.0,0.0,0.0,0.0,-4.5219,-4.5023,-4.5442,-4.7424,-4.734,0.0,-4.8714,-4.8274,-4.7906,-4.7906,-4.78,-4.7733,-4.7733,-4.8342,-4.8646,-4.8646,-4.8646,-4.8646,-4.8646,-4.8173,-4.777,-4.7534,-4.7056,-4.6413,-4.5737,-4.6447,-4.6447,-4.5906,-4.6413,-4.6616,-4.6616,-4.6515,-4.6447,-4.6447,-4.6447,-4.6075,-4.5534,-4.5534,-4.5128,-4.4581,0.0,0.0,0.0,0.0,0.0,0.0,0.0,0.0,0.0,0.0,0.0,0.0,0.0,0.0,0.0,0.0,0.0,0.0,0.0,0.0,0.0,-4.5603,-4.5594,-4.624,-4.7702,-4.7201,-4.8202,-5.0894,-5.3164,-5.4857,-5.5934,-5.728,-5.5395,-5.0827,-4.9586,-4.7819,-4.577,-4.568,-4.5712,-4.5802,-4.5648,0.0,0.0,0.0,0.0,0.0,0.0,0.0,0.0,-4.5594,-4.5594,-4.5594,-4.5594,0.0,0.0,0.0,0.0,0.0,-4.0709,-4.1376,-4.1503,-3.9479,-3.9433,-3.9717,-3.9056,-3.8799,0.0,0.0,0.0,0.0,0.0,-3.9827,-4.012,0.0,0.0,-4.5217,0.0,0.0,-4.7945,-4.786,0.0,-4.8511,-4.8139,-4.7973,-4.7906,-4.7906,-4.7327,-4.6955,-4.6955,-4.709,-4.7124,-4.7124,-4.7124,-4.7124,-4.7124,-4.7665,-4.7263,-4.6041,-4.6549,-4.6413,-4.5737,-4.6447,-4.6718,-4.6583,-4.6075,-4.5872,-4.5838,-4.5224,-4.4953,-4.4953,-4.4953,-4.4886,-4.4784,-4.4784,-4.4716,-4.4513,0.0,0.0,0.0,0.0,0.0,0.0,0.0,0.0,0.0,0.0,0.0,0.0,0.0,0.0,0.0,0.0,0.0,0.0,0.0,0.0,-4.6081,-4.6903,-4.6547,-4.6663,-4.7432,-4.8432,-4.9971,-5.2049,-5.5088,-5.6742,-5.7088,-5.6049,-5.3549,-4.9933,-4.8625,-4.7187,-4.5696,-4.5637,-4.5654,-4.5696,0.0,0.0,0.0,0.0,0.0,0.0,0.0,0.0,0.0,0.0,-4.5594,-4.5594,-4.5594,0.0,0.0,0.0,0.0,0.0,-3.9827,-4.0377,-4.0744,-3.9643,-4.0598,-4.1625,-4.0818,-4.0304,-3.9994,0.0,0.0,0.0,0.0,0.0,-4.2258,-4.3596,0.0,-4.6431,-4.7298,-4.7126,-4.7143,0.0,0.0,-4.8003,-4.8477,-4.7767,-4.7327,-4.7327,-4.6616,-4.621,-4.621,-4.6583,-4.6786,-4.6786,-4.6786,-4.6616,-4.621,-4.6549,-4.638,-4.5703,-4.5635,-4.5432,-4.5128,-4.5461,-4.5602,-4.5568,-4.5229,-4.5094,-4.506,-4.475,-4.4615,-4.4615,-4.4615,-4.4615,-4.4615,-4.4615,-4.4615,-4.4479,0.0,0.0,0.0,0.0,0.0,0.0,0.0,0.0,0.0,0.0,0.0,0.0,0.0,0.0,0.0,0.0,0.0,0.0,0.0,-4.597,-4.6172,-4.7471,-4.7124,-4.7346,-4.8346,-4.9894,-5.1625,-5.351,-5.6511,-5.8088,-5.8242,-5.5011,-5.2164,-4.9625,-4.7932,-4.6586,-4.5594,-4.5594,-4.5594,-4.5594,0.0,0.0,0.0,0.0,0.0,0.0,0.0,0.0,0.0,0.0,0.0,0.0,0.0,0.0,0.0,-4.2258,-4.0938,-3.9533,-3.9093,-3.957,-4.0194,-4.0194,-4.1442,-4.258,-4.2359,-4.1699,-4.1205,-4.1572,0.0,0.0,0.0,-4.2543,0.0,-4.6086,-4.7047,-4.7465,-4.7181,-4.6778,-4.6857,-4.7808,-4.7583,-4.7699,-4.8646,-4.7564,-4.6718,-4.6549,-4.5872,-4.5365,-4.5196,-4.5872,-4.6177,-4.6007,-4.6177,-4.6007,-4.5466,-4.5432,-4.5432,-4.5432,-4.4886,-4.4615,-4.4615,-4.4615,-4.4615,-4.4615,-4.4615,-4.4615,-4.4615,-4.4615,-4.4615,-4.4615,-4.4615,-4.4615,-4.4615,-4.4615,-4.4479,-4.4215,0.0,0.0,0.0,0.0,0.0,0.0,0.0,0.0,0.0,0.0,0.0,0.0,0.0,0.0,0.0,0.0,0.0,0.0,0.0,-4.5633,-4.5633,-4.5787,-4.6509,-4.8731,-5.2664,-5.1395,-5.1943,-5.4395,-5.6214,-5.7511,-5.8242,-5.5626,-5.3049,-5.0519,-4.8779,-4.7124,-4.5594,-4.5594,-4.5594,-4.5594,-4.5594,0.0,0.0,0.0,0.0,0.0,0.0,0.0,0.0,0.0,0.0,0.0,0.0,0.0,-4.2157,-4.2119,-4.0527,-3.8946,-3.9643,-4.0414,-4.1022,-4.1022,-4.0598,-4.0524,-4.1956,-4.1699,-4.1499,-4.302,-4.2727,0.0,0.0,-4.291,-4.4309,-4.6829,-4.7897,-4.8722,-4.9632,0.0,-4.9505,-4.8968,-4.888,-4.8612,-4.8071,-4.7259,-4.6515,-4.5838,-4.5094,-4.435,-4.3612,-4.4316,-4.4418,-4.3646,-4.435,-4.475,-4.4682,-4.4682,-4.4682,-4.4682,-4.4649,-4.4615,-4.4615,-4.4615,-4.4615,-4.4615,-4.4615,-4.4615,-4.4615,-4.4615,-4.4615,-4.4615,-4.4615,-4.4615,-4.4615,-4.4615,-4.4113,-4.3375,0.0,0.0,0.0,0.0,0.0,0.0,0.0,0.0,0.0,0.0,0.0,0.0,0.0,0.0,0.0,0.0,0.0,0.0,0.0,-4.5594,-4.6056,-4.7124,-4.7009,-4.8394,-5.1587,-5.2587,-5.4318,-5.6857,-5.8011,-5.8473,-5.8242,-5.4587,-5.1818,-4.9779,-4.7548,-4.6201,-4.5594,-4.5594,-4.5594,-4.5594,-4.5594,-4.5594,0.0,0.0,0.0,0.0,0.0,0.0,0.0,0.0,-4.5594,-4.5518,-4.4979,-4.3685,-4.2286,-4.1562,-4.0378,-3.9219,-3.9157,-3.985,-4.0562,-4.0404,-4.0487,0.0,-4.3314,-4.3571,-4.3644,-4.4745,-4.5149,-4.5131,-4.4635,0.0,-4.5366,-4.6543,-4.7796,-4.8645,-4.866,-4.9099,-4.9116,-4.8406,-4.8342,-4.8037,-4.7293,-4.6549,-4.6007,-4.5737,-4.4553,-4.3741,-4.3409,-4.3234,-4.3234,-4.3375,-4.3707,-4.3842,-4.3842,-4.3842,-4.3606,-4.3166,-4.4141,-4.4615,-4.4615,-4.4615,-4.4615,-4.4581,-4.4079,-4.4147,-4.4581,-4.4045,-4.4147,-4.4547,-4.4045,-4.3842,-4.3809,-4.3335,-4.2963,-4.2625,0.0,0.0,0.0,0.0,0.0,0.0,0.0,0.0,0.0,0.0,0.0,0.0,0.0,0.0,0.0,0.0,0.0,0.0,-4.5594,-4.5594,-4.6095,-4.7278,-4.7048,-4.7971,-5.025,-5.251,-5.4818,-5.7088,-5.8165,-5.8165,-5.7011,-5.3538,-5.1164,-4.9702,-4.7163,-4.6163,-4.6355,-4.5825,-4.5594,-4.5594,-4.5594,-4.5594,0.0,0.0,0.0,0.0,0.0,0.0,0.0,0.0,-4.5594,-4.5462,-4.4766,-4.3588,-4.2248,-4.1367,-4.0278,-3.9173,-3.8508,-3.9032,-3.9756,-3.9574,0.0,0.0,-4.4415,-4.5076,-4.5369,-4.6434,-4.6743,-4.6443,-4.5195,0.0,0.0,0.0,-4.686,-4.7736,-4.7882,-4.8139,-4.8206,-4.7906,-4.7669,-4.7259,-4.6515,-4.5771,-4.5365,-4.5365,-4.391,-4.3064,-4.3064,-4.2557,-4.2422,-4.2726,-4.2929,-4.3064,-4.3064,-4.3064,-4.2794,-4.2286,-4.3396,-4.4005,-4.4215,-4.3978,-4.4005,-4.4181,-4.3403,-4.3369,-4.3836,-4.3267,-4.3369,-4.3836,-4.3267,-4.3064,-4.2997,-4.2489,-4.2151,-4.188,0.0,0.0,0.0,0.0,0.0,0.0,0.0,0.0,0.0,0.0,0.0,0.0,0.0,0.0,0.0,0.0,0.0,0.0,-4.5594,-4.5594,-4.5594,-4.5594,-4.6432,-4.7663,-4.9317,-5.101,-5.2741,-5.4511,-5.6165,-5.6126,-5.4434,-5.2692,-5.1423,-5.0548,-4.8038,-4.7346,-4.7971,-4.6278,-4.5594,-4.5594,-4.5594,-4.5594,-4.5594,0.0,0.0,0.0,0.0,0.0,0.0,0.0,-4.5594,-4.555,-4.5211,-4.3719,-4.2058,-4.1693,-4.0215,-3.8557,-3.7749,-3.8117,-3.8726,-3.8726,0.0,0.0,-4.4966,-4.5883,-4.6361,-4.7957,-4.7219,-4.56,-4.3314,-4.2965,-4.3296,-4.4133,-4.4958,-4.606,-4.7653,-4.7259,-4.7056,-4.777,-4.7225,-4.6481,-4.5771,-4.5026,-4.4581,-4.4581,-4.3132,-4.2286,-4.2286,-4.2286,-4.1948,-4.1238,-4.1914,-4.2286,-4.2286,-4.2286,-4.2286,-4.2286,-4.2286,-4.2658,-4.3341,-4.2625,-4.2692,-4.3341,-4.2625,-4.2286,-4.2286,-4.2286,-4.2286,-4.2286,-4.2286,-4.2286,-4.2286,-4.2286,-4.1813,-4.1204,0.0,0.0,0.0,0.0,0.0,0.0,0.0,0.0,0.0,0.0,0.0,0.0,0.0,0.0,0.0,0.0,0.0,0.0,-4.5633,-4.5594,-4.5594,-4.5594,-4.5864,-4.6201,-4.671,-4.8355,-5.0971,-5.4511,-5.4718,-5.3666,-5.1396,-5.0609,-4.9276,-4.7586,-4.7428,-4.696,-4.6317,-4.5825,-4.5594,-4.5594,-4.5594,-4.5594,-4.5594,0.0,0.0,0.0,0.0,0.0,0.0,0.0,0.0,0.0,-4.4475,-4.3792,-4.294,-4.1196,-4.0429,-3.9906,-3.8693,-3.9069,-3.9771,-3.9611,0.0,0.0,0.0,-4.4635,0.0,0.0,-4.6463,-4.5054,-4.3953,-4.3275,-4.3075,-4.3464,-4.4136,-4.5042,-4.6196,-4.6616,-4.6684,-4.6413,-4.6177,-4.5737,-4.4993,-4.4215,-4.3775,-4.3775,-4.2388,-4.1542,-4.1542,-4.1001,-4.0865,-4.1204,-4.1407,-4.1542,-4.1542,-4.1542,-4.1271,-4.0756,-4.0756,-4.1407,-4.2625,-4.2388,-4.2422,-4.2591,-4.1847,-4.1813,-4.2286,-4.2286,-4.2286,-4.2252,-4.1745,-4.1542,-4.1474,-4.0933,-4.062,-4.0451,0.0,0.0,0.0,0.0,0.0,0.0,0.0,0.0,0.0,0.0,-4.5594,-4.5932,0.0,0.0,0.0,0.0,0.0,0.0,0.0,-4.5594,-4.5594,-4.5594,-4.5594,-4.5748,-4.6124,-4.7778,-4.9548,-5.1471,-5.2248,-5.1469,-4.9313,-4.9924,-4.9252,-4.7552,-4.8216,-4.7985,-4.7057,-4.6394,-4.5932,-4.5594,-4.5594,-4.5594,-4.5594,0.0,0.0,0.0,0.0,0.0,0.0,0.0,0.0,0.0,-4.4413,-4.3859,-4.3211,-4.1189,-4.0523,-4.0123,-3.8641,-3.9165,-4.0193,-4.0331,-4.1956,-4.3662,-4.4322,0.0,0.0,0.0,-4.6672,-4.5213,-4.4025,-4.294,-4.225,-4.2412,-4.2783,-4.3484,-4.4643,-4.4925,-4.4959,-4.4823,-4.4519,-4.4181,-4.3735,-4.2997,-4.2658,-4.2963,-4.161,-4.0899,-4.117,-4.0519,-4.0316,-4.073,-4.0764,-4.0764,-4.0764,-4.0764,-4.0527,-4.0113,-4.0113,-4.0587,-4.1433,-4.1433,-4.1576,-4.1813,-4.1068,-4.1001,-4.1433,-4.1433,-4.1433,-4.1399,-4.0933,-4.0764,-4.0696,-4.0282,-4.0113,-4.0113,0.0,0.0,-4.5594,-4.5594,0.0,0.0,0.0,0.0,0.0,0.0,-4.5594,-4.5932,0.0,0.0,0.0,0.0,0.0,0.0,0.0,0.0,-4.5594,-4.5594,-4.5671,-4.6124,-4.7,-4.8432,-4.8432,-4.6885,-4.924,-4.95,-4.7847,-4.9945,-5.0286,-4.9154,-4.9598,-4.958,-4.9086,-4.7471,-4.6317,-4.5594,-4.5594,-4.5594,-4.5594,-4.5594,0.0,0.0,0.0,0.0,0.0,0.0,0.0,0.0,-4.4861,-4.4071,-4.3137,-4.1672,-4.0666,-3.968,-3.8227,-3.8851,-4.012,-4.1058,-4.258,0.0,-4.559,-4.7095,-4.8224,-4.8272,0.0,-4.5658,-4.3551,-4.2099,-4.1204,-4.1204,-4.1204,-4.1711,-4.3105,-4.2726,-4.2557,-4.3206,-4.2726,-4.2347,-4.2381,-4.1644,-4.1508,-4.2178,-4.0925,-4.0392,-4.1068,-4.0485,-4.0113,-4.0113,-4.0113,-4.0113,-4.0113,-4.0113,-4.0113,-4.0113,-4.0113,-4.0113,-4.0113,-4.0113,-4.0485,-4.1068,-4.0392,-4.0113,-4.0113,-4.0113,-4.0113,-4.0113,-4.0113,-4.0113,-4.0113,-4.0113,-4.0113,-4.0113,0.0,0.0,-4.5594,-4.5594,0.0,0.0,0.0,0.0,0.0,0.0,0.0,0.0,0.0,0.0,0.0,0.0,0.0,0.0,0.0,0.0,-4.5594,-4.5594,-4.624,-4.7009,-4.7817,-4.7586,-4.7278,-4.6885,-4.7556,-4.7134,-4.5764,-4.7304,-4.762,-4.7008,-4.8098,-4.8173,-4.7355,-4.6317,-4.5787,-4.5594,-4.5594,-4.5594,-4.5594,-4.5594,-4.5594,0.0,0.0,0.0,0.0,0.0,0.0,0.0,-4.5137,-4.4673,-4.4081,-4.2812,-4.1677,-4.0781,-4.0414,-4.012,0.0,-4.247,-4.4672,-4.625,-4.5957,-4.6654,-4.7053,-4.6008,-4.515,-4.4142,-4.2634,-4.1731,-4.1204,-4.1204,-4.1204,-4.1508,-4.2422,-4.2388,-4.2354,-4.2523,-4.2388,-4.2475,-4.2887,-4.1873,-4.1347,-4.1722,-4.0747,-4.018,-4.035,-4.018,-4.0113,-4.0113,-4.0113,-4.0113,-4.0113,-4.0113,-4.0113,-4.0113,-4.0113,-4.0113,-4.0113,-4.0113,-4.018,-4.035,-4.018,-4.0113,-4.0113,-4.0113,-4.0113,-4.0113,-4.0113,-4.0113,-4.0113,-4.0113,-4.0113,-4.0113,0.0,0.0,0.0,0.0,0.0,0.0,0.0,0.0,0.0,0.0,0.0,0.0,0.0,0.0,0.0,0.0,-4.6278,0.0,0.0,-4.5594,-4.5594,-4.5594,-4.6432,-4.6894,-4.6894,-4.6894,-4.6599,-4.6022,-4.5973,-4.5708,-4.538,-4.6529,-4.6902,-4.6643,-4.7731,-4.7732,-4.6885,-4.6432,-4.597,-4.5594,-4.5594,-4.5594,-4.5594,-4.5594,-4.5594,-4.5594,-4.5594,0.0,0.0,0.0,0.0,0.0,0.0,0.0,-4.3944,-4.2604,-4.1802,-4.1203,-4.0682,0.0,0.0,-4.3571,0.0,-4.6434,-4.5993,-4.592,-4.5718,-4.5017,-4.4689,-4.4142,-4.2786,-4.2026,-4.1392,-4.0781,-4.0663,-4.0798,-4.1196,-4.1264,-4.1264,-4.1264,-4.1264,-4.1357,-4.1646,-4.106,-4.073,-4.0883,-4.007,-3.9562,-3.9571,-3.9242,-3.9039,-3.9039,-3.9402,-3.9377,-3.9039,-3.9774,-3.991,-3.9605,-3.9943,-4.0113,-4.0113,-4.0113,-4.0113,-4.0113,-4.0113,-4.0113,-4.0113,-4.0113,-4.0113,-4.0113,-4.0113,-4.0113,-4.0113,-4.0113,-4.0113,-4.0113,0.0,0.0,0.0,0.0,0.0,0.0,0.0,0.0,0.0,0.0,0.0,0.0,0.0,0.0,-4.5594,0.0,0.0,0.0,0.0,-4.5594,-4.5671,-4.5825,-4.6509,-4.6624,-4.6056,-4.6586,-4.6388,-4.5306,-4.49,-4.4943,-4.5458,-4.6227,-4.6683,-4.6849,-4.7505,-4.7452,-4.6885,-4.674,-4.6278,-4.5594,-4.5594,-4.5594,-4.5594,-4.5594,-4.5594,-4.5594,-4.5594,-4.5568,-4.5532,-4.5577,0.0,0.0,0.0,0.0,-4.352,-4.2143,-4.1586,-4.1192,-4.0397,0.0,-4.28,-4.4011,-4.5112,0.0,-4.5553,-4.5076,-4.4672,-4.4525,-4.456,-4.4248,-4.3152,-4.2344,-4.1526,-4.043,-4.0154,-4.0113,-4.0113,-4.0113,-4.0113,-4.0113,-4.0113,-4.0113,-4.0113,-4.0113,-4.0113,-4.0113,-3.9417,-3.9001,-3.9005,-3.8294,-3.7922,-3.7922,-3.8497,-3.8531,-3.7922,-3.9106,-3.9503,-3.9005,-3.9774,-4.0113,-4.0113,-4.0113,-4.0113,-4.0113,-4.0113,-4.0113,-4.0113,-4.0113,-4.0113,-4.0113,-4.0113,-4.0113,-4.0113,-4.0113,-4.0113,-4.0113,0.0,0.0,0.0,0.0,0.0,0.0,0.0,0.0,0.0,0.0,-4.5594,-4.5594,0.0,0.0,0.0,-4.5594,-4.5594,0.0,-4.5594,0.0,0.0,-4.6701,-4.6846,-4.7163,-4.774,-4.7201,-4.6657,-4.6156,-4.5387,-4.4931,-4.4739,-4.4925,-4.5507,-4.6353,-4.619,-4.6426,-4.6846,-4.6086,-4.571,-4.5594,-4.5594,-4.5594,-4.5594,-4.5594,-4.5594,-4.5594,-4.5594,-4.5419,-4.5211,-4.5485,-4.541,0.0,0.0,0.0,-4.3596,-4.2645,-4.1481,-4.0602,0.0,0.0,-4.3204,0.0,-4.4268,-4.5516,0.0,0.0,-4.4525,0.0,-4.3305,-4.2963,-4.2776,-4.1823,-4.0977,-4.0803,-4.0417,-4.0113,-4.0113,-4.0113,-4.0113,-4.0113,-4.0113,-4.0113,-4.0113,-4.0113,-4.0113,-4.0113,-3.9423,-3.9006,-3.8996,-3.8294,-3.7922,-3.7922,-3.799,-3.799,-3.7922,-3.8091,-3.8464,-3.9005,-3.9774,-4.0113,-4.0113,-4.0113,-4.0113,-4.0113,-4.0113,-4.0113,-4.0113,-4.0113,-4.0113,-4.0113,-4.0113,-4.0113,-4.0113,-4.0113,-4.0113,-4.0113,0.0,0.0,0.0,0.0,0.0,0.0,0.0,0.0,0.0,0.0,0.0,-4.5594,0.0,0.0,0.0,0.0,0.0,0.0,-4.5594,-4.5594,0.0,-4.6163,-4.6163,-4.6355,-4.6701,-4.6355,-4.6004,-4.5611,-4.5109,-4.4612,-4.4247,-4.4096,-4.4479,-4.5318,-4.4941,-4.5218,-4.5878,-4.5495,-4.5429,-4.5594,-4.5594,-4.5325,-4.4932,-4.5402,-4.5197,-4.4642,-4.515,-4.5088,-4.4849,-4.4988,-4.4943,-4.4732,-4.4169,0.0,0.0,0.0,-4.171,-4.0966,-4.1474,-4.1539,-4.1589,0.0,-4.3094,-4.3828,-4.3534,-4.3754,-4.3938,-4.3588,-4.3303,-4.3069,-4.2751,-4.2282,-4.1703,-4.1001,-4.0685,-4.0295,-3.9587,-3.9503,-3.9445,-3.9285,-3.9402,-3.9664,-4.0045,-4.0113,-4.0113,-4.0113,-3.9433,-3.8822,-3.8396,-3.7686,-3.7077,-3.6614,-3.7043,-3.7077,-3.6614,-3.7483,-3.8261,-3.9005,-3.9309,-3.9706,-4.0113,-4.0113,-4.0113,-4.0113,-4.0113,-4.0113,-4.0113,-4.0113,-4.0113,-4.0113,-4.0113,-4.0113,-4.0113,-4.0113,-4.0113,-4.0113,0.0,0.0,0.0,0.0,0.0,0.0,0.0,0.0,0.0,0.0,0.0,0.0,0.0,0.0,0.0,0.0,0.0,0.0,-4.5594,0.0,0.0,0.0,0.0,-4.5594,-4.5594,-4.5594,-4.5429,-4.5115,-4.4849,-4.4521,-4.4132,-4.3807,-4.3912,-4.4428,-4.4132,-4.4414,-4.5066,-4.4771,-4.4993,-4.5547,-4.493,-4.4565,-4.4355,-4.4687,-4.4269,-4.359,-4.4238,-4.4192,-4.3866,-4.3944,-4.3918,-4.3755,-4.324,-4.265,0.0,0.0,0.0,0.0,0.0,0.0,-4.012,-4.1148,-4.1699,-4.2139,0.0,0.0,-4.302,0.0,-4.3314,-4.3137,-4.2958,-4.277,-4.2402,-4.1495,-4.0953,-4.0273,-3.932,-3.8899,-3.8734,-3.8685,-3.8894,-3.9291,-4.0045,-4.0113,-4.0113,-4.0113,-3.9417,-3.8672,-3.7956,-3.7202,-3.6434,-3.5633,-3.6197,-3.6197,-3.56,-3.6941,-3.799,-3.8734,-3.8903,-3.9402,-4.0113,-4.0113,-4.0011,-3.9842,-4.0011,-4.0113,-4.0113,-4.0113,-4.0113,-4.0113,-4.0113,-4.0113,-4.0113,-4.0113,-4.0113,-4.0113,0.0,0.0,0.0,0.0,0.0,0.0,0.0,0.0,0.0,0.0,0.0,0.0,-4.5594,-4.5594,-4.5594,-4.5594,-4.5594,0.0,0.0,0.0,0.0,0.0,0.0,0.0,-4.5594,-4.5594,-4.5429,-4.5115,0.0,0.0,-4.4572,-4.4146,-4.3982,-4.4028,-4.3998,-4.4414,-4.5028,-4.3867,-4.4249,-4.5405,-4.3194,-4.3101,-4.4184,-4.3159,-4.2716,-4.2667,-4.2705,-4.2293,-4.1801,-4.2121,-4.2006,-4.1665,-4.1192,-4.119,-4.1197,0.0,0.0,0.0,0.0,-3.9556,0.0,-3.9056,-4.0031,0.0,0.0,0.0,-4.1645,-4.3167,-4.2873,-4.258,-4.3333,-4.305,-4.2674,-4.2616,-4.1082,-3.9846,-3.9766,-3.8709,-3.8217,-3.8909,-3.8986,-3.93,-4.0045,-4.0113,-4.0113,-4.0113,-3.9417,-3.8672,-3.7956,-3.7202,-3.6434,-3.5633,-3.5633,-3.5633,-3.56,-3.6434,-3.7212,-3.799,-3.8667,-3.9402,-4.0113,-4.0113,-3.974,-3.9073,-3.9808,-4.0113,-4.0113,-4.0113,-4.0113,-4.0113,-4.0113,-4.0113,-4.0113,-4.0113,-4.0113,-4.0113,0.0,0.0,0.0,0.0,0.0,0.0,0.0,0.0,0.0,0.0,0.0,0.0,0.0,-4.5594,-4.5594,-4.5594,-4.5594,0.0,0.0,0.0,0.0,0.0,0.0,0.0,0.0,-4.5594,-4.555,-4.5419,0.0,-4.5022,-4.4908,-4.429,-4.3982,-4.3982,-4.3791,-4.3943,-4.4325,-4.339,-4.373,-4.4791,-4.2884,-4.2427,-4.2851,-4.2432,-4.1803,-4.118,-4.177,-4.2011,-4.2068,-4.2187,-4.214,-4.2057,-4.2086,-4.1453,0.0,0.0,0.0,0.0,0.0,0.0,0.0,-3.9423,-3.99,-4.0341,-4.0341,-4.0728,-4.1111,-4.1185,-4.1368,-4.1625,-4.1919,-4.2662,-4.3105,-4.2751,-4.1662,-4.043,-3.9273,-3.8249,-3.7445,-3.6868,-3.7711,-3.852,-3.9085,-3.9708,-4.0113,-4.0113,-3.9867,-3.9165,-3.7956,-3.7652,-3.6941,-3.5633,-3.56,-3.56,-3.56,-3.5893,-3.6434,-3.7178,-3.7922,-3.8667,-3.9402,-3.9402,-3.9242,-3.8971,-3.8768,-3.8937,-3.9436,-3.991,-4.0113,-4.0113,-4.0113,-4.0113,-4.0113,-4.0113,-4.0113,-4.0113,0.0,0.0,0.0,0.0,0.0,0.0,0.0,0.0,0.0,-4.5594,0.0,0.0,0.0,0.0,-4.5594,-4.5594,-4.5594,-4.5594,-4.5594,-4.5594,0.0,0.0,0.0,0.0,0.0,-4.5594,-4.5594,-4.5594,-4.539,-4.5263,0.0,-4.4663,-4.4318,-4.4175,-4.3818,-4.377,0.0,0.0,0.0,-4.441,-4.223,-4.1805,-4.2423,-4.1732,-4.1162,-4.0766,-4.1054,-4.1326,-4.1442,-4.1185,-4.1075,-4.1123,-4.1348,0.0,0.0,0.0,0.0,0.0,-3.9093,0.0,0.0,0.0,0.0,-3.957,-3.9827,0.0,-4.0304,-4.0304,-4.0744,-4.1095,-4.1095,-4.2176,-4.288,-4.2268,-4.1324,-4.0197,-3.9,-3.7847,-3.7025,-3.6624,-3.7378,-3.8231,-3.9017,-3.9708,-4.0113,-4.0113,-4.0113,-3.9469,-3.799,-3.7922,-3.7188,-3.5633,-3.56,-3.56,-3.56,-3.56,-3.5994,-3.6795,-3.728,-3.7922,-3.8633,-3.8633,-3.8497,-3.8227,-3.8024,-3.8328,-3.9039,-3.9537,-3.9876,-4.0113,-4.0113,-4.0113,-4.0113,-4.0113,-4.0113,-4.0113,0.0,0.0,0.0,0.0,0.0,0.0,0.0,0.0,-4.5594,-4.5594,0.0,0.0,0.0,0.0,0.0,-4.5633,-4.5633,-4.5633,-4.5594,-4.5594,0.0,0.0,0.0,0.0,-4.5594,-4.5594,-4.5594,-4.5594,-4.5594,-4.5586,-4.5577,-4.5243,-4.4908,-4.4572,-4.4161,-4.3967,-4.3877,0.0,-4.3191,-4.4293,-4.1178,-4.1274,-4.3,-4.104,-4.0789,-4.1421,-4.0565,-4.0111,-3.979,-3.9019,-3.8762,-3.8762,-3.8726,0.0,0.0,0.0,0.0,0.0,0.0,0.0,0.0,0.0,0.0,0.0,-3.9643,-3.9239,-3.9129,-4.0691,-4.1022,-4.1022,-4.1022,-4.1662,-4.1956,-4.1168,-3.9957,-3.9137,-3.9083,-3.7537,-3.6947,-3.8379,-3.8114,-3.8438,-3.9876,-4.0045,-4.0079,-4.0079,-4.0079,-3.9436,-3.7956,-3.7855,-3.7144,-3.5633,-3.56,-3.56,-3.56,-3.56,-3.5994,-3.6761,-3.6795,-3.7178,-3.7889,-3.7889,-3.7483,-3.6829,-3.7516,-3.8261,-3.8937,-3.8937,-3.9377,-4.0079,-4.0079,-4.0079,-4.0113,-4.0113,-4.0113,-4.0113,0.0,0.0,0.0,0.0,0.0,0.0,-4.571,-4.5594,-4.5594,0.0,0.0,0.0,-4.6471,-4.7048,-4.7163,-4.6586,-4.6547,-4.6278,-4.5633,-4.5594,-4.5594,-4.5594,-4.5594,-4.5594,-4.5594,-4.5594,-4.5594,-4.5594,-4.5594,-4.5466,-4.5232,-4.4896,-4.4521,-4.4146,-4.3807,-4.3316,-4.2763,-4.241,0.0,-4.3643,-4.1576,-4.113,-4.1591,-4.0449,-3.9813,-3.9555,-3.9887,-3.9958,-3.9937,-4.0304,-4.0435,-4.0325,-3.9753,0.0,0.0,0.0,0.0,0.0,-3.8966,0.0,0.0,0.0,0.0,0.0,-3.8264,-3.8432,-3.8652,-3.8505,-3.8946,-3.935,-3.935,-3.957,-3.9643,-3.9423,-3.9548,-3.9551,-3.9172,-3.7895,-3.698,-3.7012,-3.708,-3.7472,-3.8409,-3.8989,-3.9276,-3.9276,-3.9276,-3.8657,-3.7178,-3.6569,-3.6039,-3.56,-3.56,-3.56,-3.56,-3.56,-3.5701,-3.596,-3.6502,-3.6931,-3.71,-3.71,-3.6998,-3.6795,-3.64,-3.6671,-3.7472,-3.799,-3.8633,-3.9276,-3.9276,-3.9639,-4.0113,-4.0113,-4.0113,-4.0113,0.0,0.0,-4.7971,-4.7471,0.0,-4.7663,-4.6778,-4.6624,-4.6509,0.0,0.0,0.0,-4.7317,-4.7817,-4.7932,-4.7432,-4.7077,-4.6701,-4.6163,-4.5787,-4.5594,-4.5594,-4.5594,-4.5594,-4.5594,-4.5594,-4.5594,-4.5594,-4.5594,-4.5429,-4.5115,-4.4896,-4.4521,-4.3982,-4.3823,-4.3168,-4.2286,0.0,0.0,0.0,-4.1462,-4.1095,-4.1022,-4.0194,-3.9827,-3.9717,-3.9863,-4.012,-4.0377,-4.0194,-4.0341,-4.0524,-4.0047,0.0,0.0,0.0,0.0,0.0,0.0,0.0,0.0,0.0,0.0,0.0,-3.9019,-3.8836,-3.8579,-3.8102,-3.8358,-3.8689,-3.8689,-3.8689,-3.8689,-3.8689,-3.9093,-3.9307,-3.8991,-3.8095,-3.7423,-3.722,-3.741,-3.7746,-3.8323,-3.9048,-3.9469,-3.9469,-3.9174,-3.8362,-3.6897,-3.6062,-3.56,-3.56,-3.56,-3.56,-3.56,-3.56,-3.56,-3.56,-3.6096,-3.6299,-3.6299,-3.6299,-3.6299,-3.6265,-3.5802,-3.5893,-3.6332,-3.6772,-3.7584,-3.8531,-3.8531,-3.8802,-3.9208,-3.9537,-3.9639,-3.9706,0.0,0.0,-4.824,-4.824,-4.8894,-4.9125,-4.824,-4.8086,-4.7855,0.0,-4.7124,-4.7471,-4.8163,-4.8317,-4.8355,-4.824,-4.7586,-4.7077,-4.6923,-4.6163,-4.571,-4.5594,-4.5594,-4.5594,-4.5594,-4.5594,-4.5594,-4.5594,-4.5594,-4.5429,-4.5115,-4.5044,-4.4663,-4.3982,-4.3937,-4.3272,-4.2176,-4.2249,0.0,-4.0838,-4.1022,-4.1058,-4.0875,-4.0157,-4.0304,-4.0728,-4.012,-4.0304,-4.0618,-3.9313,-3.9313,-3.99,-4.001,-4.0451,0.0,0.0,-4.1095,0.0,0.0,0.0,0.0,0.0,-4.1075,0.0,-4.0948,-3.9921,-3.8836,-3.8836,-3.8762,-3.8689,-3.8689,-3.8689,-3.8726,-3.8836,-3.8762,-3.8689,-3.8689,-3.8234,-3.799,-3.8225,-3.833,-3.8478,-3.8788,-3.9359,-3.974,-3.974,-3.9039,-3.8058,-3.6761,-3.5994,-3.56,-3.56,-3.56,-3.56,-3.56,-3.56,-3.56,-3.56,-3.56,-3.56,-3.56,-3.56,-3.56,-3.56,-3.56,-3.56,-3.56,-3.56,-3.6445,-3.7787,-3.7787,-3.7889,-3.8091,-3.8768,-3.9039,-3.9208,-4.7855,-4.8548,-4.9163,-4.9163,-4.9279,-4.9125,-4.824,-4.8086,-4.8048,-4.7894,-4.8471,-4.8971,-4.9125,-4.9779,-4.9894,-4.9202,-4.9009,-4.8355,-4.7,-4.674,-4.6317,-4.5633,-4.5594,-4.5594,-4.5594,-4.5594,-4.5594,-4.5594,-4.5594,-4.5429,-4.5077,-4.4825,-4.4441,-4.3982,-4.3726,-4.2737,-4.1389,-4.2029,0.0,-3.9276,-4.0581,-4.0708,-4.012,-3.9937,-3.9606,-3.9239,-3.9717,-3.957,-3.9239,-3.9533,-3.9753,-4.001,-4.0671,-4.0524,-4.0267,-4.0912,0.0,0.0,0.0,0.0,0.0,-4.1462,-4.1095,0.0,-4.1058,-4.0377,-3.968,-3.968,-3.9166,-3.8689,-3.8689,-3.8689,-3.8909,-3.957,-3.9129,-3.8689,-3.8689,-3.8241,-3.7935,-3.7953,-3.7283,-3.708,-3.7735,-3.7558,-3.7438,-3.7438,-3.6705,-3.614,-3.5836,-3.5667,-3.56,-3.56,-3.56,-3.56,-3.56,-3.56,-3.56,-3.56,-3.56,-3.56,-3.56,-3.56,-3.56,-3.56,-3.56,-3.56,-3.56,-3.56,-3.6163,-3.7032,-3.7032,-3.7719,-3.8802,-3.8937,-3.9402,-3.991,-4.8009,-4.8471,-4.9048,-4.9894,-5.0048,-4.9894,-4.9471,-4.9394,-4.924,-4.8817,-4.9125,-4.9548,-5.001,-5.0442,-5.0519,-5.0087,-4.9663,-4.8856,-4.7586,-4.7115,-4.6509,-4.5633,-4.5594,-4.5594,-4.5594,-4.5594,-4.5594,-4.5594,-4.5594,-4.5323,-4.4849,-4.4688,-4.4088,-4.3151,-4.3379,-4.2359,-4.0598,0.0,-4.1148,-3.9386,-4.0194,0.0,-3.9313,-3.9313,-3.9056,-3.8762,-3.9166,-3.9056,-3.8836,-3.9643,-4.0157,-4.0487,-4.0487,-4.0781,-4.1185,-4.1589,-4.1699,-4.1809,0.0,0.0,0.0,-4.2396,-4.1992,0.0,0.0,-4.1075,-4.0487,-4.0487,-3.9863,-3.9313,-3.9313,-3.9313,-3.9423,-3.9827,-3.957,-3.9313,-3.9313,-3.8725,-3.8181,-3.7907,-3.7788,-3.765,-3.7525,-3.7622,-3.7433,-3.6852,-3.6434,-3.6028,-3.5633,-3.56,-3.56,-3.56,-3.56,-3.56,-3.56,-3.56,-3.56,-3.56,-3.56,-3.56,-3.56,-3.56,-3.56,-3.56,-3.56,-3.56,-3.56,-3.56,-3.5836,-3.6197,-3.6197,-3.6907,-3.7946,-3.8328,-3.8903,-3.9605,-4.7702,-4.8009,-4.8586,-5.0164,-5.0442,-5.0442,-5.0442,-5.0327,-4.9933,-4.924,-4.9317,-4.9663,-5.0366,-5.0442,-5.0529,-5.0776,-4.9788,-4.8942,-4.85,-4.7472,-4.6509,-4.5633,-4.5594,-4.5594,-4.5594,-4.5594,-4.5594,-4.5594,-4.555,-4.5232,-4.4701,-4.4535,-4.381,-4.266,-4.3071,-4.2176,0.0,0.0,0.0,-3.99,0.0,-3.9606,-3.9166,-3.8982,-3.8946,-3.8909,-3.8762,-3.8689,-3.8799,-3.946,-4.0194,-4.0765,-4.0304,-4.0928,0.0,0.0,0.0,0.0,0.0,0.0,-4.3515,-4.3515,-4.302,-4.2543,0.0,0.0,0.0,-4.1315,0.0,0.0,0.0,0.0,0.0,-4.012,0.0,0.0,0.0,-3.935,0.0,-3.8135,-3.8478,-3.8453,-3.7656,-3.7922,-3.7747,-3.6649,-3.6592,-3.631,-3.5778,-3.5667,-3.5644,-3.5744,-3.5667,-3.56,-3.56,-3.56,-3.56,-3.56,-3.56,-3.56,-3.56,-3.56,-3.56,-3.56,-3.56,-3.56,-3.56,-3.56,-3.56,-3.56,-3.56,-3.6197,-3.71,-3.7686,-3.8464,-3.93,-4.6855,-4.7625,-4.8394,-4.9394,-4.9548,-4.9548,-4.9548,-4.8894,-4.8355,-4.8279,-4.8933,-4.9433,-4.9548,-4.9548,-4.9967,-5.1065,-4.9378,-4.869,-4.973,-4.7959,-4.6509,-4.5633,-4.5594,-4.5594,-4.5594,-4.5594,-4.5594,-4.5594,-4.5283,-4.5137,-4.5011,-4.4387,-4.3975,-4.3757,-4.2836,0.0,0.0,0.0,-4.0708,0.0,-3.99,-4.0267,0.0,-4.0047,-3.9753,-3.968,-3.8946,-3.8689,-3.8726,-3.8799,-3.9386,-4.012,0.0,-4.0598,-4.0598,-4.2727,0.0,0.0,0.0,0.0,-4.3515,-4.3515,-4.3441,-4.3368,-4.3368,0.0,-4.2176,-4.2176,0.0,0.0,0.0,0.0,0.0,0.0,0.0,0.0,-3.9999,-3.9811,-3.9496,-3.871,-3.8244,-3.7989,-3.7864,-3.7134,-3.6405,-3.578,-3.5735,-3.5912,-3.627,-3.5854,-3.581,-3.6291,-3.5854,-3.56,-3.56,-3.56,-3.56,-3.56,-3.56,-3.56,-3.56,-3.56,-3.56,-3.56,-3.56,-3.56,-3.56,-3.56,-3.56,-3.56,-3.56,-3.6479,-3.7787,-3.7889,-3.8768,-4.0011,-4.674,-4.6778,-4.7086,-4.8394,0.0,0.0,0.0,0.0,-4.8856,-4.8856,-4.9625,-5.0258,-5.0462,-5.0106,-5.0083,-5.0851,-4.9252,-4.8298,-4.8526,-4.7313,-4.6282,-4.5624,-4.5419,-4.5293,-4.5293,-4.5293,-4.5293,-4.5293,-4.5381,-4.5201,-4.4812,-4.4482,-4.3878,-4.2991,-4.2516,0.0,-4.0928,0.0,-4.1332,0.0,0.0,-4.1479,0.0,-3.9863,-3.9203,-3.9166,-3.8836,-3.8689,-3.8689,-3.8689,-3.9533,-4.0487,0.0,0.0,0.0,-4.1956,0.0,0.0,0.0,0.0,0.0,-4.3515,-4.3515,-4.3515,-4.3515,-4.3258,-4.2983,-4.2983,0.0,0.0,0.0,0.0,0.0,0.0,-4.1389,0.0,0.0,0.0,-3.9093,-3.8726,0.0,-3.8238,-3.7911,-3.7285,-3.6766,-3.6525,-3.6504,-3.6606,-3.6845,-3.6646,-3.6498,-3.6395,-3.6165,-3.592,-3.56,-3.56,-3.56,-3.56,-3.56,-3.56,-3.56,-3.56,-3.56,-3.56,-3.56,-3.56,-3.56,-3.56,-3.56,-3.56,-3.56,-3.6299,-3.7313,-3.7753,-3.8565,-3.9512,-4.6541,-4.631,-4.6355,-4.7548,0.0,0.0,0.0,-4.7932,-4.8432,-4.8663,-4.9471,-5.0131,-5.0569,-5.0506,-5.0618,-5.113,-4.983,-4.8716,-4.8248,-4.734,-4.6378,-4.538,-4.5295,-4.5182,-4.4954,-4.4954,-4.4954,-4.4954,-4.5211,-4.5022,-4.4428,-4.4428,-4.3774,-4.2616,-4.2396,-4.1772,-4.0928,0.0,-4.1609,-4.1132,-4.1515,-4.1515,-4.1148,-3.9606,-3.8909,-3.8689,-3.8689,-3.8689,-3.8689,-3.8689,-3.9643,-4.0561,-3.9386,-4.023,-4.1552,0.0,0.0,0.0,-4.2947,-4.3331,-4.3515,-4.3515,-4.3515,-4.3515,-4.3515,-4.3515,-4.3515,-4.3515,-4.3515,0.0,0.0,0.0,-4.3258,-4.2433,0.0,-4.1279,0.0,-3.979,0.0,0.0,0.0,-3.8481,-3.7928,-3.7596,-3.7216,-3.6854,-3.7066,-3.7177,-3.7093,-3.716,-3.702,-3.6641,-3.6478,-3.6156,-3.56,-3.56,-3.56,-3.56,-3.56,-3.56,-3.56,-3.56,-3.56,-3.56,-3.56,-3.56,-3.56,-3.56,-3.56,-3.56,-3.56,-3.596,-3.6535,-3.7313,-3.8193,-3.9073,-4.6077,-4.6597,0.0,0.0,0.0,0.0,0.0,-4.571,-4.6009,-4.6855,-4.7702,-4.8355,-4.8829,-5.0266,-5.1514,-5.2362,-5.1274,-5.0397,-5.0053,-4.8827,-4.7085,-4.4713,-4.5366,-4.5429,-4.4624,-4.4624,-4.4624,-4.4624,-4.4637,-4.4414,-4.4013,-4.4013,-4.3818,-4.3441,-4.2653,-4.269,-4.3277,-4.1772,-4.1132,-4.1022,-4.0267,-3.9496,-3.8909,0.0,-3.9386,-3.8689,-3.8689,-3.8689,-3.8689,-3.8689,-3.9239,-3.9937,-3.9879,-3.99,-4.012,0.0,0.0,0.0,-4.2139,-4.291,-4.3515,-4.3515,-4.3515,-4.3515,-4.3515,-4.3515,-4.3515,-4.3515,-4.3515,-4.3515,-4.3478,-4.3478,-4.3258,-4.2433,-4.2286,0.0,0.0,0.0,0.0,0.0,0.0,0.0,-3.7928,-3.7876,-3.7344,-3.6021,-3.6729,-3.7058,-3.6727,-3.7041,-3.7173,-3.7173,-3.6681,-3.6156,-3.56,-3.56,-3.56,-3.56,-3.56,-3.56,-3.56,-3.56,-3.56,-3.56,-3.56,-3.56,-3.56,-3.56,-3.56,-3.56,-3.56,-3.5633,-3.5735,-3.6535,-3.7743,-3.9005,-4.5886,-4.6493,0.0,0.0,-4.6143,-4.6347,-4.5817,-4.6164,-4.7174,-4.9138,-4.9363,-5.0051,-5.1925,-5.1598,-5.1513,-5.2112,-5.0805,-4.9748,-4.9331,-4.7863,-4.6772,-4.6218,-4.5181,-4.4961,-4.5769,-4.4751,-4.4452,-4.5013,-4.4718,-4.4387,-4.3982,-4.3982,-4.3818,-4.3478,-4.2653,-4.2433,0.0,0.0,0.0,0.0,0.0,-3.9753,-3.946,0.0,-3.8946,-3.8689,-3.8689,-3.8689,-3.8689,-3.8689,-3.9239,-3.979,-3.9276,-3.9827,-4.0634,-4.0377,-4.0671,-4.1168,-4.1425,-4.1699,-4.2029,-4.258,-4.2727,-4.2837,-4.3404,-4.3515,-4.3515,-4.3515,-4.3515,-4.3515,-4.3515,-4.3515,-4.3404,-4.313,-4.2653,-4.2103,0.0,0.0,0.0,0.0,0.0,0.0,0.0,0.0,-3.7437,-3.6987,-3.6717,-3.678,-3.7192,-3.7321,-3.7337,-3.721,-3.702,-3.6484,-3.5622,-3.56,-3.56,-3.56,-3.56,-3.56,-3.56,-3.56,-3.56,-3.56,-3.56,-3.56,-3.56,-3.56,-3.56,-3.56,-3.56,-3.56,-3.5769,-3.7043,-3.7855,-3.8396,-4.6405,-4.6884,-4.6939,-4.5937,-4.5972,-4.6164,-4.6221,-4.6858,-4.8057,-5.0002,-5.0501,-5.1359,-5.3162,-5.266,-5.2252,-5.2422,-5.172,-5.0574,-4.8806,-4.851,-4.7705,-4.6262,-4.5488,-4.5305,-4.5786,-4.4506,-4.4077,-4.4596,-4.4452,-4.4175,-4.3818,-4.3921,-4.3818,-4.3478,0.0,-4.2727,-4.2653,-4.1552,-4.1095,0.0,0.0,-3.946,0.0,0.0,-3.8872,-3.9093,-3.8799,-3.8689,-3.8689,-3.8689,-3.8925,-3.9122,-3.8789,-3.9276,-3.9889,-3.9559,-4.0047,-4.0671,-4.0671,-4.0875,-4.1279,-4.2103,-4.2286,-4.2506,-4.3331,-4.3515,-4.3515,-4.3515,-4.3515,-4.3515,-4.3515,-4.3515,-4.3515,-4.3515,-4.28,-4.2213,0.0,-4.1425,-4.0618,-3.9276,0.0,0.0,0.0,0.0,-3.7551,-3.667,-3.667,-3.6831,-3.7052,-3.7345,-3.7398,-3.7229,-3.7192,-3.6686,-3.5622,-3.56,-3.56,-3.56,-3.56,-3.56,-3.56,-3.56,-3.56,-3.56,-3.56,-3.56,-3.56,-3.56,-3.56,-3.56,-3.56,-3.56,-3.5769,-3.7043,-3.7855,-3.8464,-4.7462,-4.7711,-4.7596,-4.7145,-4.6365,-4.6115,-4.6878,-4.7706,-4.8558,-4.9416,-5.092,-5.209,-5.2568,-5.3293,-5.3622,-5.3209,-5.3922,-5.2674,-4.8746,-5.0618,-4.9811,-4.5149,-4.6269,-4.6342,-4.4838,-4.3975,-4.3551,-4.3551,-4.3839,-4.3802,-4.3515,-4.3818,-4.3786,-4.3515,-4.3515,0.0,-4.3314,-4.1772,-4.1058,-4.0838,-3.9282,-3.8695,-3.8731,-3.8695,-3.9171,-3.9774,-3.8967,-3.8689,-3.871,-3.8658,-3.8316,-3.7998,-3.8496,-3.83,-3.8015,-3.8528,-3.9239,-3.9827,-3.9827,-4.0414,-4.1168,-4.1992,-4.2213,-4.2433,-4.324,-4.3478,-4.3515,-4.3515,-4.3515,-4.3515,-4.3515,-4.3515,-4.3515,0.0,0.0,0.0,0.0,0.0,-4.0928,-4.0047,-3.9937,0.0,0.0,0.0,-3.7609,-3.5261,-3.6486,-3.7052,-3.634,-3.7052,-3.7414,-3.7231,-3.721,-3.6686,-3.5667,-3.5622,-3.56,-3.56,-3.56,-3.56,-3.56,-3.56,-3.56,-3.56,-3.56,-3.56,-3.56,-3.56,-3.56,-3.56,-3.56,-3.5633,-3.5802,-3.6569,-3.7811,-3.914,-4.7187,-4.774,-4.8126,-4.8013,-4.6991,-4.6435,-4.6994,-4.8205,-4.9637,-5.112,-5.1899,-5.2754,-5.3822,-5.3596,-5.3314,-5.3225,-5.3408,-5.2821,-5.1169,-5.0528,-4.9647,-4.8399,-4.6985,-4.6287,-4.6489,-4.5095,-4.4378,-4.4378,-4.3875,-4.358,-4.3515,0.0,0.0,0.0,0.0,0.0,-4.2543,-4.1552,-4.0398,-3.9245,-3.8413,-3.8478,-3.8913,-3.8316,-3.8587,-3.9254,-3.8836,-3.8689,-3.8643,-3.8251,-3.8032,-3.7911,-3.8065,-3.8015,-3.8015,-3.8528,-3.8836,-3.9019,-3.9019,-3.9166,-3.9533,-4.0304,-4.0965,-4.1625,-4.2433,-4.3057,-4.3515,-4.3515,-4.3515,-4.3515,-4.3515,-4.3515,-4.3515,0.0,0.0,0.0,0.0,0.0,-4.2359,-4.0965,-4.0781,0.0,-3.8542,-3.7514,-3.6633,-3.6009,-3.5738,-3.5826,-3.6266,-3.7052,-3.7578,-3.7737,-3.7378,-3.6865,-3.6186,-3.5788,-3.56,-3.56,-3.56,-3.56,-3.56,-3.56,-3.56,-3.56,-3.56,-3.56,-3.56,-3.56,-3.56,-3.56,-3.56,-3.6309,-3.7324,-3.755,-3.8531,-3.9842,-4.7553,-4.7993,-4.8306,-4.8306,-4.8034,-4.8015,-4.8619,-4.8843,-4.9672,-5.1728,-5.2163,-5.2555,-5.3267,-5.3261,-5.3203,-5.3203,-5.3203,-5.2564,-5.1022,-5.0785,-4.9867,-4.8068,-4.7315,-4.6691,-4.6049,-4.5168,-4.4525,-4.4195,-4.3718,0.0,-4.3515,0.0,0.0,0.0,0.0,-4.324,-4.2763,-4.1589,-4.0361,-3.9187,-3.851,-3.8522,0.0,-3.8413,-3.8522,-3.8919,-3.8742,-3.8689,-3.8643,-3.8332,-3.7964,-3.7632,-3.7825,-3.7755,-3.7685,-3.8218,-3.8512,-3.8689,-3.8689,-3.8689,-3.8909,-3.968,-4.023,-4.0891,-4.2029,-4.2653,-4.2983,-4.2983,-4.324,-4.3404,-4.302,-4.324,-4.3515,0.0,0.0,0.0,0.0,0.0,0.0,0.0,-4.1315,-4.0618,-3.935,-3.7771,-3.667,-3.634,-3.5862,-3.5936,-3.6795,-3.7235,-3.7624,-3.7911,-3.7735,-3.7275,-3.6395,-3.6217,-3.596,-3.56,-3.56,-3.56,-3.56,-3.56,-3.56,-3.56,-3.56,-3.56,-3.56,-3.56,-3.56,-3.5633,-3.5994,-3.684,-3.7956,-3.8261,-3.9106,-4.0113,-4.8159,-4.8489,-4.8563,-4.8343,-4.9114,-5.0031,-5.0839,-4.9811,-4.9664,-5.172,-5.216,-5.227,-5.216,-5.2784,-5.3203,-5.3203,-5.3093,-5.216,-5.0051,-5.1042,-5.0031,-4.6361,-4.7462,-4.7039,-4.4728,-4.4691,-4.4305,-4.3515,-4.3515,-4.3515,0.0,0.0,0.0,0.0,0.0,0.0,0.0,-4.1682,-4.0561,-3.968,-3.903,-3.8685,-3.8611,-3.8611,-3.8611,-3.8611,-3.8658,-3.8689,-3.8673,-3.8627,-3.7964,-3.7285,-3.7755,-3.7578,-3.7304,-3.7825,-3.8332,-3.8689,-3.8689,-3.8689,-3.8872,-3.957,-3.9827,-4.0267,-4.1662,-4.2066,-4.2139,-4.2139,-4.269,-4.2983,-4.2396,-4.2947,-4.3515,0.0,0.0,-4.3515,-4.3515,-4.291,0.0,0.0,-4.1772,0.0,-4.0267,-3.8667,-3.7309,-3.6523,-3.645,-3.6758,-3.7456,-3.7603,-3.7734,-3.7911,-3.8073,-3.7622,-3.6534,-3.6592,-3.6332,-3.5769,-3.5633,-3.56,-3.56,-3.56,-3.56,-3.56,-3.56,-3.56,-3.56,-3.5701,-3.5802,-3.5971,-3.6671,-3.7381,-3.8125,-3.8768,-3.9469,-4.0113,-4.8269,-4.9407,-4.9921,-4.8563,-4.9591,-5.0875,-5.1683,-5.2087,-5.227,-5.2013,-5.3151,-5.3739,-5.3078,-5.3115,-5.3203,-5.3203,-5.2601,-5.2013,-5.163,-5.0602,-4.939,-4.7939,-4.7516,-4.6489,-4.4745,-4.4691,-4.4305,-4.3515,-4.3515,-4.3515,-4.3515,0.0,0.0,0.0,0.0,0.0,-4.1515,-4.1205,0.0,-3.8915,-3.9014,-3.8645,-3.8048,-3.8048,-3.8048,-3.8099,-3.8528,-3.8689,-3.8627,-3.8165,-3.7649,-3.7285,-3.7755,-3.7578,-3.736,-3.8283,-3.8627,-3.8689,-3.8689,-3.8689,-3.8726,-3.8872,-3.9423,-3.9974,-4.0267,-4.0818,-4.1315,-4.1315,-4.1425,-4.1699,-4.2213,-4.2947,-4.3515,-4.3515,-4.3515,-4.3515,-4.3515,-4.3404,0.0,0.0,0.0,-4.2029,-4.1882,-3.9827,-3.8175,-3.7345,-3.7309,-3.7345,-3.7492,-3.8138,-3.8319,-3.7911,-3.7576,-3.738,-3.7296,-3.6319,-3.6062,-3.6592,-3.5926,-3.56,-3.56,-3.56,-3.56,-3.56,-3.56,-3.56,-3.5633,-3.6332,-3.6941,-3.7516,-3.7652,-3.8159,-3.8802,-3.8937,-3.9469,-4.0113,-4.9517,0.0,0.0,-5.0141,-5.0875,-5.1683,-5.2491,-5.3298,-5.3371,-5.216,-5.2307,-5.238,-5.2013,-5.2711,-5.3203,-5.3203,-5.2454,-5.183,-5.1389,-5.0271,-4.8839,-4.7131,-4.7076,-4.6159,-4.4121,-4.4488,-4.4305,-4.3515,-4.3515,-4.3515,-4.3515,-4.3515,0.0,0.0,0.0,-4.3057,0.0,0.0,-4.1295,-4.0508,-3.98,-3.9518,-3.9481,-3.8644,-3.8571,-3.8931,-3.8758,-3.8689,-3.8658,-3.8417,-3.7981,-3.7596,-3.7825,-3.7578,-3.7341,-3.8065,-3.8283,-3.8332,-3.8627,-3.8689,-3.8689,-3.8689,-3.8982,-3.9386,-3.979,-4.0194,-4.0487,-4.0487,-4.0802,-4.1205,-4.1625,-4.2323,-4.2873,-4.2873,-4.3204,-4.3515,-4.3515,-4.3515,-4.3368,0.0,0.0,0.0,0.0,-4.001,-3.9166,-3.8778,-3.797,-3.7492,-3.7492,-3.8248,-3.8266,-3.7316,-3.7593,-3.7501,-3.6915,-3.6456,-3.6197,-3.6163,-3.5769,-3.5802,-3.6197,-3.5769,-3.5825,-3.6231,-3.6231,-3.6231,-3.6265,-3.7043,-3.7821,-3.8464,-3.8464,-3.87,-3.9039,-3.9436,-3.9571,-3.9605,-5.0655,-5.0031,-4.9921,-5.1683,-5.2417,-5.2858,-5.3188,-5.3885,-5.3885,-5.2454,-5.1683,-5.1316,-5.1316,-5.2433,-5.3151,-5.2968,-5.2197,-5.1389,-5.0582,-4.9627,-4.8122,-4.5993,-4.6342,-4.5626,-4.3551,-4.4121,-4.4121,-4.3515,-4.3515,-4.3515,-4.3515,-4.3515,-4.3515,0.0,0.0,0.0,-4.3221,-4.2763,-4.2359,-4.1919,-4.0671,-4.0414,-4.0691,-3.9239,-3.9203,-3.979,-3.8982,-3.8799,-3.8946,-3.8762,-3.8332,-3.7911,-3.8048,-3.772,-3.7433,-3.7947,-3.8065,-3.8148,-3.8596,-3.8689,-3.8689,-3.8689,-3.8689,-3.8872,-3.9496,-3.9643,-3.9643,-3.9643,-4.0267,-4.0838,-4.0838,-4.1662,-4.2286,-4.2286,-4.2983,-4.3515,-4.3515,-4.3515,-4.3204,0.0,0.0,0.0,-4.0304,-4.001,-3.99,-3.99,-3.8594,-3.7749,-3.7749,-3.8358,-3.8125,-3.6839,-3.7626,-3.7547,-3.6504,-3.6547,-3.64,-3.6073,-3.5938,-3.6265,-3.7032,-3.64,-3.6434,-3.7032,-3.7032,-3.7134,-3.7303,-3.7889,-3.8565,-3.9208,-3.9208,-3.9208,-3.9276,-3.991,-3.974,-3.9334,-5.0655,-5.1867,-5.2601,-5.2087,-5.3833,-5.4803,-5.3408,-5.3885,-5.4069,-5.3225,-5.3041,-5.2983,-5.2983,-5.3093,-5.2931,-5.216,-5.1389,-5.0582,-4.9757,-4.8233,-4.6892,-4.5957,-4.5259,-4.4488,-4.3515,-4.3588,-4.3588,-4.3515,-4.3515,-4.3515,-4.3515,-4.3515,-4.3515,-4.3515,-4.3515,-4.3094,-4.247,-4.3094,-4.2543,-4.1205,-4.1058,-4.0598,-3.99,-3.9056,-3.9203,-3.979,-3.8982,-3.9166,-3.968,-3.8946,-3.8332,-3.7962,-3.8465,-3.8267,-3.7964,-3.8465,-3.8627,-3.8643,-3.8673,-3.8689,-3.8689,-3.8689,-3.8689,-3.8726,-3.8799,-3.8799,-3.8799,-3.8799,-3.946,-4.001,-4.001,-4.1258,-4.2286,-4.2286,-4.2983,-4.3515,-4.3515,-4.3515,-4.3204,-4.2396,0.0,0.0,-4.1058,-4.0341,-3.99,-3.99,-3.9093,-3.8579,-3.8579,-3.8652,-3.8214,-3.7179,-3.7246,-3.7126,-3.6786,-3.6051,-3.64,-3.7686,-3.7009,-3.7077,-3.7787,-3.7719,-3.7753,-3.7787,-3.7787,-3.8193,-3.8802,-3.887,-3.9309,-4.0011,-4.0011,-4.0011,-4.0011,-4.0079,-4.0079,-4.0011,-5.3518,-5.3408,-5.3555,-5.4693,-5.528,-5.5354,-5.473,-5.4913,-5.4656,-5.335,-5.3203,-5.3203,-5.3203,-5.3203,-5.2894,-5.205,-5.1242,-5.0472,-4.9647,-4.8049,-4.6746,-4.592,-4.5149,-4.4305,-4.3515,-4.3515,-4.3515,-4.3515,-4.3515,-4.3515,-4.3515,-4.3515,-4.3515,-4.3515,-4.3515,-4.3331,-4.302,-4.3368,-4.313,-4.247,-4.1499,-4.1222,-4.1148,-3.9386,-3.9203,-3.979,-3.8982,-3.8909,-3.9203,-3.935,-3.8946,-3.8433,-3.8627,-3.8316,-3.8015,-3.8528,-3.8465,-3.8283,-3.8611,-3.8689,-3.8689,-3.8689,-3.8689,-3.8689,-3.8689,-3.8689,-3.8689,-3.8689,-3.8946,-3.9166,-3.9166,-4.0084,-4.1038,-4.1515,-4.2249,-4.2947,-4.3441,-4.3057,0.0,-4.1699,0.0,-4.0524,-3.9738,-3.9386,-3.9166,-3.9166,-3.8872,-3.8505,-3.8006,-3.8432,-3.8,-3.6465,-3.6925,-3.6861,-3.6096,-3.6231,-3.6637,-3.7246,-3.7381,-3.7855,-3.8531,-3.8091,-3.8159,-3.8565,-3.8565,-3.8971,-3.9673,-3.9673,-3.9842,-4.0113,-4.0113,-4.0113,-4.0113,-4.0113,-4.0113,-4.0113,-5.5376,-5.4693,-5.4509,-5.6455,-5.6528,-5.6147,-5.5647,-5.5596,-5.5097,-5.3739,-5.3371,-5.3203,-5.3203,-5.3004,-5.2527,-5.172,-5.0912,-5.0105,-4.928,-4.7682,-4.6489,-4.592,-4.4892,-4.4085,-4.3497,-4.3515,-4.3515,-4.3515,-4.3515,-4.3515,-4.3515,-4.3515,-4.3515,-4.3515,-4.3515,-4.3515,-4.3515,-4.3515,-4.3515,-4.3368,-4.1772,-4.1425,-4.1699,-3.9533,-3.935,-4.012,-3.9056,-3.9166,-3.9753,-3.9863,-3.968,-3.935,-3.9129,-3.8631,-3.8218,-3.8596,-3.8433,-3.8234,-3.8611,-3.8689,-3.8658,-3.8496,-3.8596,-3.8658,-3.8496,-3.8596,-3.8689,-3.8689,-3.8689,-3.8762,-3.9019,-3.9533,-4.0157,-4.0948,-4.1572,-4.2249,-4.302,-4.2433,0.0,-4.1499,-4.0524,-3.968,-3.9129,-3.8836,-3.8689,-3.8689,-3.8528,-3.8308,-3.7881,-3.8455,-3.8032,-3.634,-3.7142,-3.7095,-3.596,-3.6738,-3.7212,-3.7472,-3.7956,-3.8599,-3.9309,-3.8768,-3.8836,-3.9309,-3.9309,-3.9639,-4.0113,-4.0113,-4.0113,-4.0113,-4.0113,-4.0113,-4.0113,-4.0113,-3.9952,-3.974,-5.5155,-5.5596,-5.5831,-5.6675,-5.7446,-5.7446,-5.5831,-5.5596,-5.5317,-5.4473,-5.3702,-5.3203,-5.3203,-5.2491,-5.1683,-5.0875,-5.0068,-4.9243,-4.8379,-4.6801,-4.592,-4.5883,-4.4378,-4.3515,-4.3515,-4.3515,-4.3515,-4.3515,-4.3515,-4.3515,-4.3515,-4.3515,-4.3515,-4.3515,-4.3515,-4.3515,-4.3515,-4.3515,-4.3515,-4.3368,-4.1772,-4.1095,-4.0948,-3.9313,-3.968,-4.0875,-3.9261,-4.023,-4.2029,-4.0414,-4.0414,-4.0912,-4.012,-3.935,-3.8673,-3.8689,-3.871,-3.8673,-3.8689,-3.8689,-3.858,-3.8048,-3.83,-3.858,-3.8032,-3.8316,-3.8689,-3.8689,-3.8689,-3.8946,-3.9753,-3.99,-4.0157,-4.0948,-4.1095,-4.1389,-4.2213,-4.1625,0.0,-4.2176,-4.0855,-3.99,-3.99,-3.9166,-3.8689,-3.8689,-3.8218,-3.8132,-3.8658,-3.8874,-3.8438,-3.721,-3.8112,-3.7978,-3.6795,-3.7516,-3.8261,-3.8971,-3.8971,-3.9368,-4.0079,-4.0079,-4.0079,-4.0079,-4.0079,-4.0079,-4.0113,-4.0113,-4.0113,-4.0113,-4.0113,-4.0113,-4.0113,-4.0113,-3.961,-3.8908,-5.5361,-5.5596,-5.5706,-5.5941,-5.6638,-5.6822,-5.578,-5.5596,-5.5317,-5.4509,-5.3702,-5.3203,-5.3203,-5.2491,-5.1683,-5.0875,-5.0068,-4.9224,-4.8379,-4.7296,-4.6471,-4.592,-4.4892,-4.4048,-4.3515,-4.3515,-4.3515,-4.3515,-4.3515,-4.3515,-4.3515,-4.3515,-4.3515,-4.3515,-4.3515,-4.3515,-4.3515,-4.3515,-4.3515,-4.3404,-4.2359,-4.1919,-4.1809,-4.0728,-4.0655,-4.1022,-4.0508,-4.0838,-4.1499,-4.1515,-4.1332,-4.1132,-4.1442,-4.1001,-4.0104,-3.9019,-3.9093,-3.9386,-3.8836,-3.9093,-3.9465,-3.9301,-3.9401,-3.9465,-3.9301,-3.8962,-3.8689,-3.8689,-3.8689,-3.8799,-3.9019,-3.9093,-3.935,-4.0157,-4.0267,-4.0561,-4.1368,-4.0781,-4.0377,-4.0634,-3.9717,-3.9093,-3.9093,-3.851,-3.83,-3.8658,-3.7912,-3.7632,-3.8115,-3.8384,-3.816,-3.7449,-3.8178,-3.8253,-3.755,-3.8294,-3.8768,-3.9005,-3.9537,-3.9876,-4.0113,-4.0113,-4.0113,-4.0113,-4.0113,-4.0113,-4.0113,-4.0113,-4.0113,-4.0113,-4.0113,-4.0113,-4.0113,-4.0113,-3.9584,-3.8908,-5.5471,-5.5596,-5.5596,-5.5596,-5.6271,-5.6418,-5.5317,-5.539,-5.5207,-5.4106,-5.3518,-5.3203,-5.3203,-5.2197,-5.1353,-5.0839,-4.9774,-4.8893,-4.8343,-4.7553,-4.6746,-4.592,-4.5149,-4.4305,-4.3515,-4.3515,-4.3515,-4.3515,-4.3515,-4.3515,-4.3515,-4.3515,-4.3515,-4.3515,-4.3515,-4.3515,-4.3515,-4.3515,-4.3515,-4.3441,-4.2616,-4.2286,-4.2213,-4.1389,-4.1279,-4.1499,-4.1205,-4.1499,-4.2029,-4.2249,-4.2176,-4.2029,-4.2249,-4.2176,-4.1699,-4.0068,-3.9753,-3.9863,-3.968,-3.9974,-4.0308,-4.0108,-4.0191,-4.0267,-3.9974,-3.9276,-3.8689,-3.8689,-3.8689,-3.8799,-3.9093,-3.8909,-3.8946,-3.9753,-3.9643,-3.9717,-4.0561,-3.9974,-3.9596,-4.0019,-3.9312,-3.8736,-3.8587,-3.8258,-3.8061,-3.8118,-3.736,-3.7161,-3.7714,-3.8183,-3.8258,-3.7919,-3.8734,-3.8879,-3.8328,-3.9039,-3.9411,-3.9436,-3.9876,-4.0113,-4.0113,-4.0113,-4.0113,-4.0113,-4.0113,-4.0113,-4.0113,-4.0113,-4.0113,-4.0113,-4.0113,-4.0113,-4.0113,-4.0113,-3.9584,-3.8854,-5.528,-5.5449,-5.5449,-5.5449,-5.6088,-5.6124,-5.462,-5.5023,-5.4987,-5.3482,-5.3203,-5.3203,-5.3203,-5.183,-5.0875,-5.0875,-4.9297,-4.8306,-4.8306,-4.759,-4.6782,-4.5957,-4.5186,-4.4378,-4.3515,-4.3515,-4.3515,-4.3515,-4.3515,-4.3515,-4.3515,-4.3515,-4.3515,-4.3515,-4.3515,-4.3515,-4.3515,-4.3515,-4.3515,-4.3441,-4.269,-4.2396,-4.2286,-4.1535,-4.1735,-4.2286,-4.1535,-4.2249,-4.3404,-4.2653,-4.2873,-4.3351,-4.2616,-4.2873,-4.3094,-4.1552,-4.0598,-4.023,-4.0912,-4.1132,-4.1049,-4.0564,-4.081,-4.0948,-4.0052,-3.9297,-3.8799,-3.8799,-3.8726,-3.8946,-3.9753,-3.9239,-3.8946,-3.968,-3.9203,-3.8946,-3.9717,-3.9135,-3.9013,-3.9986,-3.9428,-3.8797,-3.8348,-3.8247,-3.7945,-3.7262,-3.6681,-3.6665,-3.7447,-3.8165,-3.8558,-3.8558,-3.9535,-3.9774,-3.9005,-3.974,-4.0113,-4.0113,-4.0113,-4.0113,-4.0113,-4.0113,-4.0113,-4.0113,-4.0113,-4.0113,-4.0113,-4.0113,-4.0113,-4.0113,-4.0113,-4.0113,-4.0113,-4.0113,-3.9584,-3.8799,-5.3616,-5.3775,-5.3775,-5.3775,-5.4436,-5.484,-5.4473,-5.4546,-5.4546,-5.4179,-5.3592,-5.3203,-5.3203,-5.2307,-5.172,-5.172,-4.9627,-4.8306,-4.8306,-4.8122,-4.7388,-4.5957,-4.5736,-4.4929,-4.3551,-4.3515,-4.3515,-4.3515,-4.3515,-4.3515,-4.3515,-4.3515,-4.3515,-4.3515,-4.3515,-4.3515,-4.3515,-4.3515,-4.3515,-4.3478,-4.3277,-4.3204,-4.3204,-4.2983,-4.3057,-4.3167,-4.2983,-4.3167,-4.3478,-4.3277,-4.3314,-4.3478,-4.3277,-4.291,-4.2396,-4.1389,-4.1405,-4.1625,-4.1205,-4.1535,-4.1996,-4.1874,-4.1925,-4.1525,-3.9619,-3.9422,-3.9606,-3.9606,-3.9129,-3.8946,-3.9753,-3.9239,-3.8762,-3.8946,-3.8836,-3.8762,-3.8946,-3.8478,-3.8193,-3.8452,-3.8472,-3.8189,-3.7565,-3.7612,-3.7566,-3.7225,-3.6333,-3.6271,-3.7426,-3.7855,-3.8067,-3.8067,-3.9408,-3.9774,-3.9005,-3.974,-4.0113,-4.0113,-4.0113,-4.0113,-4.0113,-4.0113,-4.0113,-4.0113,-4.0113,-4.0113,-4.0113,-4.0113,-4.0113,-4.0113,-4.0113,-4.0113,-4.0113,-4.0113,-3.9584,-3.8799,-5.3124,-5.3203,-5.3203,-5.3203,-5.3885,-5.4289,-5.3922,-5.4179,-5.4289,-5.3922,-5.3482,-5.3203,-5.3203,-5.2491,-5.183,-5.1463,-4.9884,-4.8893,-4.8893,-4.8526,-4.7755,-4.6507,-4.6104,-4.5333,-4.4085,-4.3681,-4.3515,-4.3515,-4.3515,-4.3515,-4.3515,-4.3515,-4.3515,-4.3515,-4.3515,-4.3515,-4.3515,-4.3515,-4.3515,-4.3515,-4.3515,-4.3515,-4.3515,-4.3515,-4.3515,-4.3515,-4.3515,-4.3515,-4.3515,-4.3515,-4.3515,-4.3515,-4.3515,-4.3204,-4.2763,-4.2323,-4.2249,-4.2286,-4.2213,-4.2506,-4.2785,-4.2522,-4.2177,-4.1506,-4.0069,-3.9696,-3.9751,-4.0013,-3.9683,-3.9604,-4.0329,-3.979,-3.9239,-3.9239,-3.8946,-3.8611,-3.8348,-3.8082,-3.7828,-3.7728,-3.7842,-3.7665,-3.7075,-3.7103,-3.6969,-3.6492,-3.5941,-3.6061,-3.7124,-3.7647,-3.8058,-3.8396,-3.9537,-3.991,-3.9537,-3.991,-4.0113,-4.0113,-4.0113,-4.0113,-4.0113,-4.0113,-4.0113,-4.0113,-4.0113,-4.0113,-4.0113,-4.0113,-4.0113,-4.0113,-4.0113,-4.0113,-4.0113,-4.0113,-3.9825,-3.9289,-5.3203,-5.3298,-5.3314,-5.3203,-5.3885,-5.4142,-5.3314,-5.3775,-5.3959,-5.3277,-5.3203,-5.3203,-5.3203,-5.2601,-5.1903,-5.1242,-5.0325,-4.9684,-4.9427,-4.871,-4.792,-4.7149,-4.6324,-4.5516,-4.4728,-4.3901,-4.3515,-4.3515,-4.3515,-4.3515,-4.3515,-4.3515,-4.3515,-4.3515,-4.3515,-4.3515,-4.3515,-4.3515,-4.3515,-4.3515,-4.3515,-4.3515,-4.3515,-4.3515,-4.3515,-4.3515,-4.3515,-4.3515,-4.3515,-4.3515,-4.3515,-4.3515,-4.3515,-4.3515,-4.3515,-4.3515,-4.2969,-4.2531,-4.3297,-4.3463,-4.325,-4.2693,-4.2017,-4.1307,-4.0615,-4.0002,-3.9711,-4.0159,-4.0237,-4.0348,-4.0876,-4.0366,-3.99,-3.99,-3.9156,-3.8469,-3.8125,-3.7952,-3.7751,-3.754,-3.7625,-3.7521,-3.7011,-3.7066,-3.6806,-3.6005,-3.5938,-3.6265,-3.6931,-3.7652,-3.8362,-3.8971,-3.974,-4.0113,-4.0113,-4.0113,-4.0113,-4.0113,-4.0113,-4.0113,-4.0113,-4.0113,-4.0113,-4.0113,-4.0113,-4.0113,-4.0113,-4.0113,-4.0113,-4.0113,-4.0113,-4.0113,-4.0113,-4.0113,-4.0113,-3.9901,-5.3203,-5.3739,-5.3995,-5.3314,-5.3885,-5.4142,-5.3314,-5.3314,-5.3314,-5.3203,-5.3203,-5.3203,-5.3203,-5.3115,-5.2947,-5.2858,-5.1463,-4.9994,-4.86,-4.8379,-4.792,-4.7149,-4.6324,-4.5516,-4.4728,-4.3901,-4.3515,-4.3515,-4.3515,-4.3515,-4.3515,-4.3515,-4.3515,-4.3515,-4.3515,-4.3515,-4.3515,-4.3515,-4.3515,-4.3515,-4.3515,-4.3515,-4.3515,-4.3515,-4.3515,-4.3515,-4.3515,-4.3515,-4.3515,-4.3515,-4.3515,-4.3515,-4.3515,-4.3515,-4.3515,-4.3515,-4.3069,-4.2757,-4.332,-4.3178,-4.2693,-4.2083,-4.1831,-4.1379,-4.0117,-4.0149,-4.0459,-4.0506,-4.035,-4.0221,-4.033,-4.0115,-3.99,-3.99,-3.8826,-3.8232,-3.8831,-3.8148,-3.7554,-3.7503,-3.8265,-3.8492,-3.7787,-3.8294,-3.8328,-3.7618,-3.755,-3.7618,-3.7719,-3.843,-3.887,-3.9005,-3.974,-4.0113,-4.0113,-4.0113,-4.0113,-4.0113,-4.0113,-4.0113,-4.0113,-4.0113,-4.0113,-4.0113,-4.0113,-4.0113,-4.0113,-4.0113,-4.0113,-4.0113,-4.0113,-4.0113,-4.0113,-4.0113,-4.0113,-3.9952,-5.3203,-5.3518,-5.3775,-5.3849,-5.3812,-5.3775,-5.3849,-5.3482,-5.3203,-5.3203,-5.3203,-5.3203,-5.3203,-5.3203,-5.3041,-5.2601,-5.1463,-5.0288,-4.9077,-4.8563,-4.8122,-4.7736,-4.6966,-4.5993,-4.4728,-4.3901,-4.3515,-4.3515,-4.3515,-4.3515,-4.3515,-4.3515,-4.3515,-4.3515,-4.3515,-4.3515,-4.3515,-4.3515,-4.3515,-4.3515,-4.3515,-4.3515,-4.3515,-4.3515,-4.3515,-4.3515,-4.3515,-4.3515,-4.3515,-4.3515,-4.3515,-4.3515,-4.3515,-4.3515,-4.3515,-4.3515,-4.3321,-4.3032,-4.2696,-4.2865,-4.2846,-4.1603,-4.1538,-4.1468,-4.0178,-4.0331,-4.0837,-4.1174,-4.1161,-4.1271,-4.1869,-4.094,-4.03,-4.1079,-3.9322,-3.8239,-3.917,-3.8269,-3.7685,-3.8231,-3.836,-3.843,-3.8497,-3.843,-3.8261,-3.7922,-3.7922,-3.7922,-3.7922,-3.8599,-3.9005,-3.9005,-3.974,-4.0113,-4.0113,-4.0113,-4.0113,-4.0113,-4.0113,-4.0113,-4.0113,-4.0113,-4.0113,-4.0113,-4.0113,-4.0113,-4.0113,-4.0113,-4.0113,-4.0113,-4.0113,-4.0113,-4.0113,-4.0113,-4.0113,-3.9978,-5.3203,-5.3371,-5.3628,-5.4069,-5.3775,-5.3628,-5.4069,-5.3592,-5.3203,-5.3203,-5.3203,-5.3203,-5.3203,-5.3203,-5.2968,-5.2344,-5.1353,-5.0545,-4.9941,-4.8893,-4.8233,-4.8049,-4.7076,-4.5938,-4.4728,-4.3901,-4.3515,-4.3515,-4.3515,-4.3515,-4.3515,-4.3515,-4.3515,-4.3515,-4.3515,-4.3515,-4.3515,-4.3515,-4.3515,-4.3515,-4.3515,-4.3515,-4.3515,-4.3515,-4.3515,-4.3515,-4.3515,-4.3515,-4.3515,-4.3515,-4.3515,-4.3515,-4.3515,-4.3515,-4.3515,-4.3515,-4.3515,-4.3286,-4.2266,-4.256,-4.2791,-4.1451,-4.134,-4.1375,-4.049,-4.072,-4.1228,-4.1725,-4.1916,-4.223,-4.2886,-4.1633,-4.0872,-4.2092,-4.0036,-3.8598,-3.966,-3.8755,-3.8286,-3.8909,-3.8633,-3.8633,-3.9174,-3.8734,-3.8396,-3.8396,-3.8396,-3.8396,-3.8396,-3.8937,-3.9242,-3.9242,-3.9808,-4.0113,-4.0113,-4.0113,-4.0113,-4.0113,-4.0113,-4.0113,-4.0113,-4.0113,-4.0113,-4.0113,-4.0113,-4.0113,-4.0113,-4.0113,-4.0113,-4.0113,-4.0113,-4.0113,-4.0113,-4.0113,-4.0113,-4.0003,-5.3203,-5.3812,-5.4106,-5.3408,-5.3849,-5.4069,-5.3408,-5.3261,-5.3203,-5.3203,-5.3203,-5.3203,-5.3203,-5.3203,-5.3167,-5.3093,-5.1683,-5.0765,-5.0729,-4.9187,-4.7957,-4.7223,-4.5682,-4.4801,-4.4691,-4.3901,-4.3515,-4.3515,-4.3515,-4.3515,-4.3515,-4.3515,-4.3515,-4.3515,-4.3515,-4.3515,-4.3515,-4.3515,-4.3515,-4.3515,-4.3515,-4.3515,-4.3515,-4.3515,-4.3515,-4.3515,-4.3515,-4.3515,-4.3515,-4.3515,-4.3515,-4.3515,-4.3515,-4.3515,-4.3515,-4.3515,-4.3515,-4.3356,-4.2789,-4.2302,-4.1895,-4.1789,-4.134,-4.0932,-4.0874,-4.1296,-4.1746,-4.1789,-4.2262,-4.2402,-4.1665,-4.143,-4.1542,-4.2182,-4.0653,-3.9676,-4.0491,-4.0036,-3.948,-3.9044,-3.9571,-3.9977,-4.0011,-3.9977,-3.9943,-3.9943,-3.9943,-3.9943,-3.9943,-4.0011,-4.0011,-4.0011,-4.0079,-4.0113,-4.0113,-4.0113,-4.0113,-4.0113,-4.0113,-4.0113,-4.0113,-4.0113,-4.0113,-4.0113,-4.0113,-4.0113,-4.0113,-4.0113,-4.0113,-4.0113,-4.0113,-4.0113,-4.0113,-4.0113,-4.0113,-4.0113,-5.3203,-5.3445,-5.3739,-5.3922,-5.3775,-5.3739,-5.3922,-5.3518,-5.3203,-5.3203,-5.3203,-5.3203,-5.3203,-5.3203,-5.3203,-5.3203,-5.2197,-5.1316,-5.0839,-4.9738,-4.871,-4.7883,-4.6324,-4.5443,-4.5443,-4.4158,-4.3515,-4.3515,-4.3515,-4.3515,-4.3515,-4.3515,-4.3515,-4.3515,-4.3515,-4.3515,-4.3515,-4.3515,-4.3515,-4.3515,-4.3515,-4.3515,-4.3515,-4.3515,-4.3515,-4.3515,-4.3515,-4.3515,-4.3515,-4.3515,-4.3515,-4.3515,-4.3515,-4.3515,-4.3445,-4.3105,-4.3232,-4.3374,-4.2827,-4.2789,-4.2696,-4.1979,-4.1916,-4.1916,-4.1516,-4.1916,-4.2362,-4.2362,-4.2557,-4.2717,-4.2704,-4.1996,-4.1759,-4.2878,-4.1325,-4.0331,-4.1236,-4.0491,-3.9755,-3.9713,-3.9943,-4.0113,-4.0113,-4.0113,-4.0113,-4.0113,-4.0113,-4.0113,-4.0113,-4.0113,-4.0113,-4.0113,-4.0113,-4.0113,-4.0113,-4.0113,-4.0113,-4.0113,-4.0113,-4.0113,-4.0113,-4.0113,-4.0113,-4.0113,-4.0113,-4.0113,-4.0113,-4.0113,-4.0113,-4.0113,-4.0113,-4.0383,-4.073,-4.0282,-4.0688,-4.1399,-5.3555,-5.335,-5.3445,-5.4252,-5.3739,-5.3408,-5.3959,-5.3555,-5.3203,-5.3203,-5.3203,-5.3203,-5.3203,-5.3203,-5.3203,-5.3203,-5.2454,-5.1756,-5.1206,-5.0198,-4.9206,-4.8343,-4.6764,-4.5883,-4.5883,-4.4562,-4.3754,-4.3515,-4.3515,-4.3515,-4.3515,-4.3515,-4.3515,-4.3515,-4.3515,-4.3515,-4.3515,-4.3515,-4.3515,-4.3515,-4.3515,-4.3515,-4.3515,-4.3515,-4.3515,-4.3515,-4.3515,-4.3515,-4.3515,-4.3515,-4.3515,-4.3515,-4.3515,-4.3515,-4.3374,-4.2882,-4.3087,-4.3374,-4.2827,-4.3105,-4.3286,-4.2306,-4.2382,-4.2596,-4.22,-4.2521,-4.294,-4.294,-4.294,-4.3069,-4.3445,-4.2559,-4.2158,-4.3318,-4.2104,-4.1224,-4.1753,-4.1007,-4.0366,-4.0145,-4.0113,-4.0113,-4.0113,-4.0113,-4.0113,-4.0113,-4.0113,-4.0113,-4.0113,-4.0113,-4.0113,-4.0113,-4.0113,-4.0113,-4.0113,-4.0113,-4.0113,-4.0113,-4.0113,-4.0113,-4.0113,-4.0113,-4.0113,-4.0113,-4.0113,-4.0113,-4.0113,-4.0113,-4.0113,-4.0113,-4.0113,-4.0527,-4.1136,-4.0629,-4.1204,-4.2219,-5.4216,-5.3739,-5.3482,-5.4252,-5.3739,-5.3203,-5.3203,-5.3203,-5.3203,-5.3203,-5.3203,-5.3203,-5.3203,-5.3203,-5.3203,-5.3203,-5.2454,-5.2013,-5.1977,-5.0492,-4.9243,-4.8343,-4.6764,-4.592,-4.592,-4.5112,-4.4305,-4.3515,-4.3515,-4.3515,-4.3515,-4.3515,-4.3515,-4.3515,-4.3515,-4.3515,-4.3515,-4.3515,-4.3515,-4.3515,-4.3515,-4.3515,-4.3515,-4.3515,-4.3515,-4.3515,-4.3515,-4.3515,-4.3515,-4.3515,-4.3515,-4.3515,-4.3515,-4.3515,-4.341,-4.2846,-4.3087,-4.3374,-4.2827,-4.3105,-4.3356,-4.2827,-4.2693,-4.2693,-4.2693,-4.3124,-4.3515,-4.3515,-4.3515,-4.3515,-4.3515,-4.3087,-4.2865,-4.3391,-4.3069,-4.2518,-4.1895,-4.181,-4.1375,-4.0229,-4.0113,-4.0113,-4.0113,-4.0113,-4.0113,-4.0113,-4.0113,-4.0113,-4.0113,-4.0113,-4.0113,-4.0113,-4.0113,-4.0113,-4.0113,-4.0113,-4.0113,-4.0113,-4.0113,-4.0113,-4.0113,-4.0113,-4.0113,-4.0113,-4.0113,-4.0113,-4.0113,-4.0113,-4.0113,-4.0113,-4.0113,-4.0561,-4.1204,-4.1204,-4.1677,-4.232,-5.3518,-5.3812,-5.4106,-5.4363,-5.4216,-5.4032,-5.4032,-5.3555,-5.3203,-5.3203,-5.3203,-5.3203,-5.3203,-5.3203,-5.3203,-5.3203,-5.3004,-5.2601,-5.205,-5.1022,-5.0068,-4.9243,-4.7645,-4.6746,-4.6746,-4.5388,-4.4599,-4.4342,-4.3791,-4.3515,-4.3515,-4.3515,-4.3515,-4.3515,-4.3515,-4.3515,-4.3515,-4.3515,-4.3515,-4.3515,-4.3515,-4.3515,-4.3515,-4.3515,-4.3515,-4.3515,-4.3515,-4.3515,-4.3515,-4.3515,-4.3515,-4.3515,-4.3515,-4.3515,-4.348,-4.3303,-4.3356,-4.348,-4.3303,-4.3356,-4.348,-4.3303,-4.325,-4.325,-4.325,-4.341,-4.3515,-4.3515,-4.3515,-4.3515,-4.3515,-4.3356,-4.3303,-4.348,-4.3356,-4.3087,-4.2501,-4.2062,-4.153,-4.0733,-4.0319,-4.0113,-4.0113,-4.0113,-4.0113,-4.0113,-4.0113,-4.0113,-4.0113,-4.0113,-4.0113,-4.0113,-4.0113,-4.0113,-4.0113,-4.0113,-4.0113,-4.0113,-4.0595,-4.0595,-4.0113,-4.0629,-4.0595,-4.0113,-4.0113,-4.0392,-4.0832,-4.0316,-4.0417,-4.0865,-4.0865,-4.1305,-4.1982,-4.1982,-4.2794,-4.3836,-5.3665,-5.4069,-5.4509,-5.4803,-5.4363,-5.4032,-5.4363,-5.3739,-5.3203,-5.3203,-5.3203,-5.3203,-5.3203,-5.3203,-5.3203,-5.3203,-5.3203,-5.2858,-5.205,-5.1536,-5.0912,-5.0105,-4.8783,-4.7792,-4.7113,-4.6159,-4.5498,-4.5186,-4.4378,-4.4121,-4.4415,-4.4121,-4.4121,-4.4415,-4.4121,-4.3975,-4.3938,-4.3644,-4.3515,-4.3551,-4.3828,-4.3791,-4.3551,-4.3864,-4.3791,-4.3515,-4.3515,-4.3515,-4.3515,-4.3515,-4.3718,-4.394,-4.3725,-4.4016,-4.4343,-4.3798,-4.4016,-4.4378,-4.4048,-4.4195,-4.4305,-4.3662,-4.3718,-4.3901,-4.3588,-4.3754,-4.3864,-4.3588,-4.3515,-4.3515,-4.3515,-4.3754,-4.3864,-4.3551,-4.3754,-4.3597,-4.2478,-4.2021,-4.1508,-4.0696,-4.0303,-4.0113,-4.0113,-4.0113,-4.0113,-4.0113,-4.0113,-4.0248,-4.0493,-4.0282,-4.0383,-4.0959,-4.0688,-4.0527,-4.0527,-4.0527,-4.0383,-4.0113,-4.0527,-4.0553,-4.0113,-4.0561,-4.0493,-4.0113,-4.0417,-4.0798,-4.1204,-4.1035,-4.1204,-4.161,-4.1305,-4.1847,-4.2692,-4.2388,-4.3295,-4.4547,-5.4509,-5.4583,-5.484,-5.5574,-5.4509,-5.3775,-5.4509,-5.3922,-5.3408,-5.3314,-5.3314,-5.3277,-5.3203,-5.3203,-5.3203,-5.3203,-5.3203,-5.2894,-5.216,-5.2087,-5.1756,-5.0949,-5.0235,-4.9077,-4.748,-4.7223,-4.6746,-4.5993,-4.5223,-4.5186,-4.5883,-4.5149,-4.5223,-4.5883,-4.5149,-4.4801,-4.4764,-4.4011,-4.3735,-4.3754,-4.4525,-4.4378,-4.3808,-4.4525,-4.4342,-4.3735,-4.3735,-4.3735,-4.3681,-4.3625,-4.4121,-4.4693,-4.4061,-4.4778,-4.5571,-4.4272,-4.4813,-4.5663,-4.493,-4.5297,-4.5553,-4.4085,-4.4305,-4.4654,-4.3791,-4.4232,-4.4599,-4.3882,-4.3735,-4.3735,-4.3735,-4.4305,-4.4562,-4.3718,-4.4232,-4.4053,-4.2148,-4.1832,-4.1397,-4.0303,-4.0104,-4.0113,-4.0113,-4.0113,-4.0146,-4.018,-4.0146,-4.0417,-4.117,-4.0561,-4.0857,-4.2252,-4.1644,-4.1305,-4.1305,-4.1305,-4.0933,-4.0214,-4.0282,-4.0316,-4.0316,-4.0383,-4.0383,-4.035,-4.1001,-4.1339,-4.1441,-4.2049,-4.2286,-4.2219,-4.1644,-4.2185,-4.324,-4.2692,-4.3369,-4.4581,-5.5317,-5.5831,-5.6345,-5.6528,-5.6271,-5.6088,-5.6271,-5.5611,-5.484,-5.4216,-5.4142,-5.3922,-5.3298,-5.3203,-5.3203,-5.3203,-5.3203,-5.3151,-5.2968,-5.2931,-5.2601,-5.1756,-5.1573,-5.1022,-5.0031,-4.8103,-4.7003,-4.6819,-4.603,-4.5736,-4.5883,-4.5736,-4.5736,-4.5883,-4.5736,-4.5626,-4.5626,-4.5443,-4.5369,-4.5369,-4.5553,-4.5553,-4.5406,-4.5553,-4.5516,-4.5369,-4.5369,-4.5369,-4.5259,-4.4635,-4.4966,-4.5425,-4.4203,-4.4449,-4.5007,-4.4242,-4.4549,-4.5164,-4.4983,-4.5384,-4.581,-4.548,-4.5993,-4.6195,-4.4782,-4.5076,-4.559,-4.5406,-4.5369,-4.5369,-4.5369,-4.5516,-4.5369,-4.4562,-4.4599,-4.42,-4.2724,-4.2083,-4.1516,-4.0803,-4.0343,-4.0113,-4.0113,-4.0113,-4.035,-4.0933,-4.0451,-4.0417,-4.117,-4.1035,-4.1373,-4.2252,-4.2151,-4.2049,-4.2049,-4.2049,-4.1677,-4.0967,-4.1542,-4.1813,-4.1813,-4.2422,-4.2388,-4.1839,-4.1982,-4.2388,-4.2868,-4.2455,-4.2286,-4.232,-4.276,-4.2794,-4.2658,-4.3735,-4.431,-4.4513,-5.517,-5.5978,-5.6822,-5.6822,-5.6492,-5.6345,-5.6748,-5.5794,-5.4987,-5.4987,-5.4289,-5.3812,-5.3775,-5.3424,-5.3203,-5.3203,-5.3203,-5.3203,-5.3203,-5.3203,-5.3004,-5.2601,-5.2197,-5.1793,-5.1389,-4.9738,-4.8673,-4.8306,-4.7058,-4.6691,-4.7058,-4.6654,-4.6691,-4.7021,-4.6654,-4.6471,-4.6471,-4.6067,-4.5883,-4.592,-4.6324,-4.625,-4.5957,-4.6324,-4.625,-4.5883,-4.5883,-4.5883,-4.5883,-4.5883,-4.6122,-4.623,-4.4931,-4.5279,-4.5924,-4.4942,-4.5329,-4.6127,-4.6028,-4.652,-4.6874,-4.6104,-4.6801,-4.7259,-4.5663,-4.5883,-4.6361,-4.5993,-4.5883,-4.5883,-4.5883,-4.6214,-4.6214,-4.5406,-4.5077,-4.4517,-4.3524,-4.2559,-4.1847,-4.1606,-4.1333,-4.1162,-4.1162,-4.1162,-4.1331,-4.1711,-4.1373,-4.1474,-4.2219,-4.1914,-4.2219,-4.3362,-4.2658,-4.2455,-4.2828,-4.2489,-4.2286,-4.2252,-4.1914,-4.1779,-4.1779,-4.2185,-4.2151,-4.1813,-4.2523,-4.3064,-4.3375,-4.3403,-4.3396,-4.3403,-4.3403,-4.3403,-4.3464,-4.3876,-4.4248,-4.4547,-5.5244,-5.6088,-5.7005,-5.7005,-5.6455,-5.6235,-5.6895,-5.5868,-5.5207,-5.5721,-5.4656,-5.4032,-5.4546,-5.3885,-5.3371,-5.3203,-5.3203,-5.3203,-5.3203,-5.3203,-5.3203,-5.3203,-5.2564,-5.2197,-5.2197,-5.1426,-5.0545,-4.961,-4.8196,-4.7773,-4.8306,-4.7626,-4.7663,-4.8269,-4.759,-4.7296,-4.7259,-4.6581,-4.6324,-4.6361,-4.7039,-4.6911,-4.6397,-4.7039,-4.6892,-4.6324,-4.6324,-4.6324,-4.6397,-4.6929,-4.7186,-4.7107,-4.5831,-4.6332,-4.7155,-4.5841,-4.6409,-4.7346,-4.7212,-4.7716,-4.7976,-4.6654,-4.7315,-4.7939,-4.6617,-4.6838,-4.7113,-4.6434,-4.6324,-4.6324,-4.6324,-4.6874,-4.7039,-4.625,-4.5748,-4.5142,-4.4236,-4.3127,-4.2403,-4.2325,-4.2286,-4.2354,-4.2489,-4.2354,-4.2354,-4.2489,-4.2354,-4.2625,-4.3341,-4.2828,-4.3132,-4.4581,-4.3362,-4.2997,-4.3606,-4.2997,-4.2997,-4.3606,-4.2252,-4.1644,-4.1779,-4.1779,-4.1779,-4.1847,-4.3064,-4.3606,-4.3673,-4.4316,-4.4513,-4.4316,-4.3809,-4.3944,-4.4316,-4.3809,-4.4012,-4.4615,-5.7409,-5.7703,-5.785,-5.785,-5.774,-5.7703,-5.7813,-5.7666,-5.7299,-5.6712,-5.6455,-5.6088,-5.55,-5.473,-5.3959,-5.324,-5.3203,-5.3203,-5.3203,-5.3203,-5.3203,-5.3203,-5.3093,-5.3041,-5.3041,-5.2234,-5.1096,-4.961,-4.9297,-4.8893,-4.8306,-4.8196,-4.8196,-4.8306,-4.8196,-4.8159,-4.8122,-4.8012,-4.7976,-4.7976,-4.8086,-4.8086,-4.8012,-4.8122,-4.8086,-4.7976,-4.7976,-4.7976,-4.7902,-4.7296,-4.7553,-4.7897,-4.653,-4.6708,-4.7241,-4.6493,-4.6816,-4.737,-4.7383,-4.7806,-4.8269,-4.8049,-4.8159,-4.8233,-4.8049,-4.8049,-4.8122,-4.8012,-4.7976,-4.7976,-4.7976,-4.8086,-4.7846,-4.7076,-4.6873,-4.6177,-4.4374,-4.3951,-4.3453,-4.2411,-4.2286,-4.2557,-4.3172,-4.2658,-4.2557,-4.32,-4.2658,-4.2625,-4.3341,-4.3308,-4.3673,-4.4581,-4.4412,-4.4344,-4.4445,-4.4344,-4.4344,-4.4445,-4.3538,-4.347,-4.4141,-4.4141,-4.4141,-4.4175,-4.4378,-4.4445,-4.4445,-4.4581,-4.4181,-4.3639,-4.4215,-4.4079,-4.3639,-4.4215,-4.4513,-4.4615,-5.6565,-5.7005,-5.7336,-5.7336,-5.7703,-5.7997,-5.7997,-5.7629,-5.7373,-5.7446,-5.6675,-5.6161,-5.6271,-5.5537,-5.4913,-5.4583,-5.4142,-5.3885,-5.3885,-5.3445,-5.3203,-5.3203,-5.3203,-5.3203,-5.3203,-5.2858,-5.2087,-5.0932,-5.0472,-4.9811,-4.9003,-4.9003,-4.8783,-4.8306,-4.8306,-4.8306,-4.8306,-4.8306,-4.8306,-4.8306,-4.8306,-4.8306,-4.8306,-4.8306,-4.8306,-4.8306,-4.8306,-4.8306,-4.8269,-4.7902,-4.8012,-4.8136,-4.7156,-4.7096,-4.7342,-4.7044,-4.719,-4.7578,-4.84,-4.8809,-4.9114,-4.9591,-4.937,-4.9003,-4.9003,-4.8636,-4.8306,-4.8306,-4.8306,-4.8306,-4.8306,-4.8306,-4.8196,-4.781,-4.6828,-4.5918,-4.5455,-4.4429,-4.3683,-4.3586,-4.3572,-4.3707,-4.4045,-4.3775,-4.3707,-4.4045,-4.3741,-4.3707,-4.4045,-4.4079,-4.4215,-4.4581,-4.4147,-4.4147,-4.4615,-4.4147,-4.4147,-4.4615,-4.4215,-4.4012,-4.3944,-4.3944,-4.3944,-4.3944,-4.4412,-4.4615,-4.4615,-4.4615,-4.4384,-4.4113,-4.4479,-4.4378,-4.4113,-4.4479,-4.4615,-4.4615]},{"header":{"parameterUnit":"m.s-1","parameterCategory":1,"la1":30.6,"la2":28.766,"lo1":-90.7593,"lo2":-88.6598,"dy":0.0162,"dx":0.0183,"nx":116,"ny":114,"refTime":"2024-02-09T18:00:00:Z","depth":0,"parameterNumber":3,"parameterNumberName":"V-component_of_WINDS"},"data":[0.0,0.0,0.0,0.0,0.0,0.0,0.0,0.0,0.0,0.0,0.0,0.0,0.0,0.0,0.0,0.0,0.0,0.0,0.0,0.0,0.0,0.0,0.0,0.0,0.0,0.0,0.0,0.0,0.0,0.0,0.0,0.0,0.0,0.0,0.0,0.0,0.0,0.0,0.0,0.0,0.0,0.0,0.0,0.0,0.0,0.0,0.0,0.0,0.0,0.0,0.0,0.0,0.0,0.0,0.0,0.0,0.0,0.0,0.0,0.0,0.0,0.0,0.0,0.0,0.0,0.0,0.0,0.0,0.0,0.0,0.0,0.0,0.0,0.0,0.0,0.0,0.0,0.0,0.0,0.0,0.0,0.0,0.0,0.0,0.0,0.0,0.0,0.0,0.0,0.0,0.0,0.0,0.0,0.0,0.0,0.0,0.0,0.0,0.0,0.0,0.0,0.0,0.0,0.0,0.0,0.0,0.0,0.0,0.0,0.0,0.0,0.0,0.0,0.0,0.0,0.0,0.0,0.0,0.0,0.0,0.0,0.0,0.0,0.0,0.0,0.0,0.0,0.0,0.0,0.0,0.0,0.0,0.0,0.0,0.0,0.0,0.0,0.0,0.0,0.0,0.0,0.0,0.0,0.0,0.0,0.0,0.0,0.0,0.0,0.0,0.0,0.0,0.0,0.0,0.0,0.0,0.0,0.0,0.0,0.0,0.0,0.0,0.0,0.0,0.0,0.0,0.0,0.0,0.0,0.0,0.0,0.0,0.0,0.0,0.0,0.0,0.0,0.0,0.0,0.0,0.0,0.0,0.0,0.0,0.0,0.0,0.0,0.0,0.0,0.0,0.0,0.0,0.0,0.0,0.0,0.0,0.0,0.0,0.0,0.0,0.0,0.0,0.0,0.0,0.0,0.0,0.0,0.0,0.0,0.0,0.0,0.0,0.0,0.0,0.0,0.0,0.0,0.0,0.0,0.0,0.0,0.0,0.0,0.0,0.0,0.0,0.0,0.0,0.0,0.0,0.0,0.0,0.0,0.0,0.0,0.0,0.0,0.0,0.0,0.0,0.0,0.0,0.0,0.0,0.0,0.0,0.0,0.0,0.0,0.0,0.0,0.0,0.0,0.0,0.0,0.0,0.0,0.0,0.0,0.0,0.0,0.0,0.0,0.0,0.0,0.0,0.0,0.0,0.0,0.0,0.0,0.0,0.0,0.0,0.0,0.0,0.0,0.0,0.0,0.0,0.0,0.0,0.0,0.0,0.0,0.0,0.0,0.0,0.0,0.0,0.0,0.0,0.0,0.0,0.0,0.0,0.0,0.0,0.0,0.0,0.0,0.0,0.0,0.0,0.0,0.0,0.0,0.0,0.0,0.0,0.0,0.0,0.0,0.0,0.0,0.0,0.0,0.0,0.0,0.0,0.0,0.0,0.0,0.0,0.0,0.0,0.0,0.0,0.0,0.0,0.0,0.0,0.0,0.0,0.0,0.0,0.0,0.0,0.0,0.0,0.0,0.0,0.0,0.0,0.0,0.0,0.0,0.0,0.0,0.0,0.0,0.0,0.0,0.0,0.0,0.0,0.0,0.0,0.0,0.0,0.0,0.0,0.0,0.0,0.0,0.0,0.0,0.0,0.0,0.0,0.0,0.0,0.0,0.0,0.0,0.0,0.0,0.0,0.0,0.0,0.0,0.0,0.0,0.0,0.0,0.0,0.0,0.0,0.0,0.0,0.0,0.0,0.0,0.0,0.0,0.0,0.0,0.0,0.0,0.0,0.0,0.0,0.0,0.0,0.0,0.0,0.0,0.0,0.0,0.0,0.0,0.0,0.0,0.0,0.0,0.0,0.0,0.0,0.0,0.0,0.0,0.0,0.0,0.0,0.0,0.0,0.0,0.0,0.0,0.0,0.0,0.0,0.0,0.0,0.0,0.0,0.0,0.0,0.0,0.0,0.0,0.0,0.0,0.0,0.0,0.0,0.0,0.0,0.0,0.0,0.0,0.0,0.0,0.0,0.0,0.0,0.0,0.0,0.0,0.0,0.0,0.0,0.0,0.0,0.0,0.0,0.0,0.0,0.0,0.0,0.0,0.0,0.0,0.0,0.0,0.0,0.0,0.0,0.0,0.0,0.0,0.0,0.0,0.0,0.0,0.0,0.0,0.0,0.0,0.0,0.0,0.0,0.0,0.0,0.0,0.0,0.0,0.0,0.0,0.0,0.0,0.0,0.0,0.0,0.0,0.0,0.0,0.0,0.0,0.0,0.0,0.0,0.0,0.0,0.0,0.0,0.0,0.0,0.0,0.0,0.0,0.0,0.0,0.0,0.0,0.0,0.0,0.0,0.0,0.0,0.0,0.0,0.0,0.0,0.0,0.0,0.0,0.0,0.0,0.0,0.0,0.0,0.0,0.0,0.0,0.0,0.0,0.0,0.0,0.0,0.0,0.0,0.0,0.0,0.0,0.0,0.0,0.0,0.0,0.0,0.0,0.0,0.0,0.0,0.0,0.0,0.0,0.0,0.0,0.0,0.0,0.0,0.0,0.0,0.0,0.0,0.0,0.0,0.0,0.0,0.0,0.0,0.0,0.0,0.0,0.0,0.0,0.0,0.0,0.0,0.0,0.0,0.0,0.0,0.0,0.0,0.0,0.0,0.0,0.0,0.0,0.0,0.0,0.0,0.0,0.0,0.0,0.0,0.0,0.0,0.0,0.0,0.0,0.0,0.0,0.0,0.0,0.0,0.0,0.0,0.0,0.0,0.0,0.0,0.0,0.0,0.0,0.0,0.0,0.0,0.0,0.0,0.0,0.0,0.0,0.0,0.0,0.0,0.0,0.0,0.0,0.0,0.0,0.0,0.0,0.0,0.0,0.0,0.0,0.0,0.0,0.0,0.0,0.0,0.0,0.0,0.0,0.0,0.0,0.0,0.0,0.0,0.0,0.0,0.0,0.0,0.0,0.0,0.0,0.0,0.0,0.0,0.0,0.0,0.0,0.0,0.0,0.0,0.0,0.0,0.0,0.0,0.0,0.0,0.0,0.0,0.0,0.0,0.0,0.0,0.0,0.0,0.0,0.0,0.0,0.0,0.0,0.0,0.0,0.0,0.0,0.0,0.0,0.0,0.0,0.0,0.0,0.0,0.0,0.0,0.0,0.0,0.0,0.0,0.0,0.0,0.0,0.0,0.0,0.0,0.0,0.0,0.0,0.0,0.0,0.0,0.0,0.0,0.0,0.0,0.0,0.0,0.0,0.0,0.0,0.0,0.0,0.0,0.0,0.0,0.0,0.0,0.0,0.0,0.0,0.0,0.0,0.0,0.0,0.0,0.0,0.0,0.0,0.0,0.0,0.0,0.0,0.0,0.0,0.0,0.0,0.0,0.0,0.0,0.0,0.0,0.0,0.0,0.0,0.0,0.0,0.0,0.0,0.0,0.0,0.0,0.0,0.0,0.0,0.0,0.0,0.0,0.0,0.0,0.0,0.0,0.0,0.0,0.0,0.0,0.0,0.0,0.0,0.0,0.0,0.0,0.0,0.0,0.0,0.0,0.0,0.0,0.0,0.0,0.0,0.0,0.0,0.0,0.0,0.0,0.0,0.0,0.0,0.0,0.0,0.0,0.0,0.0,0.0,0.0,0.0,0.0,0.0,0.0,0.0,0.0,0.0,0.0,0.0,0.0,0.0,0.0,0.0,0.0,0.0,0.0,0.0,0.0,0.0,0.0,0.0,0.0,0.0,0.0,0.0,0.0,0.0,0.0,0.0,0.0,0.0,0.0,0.0,0.0,0.0,0.0,0.0,0.0,0.0,0.0,0.0,0.0,0.0,0.0,0.0,0.0,0.0,0.0,0.0,0.0,0.0,0.0,0.0,0.0,0.0,0.0,0.0,0.0,0.0,0.0,0.0,0.0,0.0,0.0,0.0,0.0,0.0,0.0,0.0,0.0,0.0,0.0,0.0,0.0,0.0,0.0,0.0,0.0,0.0,0.0,0.0,0.0,0.0,0.0,0.0,0.0,0.0,0.0,0.0,0.0,0.0,0.0,0.0,0.0,0.0,0.0,0.0,0.0,0.0,0.0,0.0,0.0,0.0,0.0,0.0,0.0,0.0,0.0,0.0,0.0,0.0,0.0,0.0,0.0,0.0,0.0,0.0,0.0,0.0,0.0,0.0,0.0,0.0,0.0,0.0,0.0,0.0,0.0,0.0,0.0,0.0,0.0,0.0,0.0,0.0,0.0,0.0,0.0,0.0,0.0,0.0,0.0,0.0,0.0,0.0,0.0,0.0,0.0,0.0,0.0,0.0,0.0,0.0,0.0,0.0,0.0,0.0,0.0,0.0,0.0,0.0,0.0,0.0,0.0,0.0,0.0,0.0,0.0,0.0,0.0,0.0,0.0,0.0,0.0,0.0,0.0,0.0,0.0,0.0,0.0,0.0,0.0,0.0,0.0,0.0,0.0,0.0,0.0,0.0,0.0,0.0,0.0,0.0,0.0,0.0,0.0,0.0,0.0,0.0,0.0,0.0,0.0,0.0,0.0,0.0,0.0,0.0,0.0,0.0,0.0,0.0,0.0,0.0,0.0,0.0,0.0,0.0,0.0,0.0,0.0,0.0,0.0,0.0,0.0,0.0,0.0,0.0,0.0,0.0,0.0,0.0,0.0,0.0,0.0,0.0,0.0,0.0,0.0,0.0,0.0,0.0,0.0,0.0,0.0,0.0,0.0,0.0,0.0,0.0,0.0,0.0,0.0,0.0,0.0,0.0,0.0,0.0,0.0,0.0,0.0,0.0,0.0,0.0,0.0,0.0,0.0,0.0,0.0,0.0,0.0,0.0,0.0,0.0,0.0,0.0,0.0,0.0,0.0,0.0,0.0,0.0,0.0,0.0,0.0,0.0,0.0,0.0,0.0,0.0,0.0,0.0,0.0,0.0,0.0,0.0,0.0,0.0,0.0,0.0,0.0,0.0,0.0,0.0,0.0,0.0,0.0,0.0,0.0,0.0,0.0,0.0,0.0,0.0,0.0,0.0,0.0,0.0,0.0,0.0,0.0,0.0,0.0,0.0,0.0,0.0,0.0,0.0,0.0,0.0,0.0,0.0,0.0,0.0,0.0,0.0,0.0,0.0,0.0,0.0,0.0,0.0,0.0,0.0,0.0,0.0,0.0,0.0,0.0,0.0,0.0,0.0,0.0,0.0,0.0,0.0,0.0,0.0,0.0,0.0,0.0,0.0,0.0,0.0,0.0,0.0,0.0,0.0,0.0,0.0,0.0,0.0,0.0,0.0,0.0,0.0,0.0,0.0,0.0,0.0,0.0,0.0,0.0,0.0,0.0,0.0,0.0,0.0,0.0,0.0,0.0,0.0,0.0,0.0,0.0,0.0,0.0,0.0,0.0,0.0,0.0,0.0,0.0,0.0,0.0,0.0,0.0,0.0,0.0,0.0,0.0,0.0,0.0,0.0,0.0,0.0,0.0,0.0,0.0,0.0,0.0,0.0,0.0,0.0,0.0,0.0,0.0,0.0,0.0,0.0,0.0,0.0,0.0,0.0,0.0,0.0,0.0,0.0,0.0,0.0,0.0,0.0,0.0,0.0,0.0,0.0,0.0,0.0,0.0,0.0,0.0,0.0,0.0,0.0,0.0,0.0,0.0,0.0,0.0,0.0,0.0,0.0,0.0,0.0,0.0,0.0,0.0,0.0,0.0,0.0,0.0,0.0,0.0,0.0,0.0,0.0,0.0,0.0,0.0,0.0,0.0,0.0,0.0,0.0,0.0,0.0,0.0,0.0,0.0,0.0,0.0,0.0,0.0,0.0,0.0,0.0,0.0,0.0,0.0,0.0,0.0,0.0,0.0,0.0,0.0,0.0,0.0,0.0,0.0,0.0,0.0,0.0,0.0,0.0,0.0,0.0,0.0,0.0,0.0,0.0,0.0,0.0,0.0,0.0,0.0,0.0,0.0,0.0,0.0,0.0,0.0,0.0,0.0,0.0,0.0,0.0,0.0,0.0,0.0,0.0,0.0,0.0,0.0,0.0,0.0,0.0,0.0,0.0,0.0,0.0,0.0,0.0,0.0,0.0,0.0,0.0,0.0,0.0,0.0,0.0,0.0,1.9392,1.8649,0.0,0.0,0.0,0.0,0.0,0.0,0.0,0.0,0.0,0.0,0.0,0.0,0.0,0.0,0.0,0.0,0.0,0.0,0.0,0.0,0.0,0.0,0.0,0.0,0.0,0.0,0.7988,0.7988,0.7988,0.7988,0.0,0.0,0.0,0.0,0.7387,0.7913,0.8493,0.911,1.0206,1.1433,1.2709,1.3018,1.193,0.9704,0.0,0.0,0.0,0.0,0.0,0.0,0.0,0.0,0.0,0.0,0.0,0.0,0.0,0.0,0.0,0.0,0.0,0.0,0.0,0.0,0.0,0.0,0.0,0.0,0.0,0.0,0.0,0.0,0.0,0.0,0.0,0.0,0.0,0.0,0.0,0.0,0.0,0.0,0.0,0.0,0.0,0.0,0.0,0.0,0.0,0.0,0.0,0.0,0.0,0.0,0.0,0.0,0.0,0.0,0.0,0.0,0.0,0.0,0.0,0.0,0.0,0.0,0.0,0.0,0.0,0.0,0.0,0.0,0.0,0.0,2.1957,2.1023,0.0,0.0,0.0,0.0,0.0,0.0,0.0,0.0,0.0,0.0,0.0,0.0,0.0,0.0,0.0,0.0,0.0,0.0,0.0,0.0,0.0,0.0,0.0,0.7988,0.7988,0.7988,0.7988,0.7982,0.7948,0.7948,0.7882,0.7611,0.7685,0.7563,0.7146,0.843,0.9257,0.9606,1.2048,1.4013,1.5471,1.5524,1.401,1.1208,1.0305,0.0,0.0,0.0,0.0,0.0,0.0,0.0,0.0,0.0,0.0,0.0,0.0,0.0,0.0,0.0,0.0,0.0,0.0,0.0,0.0,0.0,0.0,0.0,0.0,0.0,0.0,0.0,0.0,0.0,0.0,0.0,0.0,0.0,0.0,0.0,0.0,0.0,0.0,0.0,0.0,0.0,0.0,0.0,0.0,0.0,0.0,0.0,0.0,0.0,0.0,0.0,0.0,0.0,0.0,0.0,0.0,0.0,0.0,0.0,0.0,0.0,0.0,0.0,2.5019,2.5586,2.6484,2.5898,2.5801,2.6016,2.4941,2.4043,2.329,2.2692,0.0,0.0,0.0,0.0,0.0,0.0,0.0,0.0,0.0,0.0,0.0,0.0,0.0,0.0,0.0,0.0,0.0,0.0,0.0,0.0,0.0,0.7988,0.7988,0.7988,0.7988,0.7934,0.7848,0.7841,0.7767,0.7604,0.7489,0.74,0.7346,0.8383,0.957,1.086,1.368,1.5305,1.5731,1.6032,1.5928,1.5421,1.3813,1.2786,1.2247,0.0,0.0,0.0,0.0,0.0,0.0,0.0,0.0,0.0,0.0,0.0,0.0,0.0,0.0,0.0,0.0,0.0,0.0,0.0,0.0,0.0,0.0,0.0,0.0,0.0,0.0,0.0,0.0,0.0,0.0,0.0,0.0,0.0,0.0,0.0,0.0,0.0,0.0,0.0,0.0,0.0,1.9777,2.0855,0.0,0.0,0.0,0.0,0.0,0.0,0.0,0.0,0.0,0.0,0.0,0.0,0.0,2.5125,2.5957,2.675,2.6934,2.668,2.7422,2.748,2.6953,2.7578,2.7695,2.7454,2.7278,0.0,2.4212,2.4113,0.0,0.0,0.0,0.0,0.0,0.0,0.0,0.0,0.0,0.0,0.0,0.0,0.0,0.0,0.0,0.0,0.0,0.0,0.0,0.0,0.0,0.8187,0.8289,0.8289,0.852,0.8492,0.8092,0.814,0.7977,0.7495,0.7489,0.7735,0.822,0.958,1.1885,1.5233,1.7029,1.8038,1.8304,1.8498,1.8208,1.7502,1.673,1.5329,1.3442,1.239,0.0,0.0,0.0,0.0,0.0,0.0,0.0,0.0,0.0,0.0,0.0,0.0,0.0,0.0,0.0,0.0,0.0,0.0,0.0,0.0,0.0,0.0,0.0,0.0,0.0,0.0,0.0,0.0,0.0,0.0,0.0,0.0,0.0,0.0,0.0,0.0,0.0,0.0,0.0,2.225,2.2492,2.2026,2.3002,2.3324,0.0,0.0,0.0,0.0,0.0,0.0,0.0,0.0,0.0,2.5215,2.5625,2.623,2.709,2.7532,2.7812,2.8086,2.8457,2.8691,2.8809,2.8945,2.9043,2.9082,2.8883,2.793,2.6523,2.5499,2.4602,2.3725,0.0,0.0,0.0,0.0,2.1469,2.1305,0.0,0.0,0.0,0.0,0.0,0.0,0.0,0.0,0.0,0.0,0.0,0.0,0.815,0.8411,0.88,0.9341,0.9224,0.9092,0.9021,0.8566,0.8031,0.7446,0.7441,0.792,0.8894,1.0934,1.419,1.8619,1.9562,2.0204,2.0536,2.0611,1.9978,1.8824,1.8824,1.7603,1.5368,1.4051,1.3683,1.3893,0.0,0.0,0.0,0.0,0.0,0.0,0.0,0.0,0.0,0.0,0.0,0.0,0.0,0.0,0.0,0.0,0.0,0.0,0.0,0.0,0.0,0.0,0.0,0.0,0.0,0.0,0.0,0.0,0.0,0.0,0.0,0.0,0.0,0.0,0.0,0.0,0.0,2.4062,2.4473,2.2871,2.4492,2.4891,0.0,0.0,0.0,0.0,0.0,0.0,2.4902,2.5332,2.5977,2.6855,2.709,2.7559,2.8301,2.8491,2.8809,2.9414,2.9414,2.9746,3.0371,3.0059,3.0019,3.0176,2.9746,2.9141,2.834,2.6855,2.5518,2.4446,2.3769,2.3164,2.2676,2.2676,2.2754,2.293,0.0,0.0,0.0,0.0,0.0,0.0,0.0,0.0,0.0,0.0,0.0,0.815,0.8628,0.8689,0.9516,1.1614,1.0036,0.9512,1.0863,0.9011,0.7706,0.7433,0.7238,0.768,0.8894,1.2221,1.5599,1.8969,2.0084,2.0828,2.1173,2.1418,2.0903,1.9733,1.9733,1.9533,1.9021,1.7225,1.6693,1.6823,1.5113,0.0,0.0,0.0,0.0,0.0,0.0,0.0,0.0,0.0,0.0,0.0,0.0,0.0,0.0,0.0,0.0,0.0,0.0,0.0,0.0,0.0,0.0,0.0,0.0,0.0,0.0,0.0,0.0,0.0,0.0,0.0,0.0,0.0,0.0,0.0,0.0,0.0,0.0,2.3218,2.5723,0.0,0.0,0.0,0.0,2.5028,2.5352,2.582,2.6269,2.668,2.7305,2.8164,2.8984,2.9629,3.0059,3.0508,3.0762,3.0801,3.0801,3.082,3.0859,3.084,3.0586,3.0176,2.9746,2.9316,2.8809,2.793,2.6493,2.4847,2.4465,2.3848,2.3169,2.3169,2.3423,2.373,0.0,0.0,0.0,0.0,0.0,0.0,0.0,0.0,0.7434,0.7939,0.8238,0.8567,0.8777,0.9198,0.9759,1.062,1.0165,0.9881,0.998,0.9009,0.8214,0.7821,0.8245,0.9677,1.221,1.4777,1.7787,2.1221,2.2204,2.2735,2.2863,2.2975,2.1942,2.008,2.008,2.012,2.012,1.8718,1.7635,1.678,1.5765,1.5137,0.0,0.0,0.0,0.0,0.0,0.0,0.0,0.0,0.0,0.0,0.0,0.0,0.0,0.0,0.0,0.0,0.0,0.0,0.0,0.0,0.0,0.0,0.0,0.0,0.0,0.0,0.0,0.0,0.0,0.0,0.0,0.0,0.0,0.0,0.0,0.0,0.0,2.5684,2.7559,0.0,2.6465,2.709,2.748,2.7168,2.7539,2.8086,2.8809,2.9258,2.9648,2.9961,3.0527,3.0762,3.0644,3.082,3.0898,3.0898,3.0898,3.0898,3.0898,3.0898,3.0644,3.0195,3.0039,2.957,2.8906,2.8594,2.7474,2.5944,2.5791,2.5137,2.4309,2.4375,2.4297,2.4199,0.0,0.0,0.0,0.0,0.0,0.0,0.0,0.0,0.7484,0.7939,0.8431,0.8804,0.9062,0.9571,1.0184,1.1065,1.0538,1.0211,1.028,0.9194,0.8364,0.786,0.9371,1.1445,1.4195,1.6368,1.8912,2.1913,2.2702,2.3039,2.3039,2.3039,2.206,2.0167,2.0167,2.0401,2.0628,1.984,1.8664,1.7286,1.6924,1.67,1.6462,0.0,0.0,0.0,0.0,0.0,0.0,0.0,0.0,0.0,0.0,0.0,0.0,0.0,0.0,0.0,0.0,0.0,0.0,0.0,0.0,0.0,0.0,0.0,0.0,0.0,0.0,0.0,0.0,0.0,0.0,0.0,0.0,0.0,0.0,2.6387,2.7559,2.7266,2.9141,2.9939,2.8491,2.9101,2.9531,2.9394,2.9629,3.0098,3.082,3.1016,3.1172,3.1309,3.1601,3.1543,3.1113,3.1094,3.1035,3.0898,3.0898,3.0898,3.0898,3.0898,3.0566,2.998,2.998,2.9492,2.8711,2.8711,2.8125,2.7136,2.6828,2.6271,2.5556,2.5399,2.5117,2.4824,0.0,0.0,0.0,0.0,0.0,0.0,0.0,0.5977,0.6481,0.7846,0.8445,0.8899,0.9347,0.9802,1.0868,1.3021,1.1243,1.0511,1.1816,0.9686,0.8165,0.7813,1.0481,1.28,1.4542,1.6846,1.8916,2.0723,2.1328,2.1586,2.1586,2.1586,2.1089,2.0167,2.0167,2.0401,2.0681,2.0668,1.9899,1.8644,1.8746,1.9128,1.9633,0.0,0.0,0.0,0.0,0.0,0.0,0.0,0.0,0.0,0.0,0.0,0.0,0.0,0.0,0.0,0.0,0.0,0.0,0.0,0.0,0.0,0.0,0.0,0.0,0.0,0.0,0.0,0.0,0.0,0.0,0.0,0.0,0.0,2.5165,2.7344,2.8652,2.7943,3.041,3.1523,2.9844,3.127,3.2031,3.1582,3.1562,3.1738,3.219,3.1777,3.1738,3.2129,3.2168,3.1973,3.1523,3.1523,3.1309,3.0898,3.0898,3.0898,3.0898,3.0879,3.0391,2.9626,2.9551,2.9062,2.8301,2.8301,2.8318,2.8264,2.7685,2.7249,2.6864,2.6055,2.5693,2.5518,0.0,0.0,0.0,0.0,0.0,0.0,0.4518,0.5372,0.6514,0.8035,0.8784,0.9327,0.9659,1.0202,1.0778,1.1358,1.0454,0.997,1.0259,0.9694,1.0187,1.1968,1.3311,1.4879,1.673,1.7808,1.925,2.1013,2.1376,2.1586,2.1586,2.1586,2.1089,2.0167,2.0167,2.0401,2.0655,2.0441,2.063,2.0959,2.0386,2.0498,2.1032,0.0,0.0,0.0,0.0,0.0,0.0,0.0,0.0,0.0,0.0,0.0,0.0,0.0,0.0,0.0,0.0,0.0,0.0,0.0,0.0,0.0,0.0,0.0,0.0,0.0,0.0,0.0,0.0,0.0,0.0,0.0,2.5723,2.7266,2.7383,2.8555,2.9766,3.0859,3.1934,3.2559,3.2383,3.2793,3.291,3.248,3.2441,3.2226,3.1719,3.2168,3.2207,3.1719,3.2305,3.2266,3.1523,3.1523,3.1309,3.0898,3.0898,3.0898,3.0879,3.0547,3.0098,2.9551,2.9238,2.8789,2.8301,2.8301,2.8295,2.8284,2.814,2.7243,2.6109,2.6507,2.5994,2.5019,0.0,0.0,0.0,0.0,0.0,0.0,0.3817,0.4668,0.5897,0.7908,0.8879,0.9449,0.9618,0.9583,0.9776,1.0381,0.9317,0.8782,0.9107,0.9732,1.0956,1.2962,1.3948,1.5223,1.6946,1.7571,1.8721,2.0373,2.0559,2.0702,2.0702,2.0702,2.0464,2.0054,2.0054,2.0147,2.0307,2.0254,2.0855,2.1897,2.2276,2.3097,2.3983,2.3627,2.375,2.3895,2.2661,2.2416,2.2519,2.1565,0.0,0.0,0.0,0.0,0.0,0.0,0.0,0.0,0.0,0.0,0.0,0.0,0.0,0.0,0.0,0.0,0.0,0.0,0.0,0.0,0.0,0.0,0.0,0.0,2.7441,2.9082,2.9805,3.0351,3.1152,3.2285,3.2793,3.3144,3.3398,3.3418,3.332,3.3066,3.2891,3.2656,3.2324,3.2617,3.2656,3.2324,3.2617,3.248,3.1797,3.1601,3.1309,3.0898,3.0898,3.0898,3.0879,3.0605,3.0154,2.96,2.9313,2.8848,2.8301,2.8301,2.8304,2.8291,0.0,0.0,0.0,0.0,2.5801,2.4842,0.0,0.0,0.0,0.0,0.0,0.0,0.3366,0.3917,0.4872,0.7253,0.8484,0.9051,0.8923,0.8166,0.8172,0.933,0.7999,0.7589,0.8867,1.0045,1.1278,1.2506,1.3632,1.4764,1.5886,1.6472,1.7537,1.9127,1.9153,1.9269,1.943,1.9457,1.9559,1.98,1.98,1.98,1.9813,2.0067,2.0715,2.1759,2.3805,2.569,2.7246,2.7213,2.7695,2.8144,2.6523,2.5194,2.4165,2.3871,0.0,0.0,0.0,0.0,0.0,0.0,0.0,0.0,0.0,0.0,0.0,0.0,0.0,0.0,0.0,0.0,0.0,0.0,0.0,0.0,0.0,0.0,0.0,0.0,2.9219,3.0468,3.2012,3.2324,3.25,3.2832,3.3184,3.3418,3.3418,3.3418,3.3398,3.3359,3.3047,3.2988,3.3262,3.3008,0.0,0.0,0.0,3.2598,3.2168,3.1738,3.1309,3.0898,3.0898,3.0898,3.0879,3.0781,3.0329,2.9573,2.9505,2.8984,2.8301,2.8301,2.8206,2.8035,2.8005,2.7047,2.5724,2.57,2.5285,2.4651,0.0,0.0,0.0,0.0,0.0,0.0,0.2163,0.3316,0.4239,0.4869,0.626,0.6858,0.5868,0.5864,0.5929,0.6064,0.6493,0.8151,1.1415,1.2341,1.3341,1.4719,1.5739,1.5773,1.4752,1.508,1.597,1.7443,1.766,1.8323,1.943,1.9599,1.9746,1.98,1.98,1.98,1.98,1.9867,2.0534,2.1702,2.2729,2.463,2.6973,2.8109,2.8652,2.8672,2.7656,2.7785,2.8265,2.7188,2.5336,2.3302,2.2297,1.9618,0.0,0.0,0.0,0.0,0.0,0.0,0.0,0.0,0.0,0.0,0.0,0.0,0.0,0.0,0.0,0.0,0.0,0.0,0.0,2.8555,3.041,3.1894,3.2578,3.3262,3.3594,3.334,3.3379,3.3418,3.3418,3.3418,3.3281,3.2949,3.3144,3.3047,3.2441,3.2969,3.3184,3.293,3.2832,3.2598,3.2168,3.1738,3.1309,3.0898,3.0898,0.0,3.0859,3.0156,2.9763,2.9584,2.8883,2.8437,2.8301,2.8301,2.7453,2.62,2.62,2.6015,2.5689,2.5705,2.4762,2.3435,0.0,0.0,0.0,0.0,0.0,0.0,0.1813,0.3115,0.4031,0.4068,0.5643,0.6227,0.4962,0.4322,0.4291,0.4872,0.58,0.7806,1.132,1.2065,1.2745,1.3547,1.4331,1.4375,1.3582,1.3683,1.4482,1.6013,1.6132,1.6558,1.7181,1.7289,1.7289,1.7289,1.722,1.7162,1.7103,1.7174,1.7948,1.9277,2.0679,2.2534,2.4758,2.7594,2.905,2.9531,2.9355,2.8814,2.8088,2.7564,2.5698,2.3382,2.2259,2.0678,1.8929,0.0,0.0,0.0,0.0,0.0,0.0,0.0,0.0,0.0,0.0,0.0,0.0,0.0,0.0,2.5019,2.5879,0.0,2.8848,3.0586,3.1953,3.2949,3.3379,3.3809,3.3906,3.3476,3.3418,3.3418,3.3418,3.3418,3.334,3.3125,3.3301,3.3242,3.2812,3.3184,3.3223,3.2812,3.2598,3.2285,3.1855,3.1426,3.1094,3.0898,3.0898,3.0898,3.0879,3.0425,3.0066,2.9767,2.905,2.8569,2.8262,2.7832,2.6879,2.5705,2.5673,2.572,2.5583,2.4702,2.4401,2.4272,0.0,0.0,0.0,0.0,0.0,0.0,0.0,0.2764,0.3516,0.3265,0.4725,0.5293,0.3915,0.2824,0.2841,0.4407,0.5253,0.713,1.0638,1.1342,1.1769,1.2037,1.2528,1.2686,1.2306,1.2273,1.2989,1.4572,1.461,1.4735,1.5008,1.4991,1.4881,1.4791,1.4681,1.4538,1.4463,1.4528,1.5264,1.6507,1.858,2.0368,2.2139,2.5965,2.8106,2.9279,2.9564,2.8142,2.6201,2.648,2.4748,2.2393,2.1415,2.1079,2.0739,1.9104,1.9569,0.0,0.0,0.0,0.0,0.0,0.0,0.0,0.0,0.0,2.107,2.3975,2.5479,2.6797,2.8262,2.9238,3.0488,3.248,3.3144,3.3535,3.3887,3.4023,3.3906,3.3476,3.3418,3.3418,3.3418,3.3418,3.3418,3.3418,3.3418,3.3418,3.3418,3.3418,3.3223,3.2812,3.2383,3.1953,3.1523,3.1094,3.0898,3.0898,3.0898,3.0918,3.0897,3.0734,3.0333,2.9829,2.9258,2.8628,2.796,2.713,2.6307,2.5676,2.5499,2.5467,2.5263,2.3689,2.3971,2.4999,0.0,0.0,0.0,0.0,0.0,0.0,0.0,0.0,0.1813,0.0605,0.1667,0.2002,0.0664,0.0368,0.1323,0.3862,0.4267,0.6394,1.112,1.184,1.2397,1.2913,1.311,1.2489,1.0927,1.0795,1.1475,1.2955,1.3181,1.387,1.5008,1.5302,1.5172,1.4791,1.4771,1.4701,1.4569,1.4589,1.4708,1.5015,1.7225,1.8902,2.0441,2.2766,2.4519,2.5625,2.5451,2.4855,2.417,2.4433,2.2986,2.1185,2.1571,2.041,1.8849,1.8928,1.872,1.8456,1.8589,1.7779,1.6802,1.6232,1.5925,1.6621,0.0,0.0,2.2723,2.4683,2.6956,2.875,2.9316,3.0156,3.1191,3.2578,3.3144,3.3437,3.3496,3.3828,3.3906,3.3476,3.3418,3.3418,3.3418,3.3418,3.3418,3.3418,3.3418,3.3418,3.3418,3.3418,3.3223,3.2812,3.2383,3.1953,3.1523,3.1094,3.0898,3.0898,3.0898,3.0897,3.0869,3.0128,2.96,2.9277,2.8682,2.7907,2.7069,2.6205,2.5768,2.5637,2.4833,2.4551,2.4426,2.3464,2.3209,2.333,0.0,0.0,0.0,0.0,0.0,0.0,0.0,0.0,0.0,0.0151,0.1175,0.1486,0.0152,0.0,0.077,0.2668,0.3767,0.57,0.8882,1.0287,1.1213,1.1814,1.2,1.1714,1.0975,1.0833,1.1098,1.1844,1.1717,1.1999,1.2604,1.2596,1.2514,1.2233,1.1138,1.0523,1.0386,1.0479,1.1005,1.196,1.4071,1.6269,1.8329,1.8111,1.9279,2.1268,2.3592,2.3146,0.0,2.191,2.0755,1.9257,1.9525,1.959,1.9502,1.9133,1.9691,2.0166,1.913,1.8334,1.7607,1.6715,1.682,1.7694,2.012,2.2087,2.3959,2.5874,2.8089,2.9961,3.0898,3.1387,3.2051,0.0,3.3691,3.3809,3.3809,3.375,3.3535,3.3105,3.2832,3.2891,3.3379,3.3418,3.3418,3.3418,3.3418,3.3418,3.3418,3.3418,3.3125,3.2461,3.2266,3.1836,3.1152,3.0976,3.0898,3.0879,3.0625,3.0622,3.0866,2.9869,2.9113,2.8682,2.8432,2.7838,2.7001,2.6615,2.6153,2.5634,2.5043,2.4625,2.4283,2.3419,2.3089,2.3101,0.0,0.0,0.0,0.0,0.0,0.0,0.0,0.0,0.0,0.0,0.0857,0.1058,0.0101,0.0,0.0555,0.1861,0.3158,0.4828,0.719,0.8606,0.9849,1.0853,1.105,1.1165,1.1287,1.1104,1.1077,1.1226,1.0928,1.0772,1.0873,1.0677,1.0267,0.9695,0.8278,0.7311,0.6712,0.6786,0.7764,0.9351,1.126,1.3535,1.5752,1.4755,1.5322,1.7073,2.0401,2.0324,1.8663,1.9074,1.8382,1.7422,1.7528,1.8443,1.9433,1.8903,2.0014,2.0933,1.903,1.8495,1.8256,1.7204,1.7622,1.8617,2.0116,2.2153,2.4335,2.636,2.8318,3.016,3.1717,3.1992,3.2363,3.3535,3.3711,3.3711,3.3711,3.3437,3.3086,3.2676,3.2246,3.2285,3.3008,3.3066,3.3066,3.3066,3.3184,3.3242,3.3242,3.3242,3.291,3.2187,3.2051,3.1641,3.0898,3.0898,3.082,3.0703,3.0334,3.0272,3.0413,2.938,2.8721,2.8301,2.8301,2.7812,2.7012,2.7012,2.6504,2.5635,2.5234,2.4805,2.4309,2.3577,2.3216,2.3101,0.0,0.0,0.0,0.0,0.0,0.0,0.0,0.0,0.0,0.0,0.0,0.0,0.0,0.0,0.0555,0.1861,0.215,0.3624,0.6894,0.7493,0.8629,1.084,1.0887,1.1089,1.1599,1.1307,1.1233,1.1382,1.1084,1.0873,1.088,1.0785,0.9701,0.7872,0.7797,0.6757,0.4999,0.5003,0.6026,0.7816,0.957,1.1086,1.2483,1.3884,1.3857,1.3331,1.4635,1.5254,1.5591,1.5839,1.5899,1.5904,1.6233,1.6965,1.7735,1.8052,1.8816,1.9252,1.7705,1.7861,1.8359,1.7721,1.8237,1.9118,1.9987,2.1712,2.3657,2.5626,2.7297,2.909,3.1148,3.1543,3.1816,3.2695,3.2832,3.2832,3.2832,3.2832,3.2656,3.2307,3.1797,3.1719,0.0,3.2268,3.2268,3.2268,3.2578,3.2812,3.2812,3.2812,3.2617,3.2187,3.1758,3.1328,3.0898,3.0898,3.0664,3.0215,3.02,2.9889,2.9242,2.8589,2.8301,2.8301,2.8301,2.7812,2.7012,2.7012,2.6504,2.5635,2.5234,2.4805,2.4355,2.3945,2.3516,2.3101,0.0,0.0,0.0,0.0,0.0,0.0,0.0,0.0,0.0,0.0,0.0,0.0,0.0,0.0,0.0,0.0,0.1589,0.2744,0.4085,0.6348,0.8,0.8781,1.0148,1.0948,1.1103,0.9908,1.0016,1.1545,0.9814,0.9069,0.9285,0.9002,0.7949,0.6187,0.4942,0.406,0.3456,0.3456,0.3824,0.4558,0.7365,0.9355,1.0613,1.0729,1.1558,1.2586,0.0,1.247,1.4065,1.3886,1.4482,1.5271,1.5424,1.5651,1.5913,1.6228,1.6678,1.6994,1.6876,1.7493,1.8287,1.8682,1.9279,1.9914,2.0655,2.2176,2.3549,2.3978,2.573,2.7365,2.8197,2.9088,3.0078,3.0937,3.1797,3.2383,3.2383,3.2617,3.2539,3.1816,3.1601,0.0,0.0,0.0,0.0,3.2209,3.2559,3.2676,3.2402,3.2637,3.2461,3.1758,3.1601,3.1328,3.0898,3.0898,3.082,3.0644,2.9909,2.9191,2.8569,2.8413,2.8301,2.8301,2.8301,2.7812,2.7012,2.7012,2.6504,2.5635,2.5234,2.4805,2.4355,2.3945,2.3516,2.3101,0.0,0.0,0.0,0.0,0.0,0.0,0.0,0.0,0.0,0.0,0.0,0.0,0.0,0.0,0.0,0.0,0.0,0.177,0.2586,0.463,0.6161,0.6935,0.8265,0.9068,0.9156,0.7995,0.8122,0.9601,0.7952,0.7222,0.7453,0.7185,0.6136,0.4358,0.3208,0.2349,0.1762,0.1753,0.212,0.291,0.5496,0.7433,0.8755,0.8728,0.967,0.0,0.934,1.0177,1.2109,1.2676,1.383,1.4995,1.4843,1.4803,1.4883,1.5284,1.5671,1.6112,1.67,1.7582,1.8557,1.9452,2.004,2.0494,2.0869,2.1811,2.257,2.2602,2.3809,2.5113,2.6009,2.695,2.801,2.9319,3.0234,3.0996,3.1621,3.1797,3.1777,3.1543,3.123,3.0996,0.0,0.0,0.0,3.168,3.2109,3.2226,3.1953,3.2187,3.209,3.1543,3.1367,3.1172,3.0898,3.0723,3.047,3.018,2.9288,2.868,2.8301,2.8301,2.8301,2.8301,2.8301,2.7957,2.7436,2.7153,2.6504,2.5654,2.543,2.5008,2.4506,2.4167,2.3652,2.3101,0.0,0.0,0.0,0.0,0.0,0.0,0.0,0.0,0.0,0.0,0.0,0.0,0.0,0.0,0.0,0.0,0.0,0.0,0.2275,0.2588,0.3445,0.5172,0.5452,0.5702,0.5928,0.574,0.5788,0.6018,0.5615,0.543,0.544,0.5308,0.4284,0.2561,0.2561,0.1603,0.0,0.0,0.0997,0.2693,0.3909,0.5333,0.6869,0.7851,0.8217,0.8265,0.778,0.846,0.9888,1.2137,1.3857,1.4981,1.4616,1.4536,1.4683,1.5271,1.5858,1.6496,1.7125,1.8103,1.9199,1.998,2.0468,2.0681,2.0681,2.0641,2.0835,2.1506,2.1651,2.2269,0.0,0.0,2.5785,2.7888,2.8301,2.8984,3.0684,3.0586,3.0625,0.0,0.0,0.0,0.0,0.0,0.0,3.0859,0.0,3.1504,3.1484,3.1504,3.1504,3.1484,3.1094,3.0898,3.0898,3.0449,2.9755,2.8918,2.8497,2.832,2.8301,2.8301,2.8281,2.8315,2.8315,2.8278,2.8228,2.7326,2.6504,2.5693,2.5693,2.5397,2.4921,2.4545,2.3822,2.3101,0.0,0.0,0.0,0.0,0.0,0.0,0.0,0.0,0.0,0.0,0.0,0.0,0.0,0.0,0.0,0.0,0.0,0.0,0.0614,0.1843,0.2675,0.2995,0.4451,0.5234,0.5334,0.4127,0.427,0.5838,0.4224,0.3473,0.3605,0.3444,0.2406,0.0663,0.0663,0.0422,0.0,0.0,0.0238,0.0818,0.2226,0.3631,0.5017,0.6339,0.7437,0.8241,0.8011,0.8728,1.0069,1.1321,1.333,1.519,1.4683,1.4816,1.5284,1.5872,1.6522,1.7206,1.8183,1.9172,2.0,2.0454,2.0615,2.0681,2.0681,2.0174,1.9681,1.9387,1.9362,1.9648,2.0597,2.2509,2.4573,2.6567,2.8476,0.0,3.1211,3.1797,0.0,3.2012,0.0,3.1934,3.1406,3.125,0.0,0.0,3.1269,3.1387,3.1074,3.1348,3.1367,3.1055,3.0937,3.0898,3.0898,3.0451,2.9737,2.8925,2.8933,2.8711,2.8301,2.8301,2.8323,2.8298,2.8298,2.8304,2.8236,2.7362,2.6507,2.5693,2.5693,2.5599,2.5364,2.4434,2.3693,2.3101,0.0,0.0,0.0,0.0,0.0,0.0,0.0,0.0,0.0,0.0,0.0,0.0,0.0,0.0,0.0,0.0,0.0,0.0,0.0,0.1439,0.2222,0.2097,0.3713,0.46,0.46,0.3148,0.2982,0.4116,0.2401,0.1548,0.1616,0.1555,0.0979,0.0,0.0,0.0,0.0,0.0,0.0,0.0,0.0,0.2939,0.425,0.5653,0.6991,0.816,0.8022,0.8874,1.0066,0.0,0.0,1.5391,1.5311,1.5511,1.5952,1.6807,0.0,1.7969,1.9025,1.9853,2.0494,2.0788,2.0775,2.0548,2.0027,1.9426,1.8664,1.7555,1.7332,1.7504,1.8068,1.9685,2.1822,2.4388,0.0,0.0,3.0392,3.123,3.1777,0.0,3.2207,0.0,3.1562,3.1523,3.1348,0.0,3.1269,3.1328,3.0918,3.1289,3.1328,3.0898,3.0898,3.0703,3.0312,3.0082,2.9502,2.8641,2.8769,2.8613,2.8301,2.8301,2.8284,2.8284,2.7513,2.7168,2.7113,2.6645,2.6133,2.5693,2.5693,2.5464,2.5033,2.4302,2.3648,2.3101,0.0,0.0,0.0,0.0,0.0,0.0,0.0,0.0,0.0,0.0,0.0,0.0,0.0,0.0,0.0,0.0,0.0,0.0,0.0,0.0,0.2012,0.2012,0.3265,0.4014,0.4014,0.2864,0.218,0.201,0.084,0.016,0.0,0.0,0.0,0.0,0.0,0.0,0.0,0.0,0.0,0.0106,0.1246,0.2551,0.3867,0.0,0.6581,0.7739,0.7939,0.881,0.9919,0.0,1.2159,1.5128,1.5875,1.6134,1.641,1.7716,1.837,1.8798,1.9679,2.0321,2.0726,2.0727,2.0641,2.0207,1.8871,1.8404,1.7782,1.6112,1.5664,1.5841,1.6536,1.7221,1.8738,2.2043,0.0,2.5595,2.9024,2.9945,3.0762,3.2072,3.1836,3.1582,3.1523,3.1523,3.1348,3.0918,3.1269,3.1328,3.0918,3.123,3.1269,3.0898,3.082,3.0392,2.9646,2.9551,2.9121,2.8301,2.8301,2.8301,2.8301,2.8301,2.8284,2.8212,2.6442,2.5708,2.5714,2.5726,2.5701,2.5693,2.5693,2.5234,2.4558,2.4144,2.3687,2.3242,0.0,0.0,0.0,0.0,0.0,0.0,0.0,0.0,0.0,0.0,0.0,0.0,0.0,0.0,0.0,0.0,0.0,0.0,0.0,0.0,0.0,0.2012,0.3265,0.4014,0.4014,0.3767,0.312,0.2023,0.1776,0.107,0.0,0.0,0.0,0.0,0.0,0.0,0.0,0.0,0.0,0.0,0.0254,0.1162,0.2515,0.3817,0.0,0.0,0.7584,0.8686,0.9623,1.0012,1.135,1.3153,1.4453,1.514,1.5825,1.8102,1.8985,1.9412,2.0281,2.0775,2.0727,1.9279,1.9447,1.9404,1.7259,1.6879,0.0,0.0,1.5084,1.498,1.574,1.6857,1.8442,2.1044,2.3568,2.6058,2.8428,2.9927,3.1113,0.0,3.2109,3.1914,3.1562,3.1523,0.0,0.0,3.1269,3.1328,3.0918,3.0957,3.0957,3.0898,3.0509,3.0084,2.957,2.9194,2.8768,2.8301,2.8301,2.8301,2.8301,2.8301,2.8284,2.8192,2.6473,2.5705,2.5695,2.5692,2.5684,2.5693,2.5693,2.5613,2.535,2.4353,2.3926,2.3845,0.0,0.0,0.0,0.0,0.0,0.0,0.0,0.0,0.0,0.0,0.0,0.0,0.0,0.0,0.0,0.0,0.0,0.0,0.0,0.0,0.0,0.0,0.5018,0.6071,0.6071,0.5422,0.4368,0.3065,0.0,0.1309,0.0,0.0,0.0,0.0,0.0,0.0,0.0,0.0,0.0,0.0,0.0,0.0806,0.2063,0.0,0.0,0.0,0.0,0.0,0.8792,0.9082,0.9733,1.0785,1.3184,1.4136,1.4922,1.749,1.8341,1.8809,2.0469,2.1002,2.0906,2.0068,1.9711,1.9158,1.7401,0.0,0.0,0.0,1.4496,1.4412,1.4797,1.5618,0.0,1.9004,2.0949,2.3289,2.6518,2.8164,2.9623,3.1308,3.1699,3.1758,3.1543,3.1523,3.1348,3.0918,3.1269,3.1328,3.0918,3.0898,3.0898,3.0898,3.0665,3.0238,2.9646,2.94,2.8917,2.8301,2.8301,2.8301,2.8301,2.8301,2.8284,2.8192,2.6448,2.5699,2.5695,2.5713,2.5693,2.5693,2.5693,2.5536,2.522,2.4691,2.4249,2.3991,0.0,0.0,0.0,0.0,0.0,0.0,0.0,0.0,0.0,0.0,0.0,0.0,0.0,0.0,0.0,0.0,0.0,0.0,0.0,0.0,0.0,0.0,0.0,0.0,0.0,0.0,0.0,0.4014,0.2964,0.0,0.0,0.0,0.0,0.0,0.0,0.0,0.0,0.0,0.0,0.0,0.0,0.0656,0.0,0.0,0.0,0.0,0.0,0.0,0.8015,0.0,0.8343,0.8898,1.146,1.2683,1.3694,1.6211,1.6968,1.7453,1.9387,2.022,2.0449,2.0068,1.9629,1.8915,1.7394,1.6371,0.0,1.4322,1.4082,1.4082,1.4082,1.4512,1.5325,1.6934,1.8221,2.0229,2.393,2.5991,2.7865,0.0,3.0878,0.0,3.1387,3.1387,0.0,3.0918,3.1191,3.123,3.0918,3.0898,3.0898,3.0898,3.0704,3.0275,2.9626,2.9394,2.8965,2.8301,2.8301,2.8301,2.8301,2.8301,2.8304,2.8186,2.6628,2.5895,2.5691,2.5702,2.5693,2.5693,2.5693,2.546,2.5061,2.4964,2.4644,2.4241,0.0,0.0,0.0,0.0,0.0,0.0,0.0,0.0,0.0,0.0,0.0,0.0,0.0,0.0,0.0,0.0,0.0,0.0,0.0,0.0,0.0,0.0,0.0,0.0,0.0,0.0,0.0,0.4014,0.3864,0.0,0.0,0.0,0.0,0.0,0.0,0.0,0.0,0.0,0.0,0.0,0.0,0.0,0.0,0.0,0.0,0.0,0.0,0.7988,0.0,0.0,0.0,0.8368,0.8839,1.0209,1.2131,1.4232,0.0,0.0,1.6055,1.7423,1.8372,1.6754,1.7682,1.8311,1.5815,0.0,1.5177,1.4269,1.4082,1.4082,1.4082,1.4135,1.4566,1.5745,1.72,1.8916,2.1024,2.4336,2.6885,2.771,0.0,0.0,3.0957,3.0957,3.0937,3.0898,3.0918,3.0937,3.0898,3.0898,3.0898,3.0898,3.014,2.9694,2.957,2.8789,2.8359,2.8301,2.8301,2.8301,2.8301,2.8301,2.8281,2.8256,2.7292,2.6448,2.5692,2.5701,2.5693,2.5693,2.5693,2.5654,2.5577,2.5215,2.5039,2.5,0.0,0.0,0.0,0.0,0.0,0.0,0.0,0.0,0.0,0.0,0.0,0.0,0.0,0.0,0.0,0.0,0.0,0.0,0.0,0.0,0.0,0.0,0.0,0.0,0.0,0.0,0.6675,0.4014,0.4014,0.0,0.0,0.0,0.0,0.0,0.0,0.0,0.0,0.0,0.0,0.0,0.0,0.0,0.0,0.0,0.0,0.0,0.0,0.0,0.8002,0.0,0.0,0.0,0.8194,0.8813,0.0,0.0,1.3075,1.3882,1.6473,1.7817,1.8541,1.8767,1.8712,1.8258,1.666,0.0,1.4981,1.4229,1.4082,1.4082,1.4082,1.4082,1.4295,1.4937,1.5525,1.6687,1.8886,2.1512,2.4065,2.6336,2.8441,0.0,0.0,0.0,3.0898,3.0898,3.0898,3.0898,3.0898,3.0898,3.0898,3.0898,3.0314,2.9939,2.9842,2.9035,2.8535,2.8301,2.8301,2.8301,2.8301,2.8301,2.8019,2.7511,2.7001,2.6333,2.5717,2.5673,2.5693,2.5693,2.5693,2.5693,2.5674,2.5527,2.5469,2.5469,0.0,0.0,0.0,0.0,0.0,0.0,0.0,0.0,0.0,0.0,0.0,0.0,0.0,0.0,0.0,0.0,0.0,0.0,0.0,0.0,0.0,0.0,0.0,0.0,0.0,0.0,0.688,0.4568,0.4568,0.3416,0.0,0.0,0.0958,0.0605,0.0,0.0,0.0,0.0,0.0,0.0,0.0,0.0,0.0,0.0,0.0,0.0,0.0,0.0,0.0,0.0,0.0,0.0,0.0,0.8113,0.8552,0.0,1.1045,1.1946,1.4801,1.6538,1.7685,1.8704,1.8648,1.8116,0.0,0.0,1.4834,1.4202,1.4082,1.4082,1.4082,1.4082,1.4175,1.4469,1.4589,1.5325,1.7147,1.9272,2.1643,0.0,0.0,2.8465,0.0,3.0527,3.0742,3.0879,3.0644,3.0547,3.0684,3.0566,3.0624,3.0916,3.0407,3.001,2.9754,2.907,2.8574,2.8301,2.8301,2.8301,2.8301,2.8301,2.798,2.7381,2.684,2.6384,2.5937,2.5771,2.5693,2.5693,2.5693,2.5693,2.5693,2.5693,2.5693,2.5693,0.0,0.0,0.0,0.0,0.0,0.0,0.0,0.0,0.0,0.0,0.0,0.0,0.0,0.0,0.0,0.0,0.0,0.0,0.0,0.0,0.0,0.0,0.0,0.0,0.0,0.0,0.7335,0.5977,0.5977,0.5272,0.3964,0.3964,0.3265,0.1962,0.0,0.0,0.0,0.0,0.0,0.0,0.0,0.0,0.0,0.0,0.0,0.0,0.0,0.0,0.0,0.0,0.0,0.0,0.0,0.7988,0.8049,0.8456,0.8859,0.9282,0.9589,1.2286,1.5004,1.4862,1.6459,1.7796,0.0,0.0,1.4834,1.4202,1.4082,1.4082,1.4082,1.4082,1.4175,1.4469,1.4763,1.5209,1.5752,1.7983,2.0163,0.0,0.0,2.6225,2.87,2.9707,3.0391,3.0859,3.0078,0.0,3.0176,2.9805,2.9993,3.0866,3.0317,2.9731,2.9223,2.8589,2.8301,2.8301,2.8301,2.8301,2.8301,2.8301,2.8301,2.8242,2.7117,2.6608,2.6531,2.5956,2.5693,2.5693,2.5693,2.5693,2.5693,2.5693,2.5693,2.5693,0.0,0.0,0.0,0.0,0.0,0.0,0.0,0.0,0.0,0.0,0.0,0.0,0.0,0.0,0.0,0.0,0.0,0.0,0.0,0.0,0.0,0.0,0.0,0.0,0.0,0.7988,0.7478,0.636,0.636,0.5718,0.4457,0.4404,0.404,0.348,0.2427,0.1762,0.0,0.0,0.0,0.0,0.0,0.0,0.0,0.0,0.0,0.0,0.0,0.0,0.0,0.0,0.0,0.0,0.0,0.0,0.0,0.8024,0.8418,0.914,1.0437,1.2347,1.421,1.5289,1.6196,1.67,1.6219,1.5351,1.4549,1.4162,1.4082,1.4082,1.4082,1.4082,1.4242,1.475,1.4941,1.5142,0.0,0.0,0.0,2.2298,2.6444,2.9275,0.0,0.0,3.0488,3.0019,3.0,2.9922,2.9785,2.9648,2.9726,3.0002,2.9528,2.9223,2.9212,2.8579,2.8301,2.8301,2.8301,2.8144,2.7871,2.7871,2.7539,2.6973,2.6629,2.6462,2.6404,2.5908,2.6025,2.6543,2.5908,2.5918,2.6152,2.581,2.5693,2.5693,0.0,0.0,0.0,0.0,0.0,0.0,0.0,0.0,0.0,0.0,0.0,0.0,0.0,0.044,0.0535,0.0055,0.0469,0.0,0.0,0.0,0.0,0.0,0.0,0.0,0.7988,0.7988,0.7801,0.7334,0.7334,0.6991,0.6373,0.631,0.5857,0.5002,0.4123,0.3056,0.0,0.0,0.0,0.0,0.0,0.0,0.7988,0.0,0.0,0.0,0.0,0.0,0.0,0.0,0.0,0.0,0.0,0.0,0.0,0.0,0.8079,0.8584,0.9724,1.1519,1.3338,1.4294,1.5319,1.6005,1.5591,0.0,1.4442,1.4148,1.4082,1.4082,1.4082,1.4082,1.4202,1.462,1.4861,1.5075,1.5204,0.0,0.0,2.2909,0.0,0.0,0.0,2.9785,2.998,2.9646,2.9512,2.9434,2.9336,2.918,2.9105,2.9131,2.9082,2.8952,2.8866,2.85,2.8301,2.8301,2.8301,2.8066,2.7728,2.7885,2.7519,2.6875,2.6875,2.6875,0.0,2.6406,2.6523,2.6973,2.6376,2.6289,2.6348,2.6074,2.583,2.5693,0.0,0.0,0.0,0.0,0.0,0.0,0.0,0.0154,0.0155,0.0155,0.0052,0.0053,0.0111,0.1259,0.1491,0.0271,0.0,0.0,0.0,0.0,0.0,0.0,0.0,0.0,0.7988,0.8002,0.8224,0.8723,0.875,0.8913,0.9255,0.9248,0.8331,0.6664,0.6532,0.4834,0.0,0.0,0.0,0.0,0.5577,0.688,0.0,0.0,0.0,0.0,0.0,0.0,0.0,0.0,0.0,0.0,0.0,0.0,0.0,0.0,0.0,0.0,0.0,1.0209,1.2282,1.2272,1.3955,1.5565,1.5044,1.4696,0.0,1.4135,1.4082,1.4095,1.4108,1.4095,1.4095,1.4148,1.4646,1.5022,0.0,1.7436,0.0,0.0,2.6275,0.0,2.7767,2.8476,2.9101,2.9453,2.8769,2.8496,2.8848,2.8496,2.8301,2.8301,2.8819,2.8893,2.8301,2.8301,2.8281,2.8242,2.8281,2.8066,2.7637,2.8066,2.8027,2.7669,2.765,2.765,2.763,2.7109,2.6953,2.7012,2.6953,2.6699,2.6387,2.6348,2.6094,2.5693,0.0,0.0,0.0,0.0,0.0,0.0,0.0,0.0,0.0,0.0,0.066,0.0408,0.1393,0.1831,0.1872,0.0,0.0,0.0,0.0,0.0,0.0,0.0,0.0,0.0,0.7988,0.8153,0.8438,0.8831,0.911,0.9374,0.9659,0.9551,0.9147,0.853,0.7124,0.4834,0.0,0.0,0.0,0.0,0.6575,0.7739,0.0,0.0,0.0,0.0,0.7988,0.7988,0.0,0.0,0.0,0.0,0.0,0.0,0.0,0.0,0.9897,1.0454,1.0388,0.0,1.14,1.2393,1.3565,1.4522,0.0,1.4402,0.0,0.0,0.0,0.0,0.0,1.4242,1.4229,1.4727,1.4914,1.5089,1.5257,0.0,0.0,2.5272,2.7704,2.8867,2.8203,2.8926,2.918,2.8633,2.8711,2.8672,2.8457,2.834,2.8301,2.8301,2.8452,2.8452,2.8301,2.8301,2.8125,2.7812,2.8144,2.7891,2.7187,2.7617,2.7578,2.7148,2.6836,2.6875,2.7109,2.6348,2.6426,2.6953,2.6239,2.6191,2.6348,2.6016,2.5771,2.5693,0.0,0.0,0.0,0.0,0.0,0.0,0.0,0.0,0.0,0.0,0.0,0.0,0.0,0.0,0.0,0.0,0.0,0.0,0.0,0.0,0.0,0.0,0.0,0.7988,0.7988,0.8187,0.852,0.9035,0.9266,0.9564,0.9862,0.9774,0.951,0.913,0.7262,0.5467,0.392,0.5377,0.5577,0.5122,0.7179,0.0,0.0,0.0,0.0,0.0,0.7988,0.7988,0.0,0.7988,0.7988,0.7988,0.0,0.0,0.0,0.0,1.0399,1.1349,1.1585,1.1663,1.1871,1.2622,1.3554,1.4322,1.4482,0.0,0.0,0.0,0.0,0.0,0.0,0.0,1.4389,1.471,1.499,0.0,0.0,0.0,2.2791,2.536,2.7286,2.8359,0.0,2.8535,2.855,2.8047,2.8223,2.8242,2.8027,2.8184,2.8301,2.8301,2.8301,2.8301,2.8301,2.8105,2.7943,2.7728,2.7695,2.7363,2.6738,2.7168,2.7129,2.6719,2.6699,2.6797,2.6973,2.6473,2.6551,2.6973,2.6504,2.6348,2.6367,2.6113,2.5849,2.5693,0.0,0.0,0.0,0.0,0.0,0.0,0.0,0.0,0.0,0.0,0.0,0.0,0.0,0.0,0.0,0.0,0.0,0.0,0.0,0.0,0.0,0.0,0.7988,0.8008,0.8056,0.8214,0.86,0.918,0.932,0.9625,0.995,0.993,0.9618,0.9096,0.7434,0.642,0.6032,0.6232,0.6182,0.6132,0.7434,0.0,0.0,0.0,0.0,0.0,0.0,0.0,0.0,0.7988,0.7988,0.7988,0.7988,0.0,0.0,0.0,0.0,0.0,1.2557,1.2945,1.3169,1.3049,1.376,1.4509,1.4469,0.0,0.0,0.0,0.0,0.0,0.0,1.4349,0.0,0.0,0.0,0.0,1.9136,2.0459,2.2225,2.5216,2.6511,0.0,2.8125,2.7871,2.7728,2.7728,2.7598,2.7559,2.7559,2.791,2.8086,2.8086,2.8086,2.8086,2.8086,2.7812,2.765,2.7513,2.7168,2.6797,2.6406,2.6816,2.6816,2.6504,2.6797,2.6914,2.6914,2.6855,2.6816,2.6816,2.6816,2.6602,2.6289,2.6289,2.6055,2.5674,0.0,0.0,0.0,0.0,0.0,0.0,0.0,0.0,0.0,0.0,0.0,0.0,0.0,0.0,0.0,0.0,0.0,0.0,0.0,0.0,0.0,0.7939,0.7988,0.8153,0.8411,0.8323,0.8499,0.8974,0.9374,0.9673,0.9863,1.01,0.9768,0.8905,0.852,0.7467,0.6077,0.7235,0.7036,0.6132,0.7434,0.0,0.0,0.0,0.0,0.0,0.0,0.0,0.0,0.7988,0.7988,0.7988,0.7988,0.0,0.0,0.0,0.0,0.0,1.4466,1.4805,1.4799,1.4077,1.4206,1.4456,1.4215,1.4122,0.0,0.0,0.0,0.0,0.0,1.4496,1.4603,0.0,0.0,1.7584,0.0,0.0,2.3774,2.694,0.0,2.8008,2.7793,2.7767,2.7728,2.7728,2.7324,2.7109,2.7109,2.7187,2.7207,2.7207,2.7207,2.7207,2.7207,2.7519,2.7356,2.6582,2.6875,2.6797,2.6406,2.6816,2.6973,2.6894,2.6602,2.6484,2.6465,2.6044,2.5888,2.5888,2.5888,2.5849,2.5791,2.5791,2.5752,2.5635,0.0,0.0,0.0,0.0,0.0,0.0,0.0,0.0,0.0,0.0,0.0,0.0,0.0,0.0,0.0,0.0,0.0,0.0,0.0,0.0,0.7453,0.8217,0.8208,0.8228,0.8364,0.854,0.8811,0.9178,0.9713,1.0005,1.0066,0.9883,0.9442,0.8804,0.8574,0.7949,0.7135,0.7739,0.764,0.7135,0.0,0.0,0.0,0.0,0.0,0.0,0.0,0.0,0.0,0.0,0.7988,0.7988,0.7988,0.0,0.0,0.0,0.0,0.0,1.4496,1.4696,1.483,1.4429,1.4776,1.515,1.4856,1.4669,1.4606,0.0,0.0,0.0,0.0,0.0,1.5695,1.7118,0.0,1.9173,2.2055,2.3049,2.415,0.0,0.0,2.7715,2.7988,2.7578,2.7324,2.7324,2.6914,2.668,2.668,2.6894,2.7012,2.7012,2.7012,2.6914,2.668,2.6875,2.6777,2.6387,2.6348,2.623,2.6055,2.6181,2.6328,2.6309,2.6113,2.6035,2.6016,2.5771,2.5693,2.5693,2.5693,2.5693,2.5693,2.5693,2.5693,2.5615,0.0,0.0,0.0,0.0,0.0,0.0,0.0,0.0,0.0,0.0,0.0,0.0,0.0,0.0,0.0,0.0,0.0,0.0,0.0,0.8106,0.8089,0.837,0.8309,0.8402,0.8579,0.8798,0.9103,0.9435,0.9964,1.0243,1.027,0.97,0.9198,0.875,0.8452,0.8214,0.7988,0.7988,0.7988,0.7988,0.0,0.0,0.0,0.0,0.0,0.0,0.0,0.0,0.0,0.0,0.0,0.0,0.0,0.0,0.0,1.1175,1.2663,1.4389,1.4229,1.4402,1.4629,1.4629,1.5084,1.5498,1.5418,1.5177,1.5048,1.5182,0.0,0.0,0.0,1.5484,0.0,1.9089,1.9728,2.0638,2.2757,2.3834,2.4783,2.5823,2.6716,2.7539,2.8086,2.7461,2.6973,2.6875,2.6484,2.6191,2.6094,2.6484,2.666,2.6562,2.666,2.6562,2.625,2.623,2.623,2.623,2.5849,2.5693,2.5693,2.5693,2.5693,2.5693,2.5693,2.5693,2.5693,2.5693,2.5693,2.5693,2.5693,2.5693,2.5693,2.5693,2.5615,2.5527,0.0,0.0,0.0,0.0,0.0,0.0,0.0,0.0,0.0,0.0,0.0,0.0,0.0,0.0,0.0,0.0,0.0,0.0,0.0,0.7995,0.7995,0.8022,0.8201,0.8647,0.9286,0.9062,0.9101,0.9591,0.9849,1.0141,1.027,0.9808,0.9354,0.8851,0.8601,0.8309,0.7988,0.7988,0.7988,0.7988,0.7988,0.0,0.0,0.0,0.0,0.0,0.0,0.0,0.0,0.0,0.0,0.0,0.0,0.0,1.1099,1.1089,1.2536,1.4175,1.4429,1.471,1.4981,1.4981,1.4776,1.475,1.5271,1.5177,1.5156,1.5658,1.5551,0.0,0.0,1.5618,1.6677,1.9337,2.0023,2.1565,2.5289,0.0,2.6461,2.7917,2.815,2.8066,2.7754,2.7285,2.6855,2.6465,2.6035,2.5605,2.5243,2.5586,2.5644,2.5262,2.5605,2.5771,2.5732,2.5732,2.5732,2.5732,2.5713,2.5693,2.5693,2.5693,2.5693,2.5693,2.5693,2.5693,2.5693,2.5693,2.5693,2.5693,2.5693,2.5693,2.5693,2.5693,2.5469,2.5106,0.0,0.0,0.0,0.0,0.0,0.0,0.0,0.0,0.0,0.0,0.0,0.0,0.0,0.0,0.0,0.0,0.0,0.0,0.0,0.7988,0.8069,0.8309,0.8289,0.8533,0.9096,0.9273,0.9578,1.0025,1.0229,1.031,1.027,0.9625,0.9137,0.8777,0.8384,0.8147,0.7988,0.7988,0.7988,0.7988,0.7988,0.7988,0.0,0.0,0.0,0.0,0.0,0.0,0.0,0.0,0.7988,0.7975,0.788,0.8838,1.0103,1.0749,1.1388,1.2272,1.3818,1.3965,1.3818,1.4507,1.4736,0.0,1.5765,1.5858,1.5885,1.6286,1.6433,1.6482,1.6246,0.0,1.7414,2.0601,2.1531,2.3137,2.6627,2.7286,2.7577,2.7877,2.791,2.7734,2.7305,2.6875,2.6562,2.6406,2.5723,2.5254,2.5125,2.4961,2.4961,2.5106,2.5234,2.5312,2.5312,2.5312,2.5176,2.4922,2.5421,2.5693,2.5693,2.5693,2.5693,2.5674,2.5449,2.5488,2.5674,2.543,2.5488,2.5654,2.543,2.5312,2.5293,2.5019,2.4805,2.4609,0.0,0.0,0.0,0.0,0.0,0.0,0.0,0.0,0.0,0.0,0.0,0.0,0.0,0.0,0.0,0.0,0.0,0.0,0.7988,0.7988,0.8076,0.8336,0.8296,0.8459,0.8804,0.9259,0.9666,1.0066,1.0256,1.0256,1.0053,0.9501,0.9022,0.8764,0.8316,0.814,0.8174,0.8029,0.7988,0.7988,0.7988,0.7988,0.0,0.0,0.0,0.0,0.0,0.0,0.0,0.0,0.7988,0.8067,0.8398,0.9116,1.0094,1.1181,1.1597,1.2023,1.3542,1.3583,1.3399,1.416,0.0,0.0,1.6166,1.6406,1.6513,1.6901,1.7418,1.777,1.7746,0.0,0.0,0.0,2.2792,2.4191,2.7298,2.7793,2.7832,2.7728,2.7591,2.7285,2.6855,2.6426,2.6191,2.6191,2.5352,2.4863,2.4863,2.457,2.4492,2.4668,2.4785,2.4863,2.4863,2.4863,2.4707,2.4414,2.4992,2.5343,2.5527,2.5391,2.5343,2.5508,2.5059,2.5039,2.5245,2.498,2.5039,2.5245,2.498,2.4863,2.4824,2.4531,2.4336,2.418,0.0,0.0,0.0,0.0,0.0,0.0,0.0,0.0,0.0,0.0,0.0,0.0,0.0,0.0,0.0,0.0,0.0,0.0,0.7988,0.7988,0.7988,0.7988,0.8187,0.8404,0.8696,0.8994,0.93,0.9612,0.9903,0.9897,0.9598,0.935,0.9125,0.8913,0.8525,0.8402,0.8459,0.816,0.7988,0.7988,0.7988,0.7988,0.7988,0.0,0.0,0.0,0.0,0.0,0.0,0.0,0.7988,0.8237,0.9558,1.0496,1.1319,1.2598,1.3505,1.3986,1.3693,1.3826,1.4095,1.4095,0.0,0.0,1.6366,1.67,1.6874,1.7514,1.8363,1.9239,1.9968,1.9978,2.0651,2.2913,2.3528,2.4619,2.7305,2.7285,2.7168,2.765,2.7266,2.6836,2.6426,2.5996,2.5674,2.5674,2.4902,2.4414,2.4414,2.4414,2.4219,2.3809,2.4199,2.4414,2.4414,2.4414,2.4414,2.4414,2.4414,2.4629,2.5086,2.4609,2.4648,2.5086,2.4609,2.4414,2.4414,2.4414,2.4414,2.4414,2.4414,2.4414,2.4414,2.4414,2.4141,2.3789,0.0,0.0,0.0,0.0,0.0,0.0,0.0,0.0,0.0,0.0,0.0,0.0,0.0,0.0,0.0,0.0,0.0,0.0,0.7995,0.7988,0.7988,0.7988,0.8035,0.8147,0.8184,0.8526,0.8988,0.9612,1.0636,1.0918,1.0515,1.1568,1.1263,0.9844,1.0027,0.9394,0.8167,0.8029,0.7988,0.7988,0.7988,0.7988,0.7988,0.0,0.0,0.0,0.0,0.0,0.0,0.0,0.0,0.0,0.9453,1.001,1.0557,1.235,1.2457,1.2296,1.3607,1.3596,1.3355,1.4173,0.0,0.0,0.0,1.6246,0.0,0.0,1.889,1.9124,2.0262,2.0237,2.0661,2.2506,2.316,2.4202,2.647,2.6914,2.6953,2.6797,2.666,2.6406,2.5977,2.5527,2.5273,2.5273,2.4473,2.3984,2.3984,2.3672,2.3594,2.3789,2.3906,2.3984,2.3984,2.3984,2.3828,2.3471,2.3471,2.3906,2.4609,2.4473,2.4492,2.459,2.416,2.4141,2.4414,2.4414,2.4414,2.4394,2.4102,2.3984,2.3945,2.3633,2.3393,2.3296,0.0,0.0,0.0,0.0,0.0,0.0,0.0,0.0,0.0,0.0,0.7988,0.8099,0.0,0.0,0.0,0.0,0.0,0.0,0.0,0.7988,0.7988,0.7988,0.7988,0.8015,0.8133,0.8425,0.8737,0.9076,1.0038,1.0355,0.9977,1.1755,1.1541,0.9621,1.0634,1.0036,0.8244,0.818,0.8099,0.7988,0.7988,0.7988,0.7988,0.0,0.0,0.0,0.0,0.0,0.0,0.0,0.0,0.0,1.0101,1.058,1.0924,1.3036,1.3069,1.2651,1.3636,1.3677,1.3692,1.448,1.5271,1.5838,1.6077,0.0,0.0,0.0,1.9811,2.013,2.1117,2.1468,2.1877,2.2908,2.3289,2.4042,2.5645,2.5937,2.5957,2.5879,2.5703,2.5508,2.5187,2.4824,2.4629,2.4805,2.4023,2.3613,2.3769,2.3335,2.3218,2.3516,2.3535,2.3535,2.3535,2.3535,2.3398,2.3101,2.3101,2.3374,2.3861,2.3861,2.4004,2.4141,2.3711,2.3672,2.3861,2.3861,2.3861,2.3842,2.3633,2.3535,2.3496,2.3198,2.3101,2.3101,0.0,0.0,0.7988,0.7988,0.0,0.0,0.0,0.0,0.0,0.0,0.7988,0.8099,0.0,0.0,0.0,0.0,0.0,0.0,0.0,0.0,0.7988,0.7988,0.8002,0.8133,0.834,0.854,0.854,0.832,0.8904,0.9007,0.8706,1.0958,1.0861,0.8944,1.0712,1.0425,0.8655,0.837,0.8167,0.7988,0.7988,0.7988,0.7988,0.7988,0.0,0.0,0.0,0.0,0.0,0.0,0.0,0.0,1.0925,1.1654,1.1963,1.4196,1.4701,1.4442,1.3866,1.4093,1.4603,1.4995,1.5498,0.0,1.6593,1.7141,1.803,1.9626,0.0,2.1595,2.225,2.3156,2.3789,2.3789,2.3789,2.4082,2.4949,2.4668,2.457,2.5008,2.4668,2.4387,2.4407,2.4043,2.3965,2.429,2.3569,2.332,2.3711,2.3315,2.3101,2.3101,2.3101,2.3101,2.3101,2.3101,2.3101,2.3101,2.3101,2.3101,2.3101,2.3101,2.3315,2.3711,2.332,2.3101,2.3101,2.3101,2.3101,2.3101,2.3101,2.3101,2.3101,2.3101,2.3101,2.3101,0.0,0.0,0.7988,0.7988,0.0,0.0,0.0,0.0,0.0,0.0,0.0,0.0,0.0,0.0,0.0,0.0,0.0,0.0,0.0,0.0,0.7988,0.7988,0.8153,0.8289,0.8431,0.8391,0.8336,0.832,1.0543,1.099,0.978,1.4012,1.3767,0.9938,1.1992,1.1177,0.835,0.8167,0.8022,0.7988,0.7988,0.7988,0.7988,0.7988,0.7988,0.0,0.0,0.0,0.0,0.0,0.0,0.0,0.9903,1.1035,1.2069,1.3345,1.43,1.4843,1.471,1.4603,0.0,1.5458,1.6259,1.6834,1.6727,1.6981,1.7592,1.8764,1.9984,2.1055,2.1899,2.3013,2.3789,2.3789,2.3789,2.3965,2.4492,2.4473,2.4453,2.4551,2.4473,2.44,2.4388,2.4114,2.3932,2.3907,2.3407,2.314,2.3237,2.314,2.3101,2.3101,2.3101,2.3101,2.3101,2.3101,2.3101,2.3101,2.3101,2.3101,2.3101,2.3101,2.314,2.3237,2.314,2.3101,2.3101,2.3101,2.3101,2.3101,2.3101,2.3101,2.3101,2.3101,2.3101,2.3101,0.0,0.0,0.0,0.0,0.0,0.0,0.0,0.0,0.0,0.0,0.0,0.0,0.0,0.0,0.0,0.0,0.816,0.0,0.0,0.7988,0.7988,0.7988,0.8187,0.8269,0.8269,0.8269,0.8584,0.9102,1.1143,1.1079,0.913,1.3177,1.3007,0.9384,1.2011,1.1349,0.832,0.8187,0.8106,0.7988,0.7988,0.7988,0.7988,0.7988,0.7988,0.7988,0.7988,0.0,0.0,0.0,0.0,0.0,0.0,0.0,1.1211,1.2822,1.3683,1.4238,1.4657,0.0,0.0,1.5858,0.0,1.6901,1.674,1.6714,1.6923,1.745,1.8683,1.9942,2.081,2.2053,2.3062,2.3427,2.3477,2.3555,2.3725,2.3764,2.3764,2.3764,2.3764,2.3757,2.3803,2.3647,2.3516,2.3485,2.3018,2.2726,2.2789,2.2656,2.2539,2.2539,2.2691,2.2734,2.2539,2.2906,2.2984,2.2808,2.3003,2.3101,2.3101,2.3101,2.3101,2.3101,2.3101,2.3101,2.3101,2.3101,2.3101,2.3101,2.3101,2.3101,2.3101,2.3101,2.3101,2.3101,0.0,0.0,0.0,0.0,0.0,0.0,0.0,0.0,0.0,0.0,0.0,0.0,0.0,0.0,0.7988,0.0,0.0,0.0,0.0,0.7988,0.8002,0.8029,0.8201,0.8221,0.8069,0.8214,0.8859,1.0044,1.1091,1.0583,0.8733,1.1901,1.1693,0.8736,1.1624,1.1173,0.832,0.8241,0.816,0.7988,0.7988,0.7988,0.7988,0.7988,0.7988,0.7988,0.7988,0.8137,0.8336,0.8088,0.0,0.0,0.0,0.0,1.0147,1.2035,1.2813,1.3285,1.4058,0.0,1.5578,1.6019,1.642,0.0,1.658,1.6406,1.6259,1.6206,1.744,1.8725,1.9382,2.0824,2.208,2.27,2.295,2.3101,2.3101,2.3101,2.3101,2.3101,2.3101,2.3101,2.3101,2.3101,2.3101,2.3101,2.2586,2.2291,2.2519,2.2109,2.1894,2.1894,2.2227,2.2246,2.1894,2.2578,2.275,2.2519,2.2906,2.3101,2.3101,2.3101,2.3101,2.3101,2.3101,2.3101,2.3101,2.3101,2.3101,2.3101,2.3101,2.3101,2.3101,2.3101,2.3101,2.3101,0.0,0.0,0.0,0.0,0.0,0.0,0.0,0.0,0.0,0.0,0.7988,0.7988,0.0,0.0,0.0,0.7988,0.7988,0.0,0.7988,0.0,0.0,0.8235,0.8313,0.8316,0.8418,0.8323,0.8911,1.018,1.0218,1.0632,1.1414,1.4435,1.375,1.0011,1.1731,1.0932,0.8313,0.8126,0.8008,0.7988,0.7988,0.7988,0.7988,0.7988,0.7988,0.7988,0.7988,0.8726,0.9558,0.8379,0.8775,0.0,0.0,0.0,0.9815,0.9943,1.1358,1.2948,0.0,0.0,1.5725,0.0,1.6112,1.6567,0.0,0.0,1.6206,0.0,1.6895,1.7851,1.7992,1.9837,2.1445,2.1525,2.2403,2.3101,2.3101,2.3101,2.3101,2.3101,2.3101,2.3101,2.3101,2.3101,2.3101,2.3101,2.2418,2.2125,2.2457,2.2109,2.1894,2.1894,2.1934,2.1934,2.1894,2.1992,2.2207,2.2519,2.2906,2.3101,2.3101,2.3101,2.3101,2.3101,2.3101,2.3101,2.3101,2.3101,2.3101,2.3101,2.3101,2.3101,2.3101,2.3101,2.3101,2.3101,0.0,0.0,0.0,0.0,0.0,0.0,0.0,0.0,0.0,0.0,0.0,0.7988,0.0,0.0,0.0,0.0,0.0,0.0,0.7988,0.7988,0.0,0.814,0.814,0.8174,0.8235,0.8174,0.8786,1.0112,1.0726,1.1745,1.3054,1.5076,1.4291,1.1194,1.2622,1.1747,0.923,0.9153,0.8676,0.7988,0.7988,0.7941,0.7923,0.7955,0.8428,0.9032,0.9083,0.9944,1.0974,1.0386,1.0583,1.0791,0.9388,0.0,0.0,0.0,1.0158,1.1169,1.2779,1.4101,1.5137,0.0,1.5685,1.5952,1.5845,1.5925,1.5992,1.5811,1.6244,1.6857,1.7544,1.8549,1.9724,2.106,2.1747,2.2221,2.2683,2.275,2.2773,2.2738,2.2691,2.2785,2.3062,2.3101,2.3101,2.3101,2.2481,2.2132,2.2168,2.1758,2.1406,2.1192,2.1387,2.1406,2.1192,2.1641,2.209,2.2519,2.2695,2.2867,2.3101,2.3101,2.3101,2.3101,2.3101,2.3101,2.3101,2.3101,2.3101,2.3101,2.3101,2.3101,2.3101,2.3101,2.3101,2.3101,0.0,0.0,0.0,0.0,0.0,0.0,0.0,0.0,0.0,0.0,0.0,0.0,0.0,0.0,0.0,0.0,0.0,0.0,0.7988,0.0,0.0,0.0,0.0,0.7988,0.7988,0.7988,0.8676,1.0002,1.0974,1.2086,1.344,1.4711,1.4268,1.2425,1.344,1.2474,1.0043,1.0285,0.9461,0.8031,0.8581,0.8411,0.7821,0.8181,0.8906,0.9664,0.9807,1.0865,1.2114,1.1826,1.1922,1.1929,1.0481,0.9749,0.0,0.0,0.0,0.0,0.0,0.0,1.4603,1.4977,1.5177,1.5337,0.0,0.0,1.5658,0.0,1.5765,1.6021,1.703,1.7498,1.8272,2.007,2.081,2.1357,2.1964,2.2233,2.2363,2.2448,2.2399,2.2571,2.3062,2.3101,2.3101,2.3101,2.2586,2.2159,2.1914,2.1424,2.1035,2.0625,2.0898,2.0898,2.0605,2.1328,2.1934,2.2363,2.2461,2.2691,2.3101,2.3101,2.3042,2.2945,2.3042,2.3101,2.3101,2.3101,2.3101,2.3101,2.3101,2.3101,2.3101,2.3101,2.3101,2.3101,0.0,0.0,0.0,0.0,0.0,0.0,0.0,0.0,0.0,0.0,0.0,0.0,0.7988,0.7988,0.7988,0.7988,0.7988,0.0,0.0,0.0,0.0,0.0,0.0,0.0,0.7988,0.7988,0.8676,1.0002,0.0,0.0,1.2047,1.3392,1.392,1.3776,1.3872,1.2474,1.0034,1.1039,1.0114,0.8159,1.0171,0.9703,0.789,0.8879,0.9274,0.9313,0.9321,1.0888,1.278,1.1533,1.1946,1.2689,1.123,0.9984,0.9086,0.0,0.0,0.0,0.0,1.3379,0.0,1.4215,1.462,0.0,0.0,0.0,1.5209,1.5712,1.5605,1.5498,1.5826,1.6904,1.7731,1.787,1.9485,2.0743,2.0811,2.1457,2.2009,2.2295,2.2395,2.2633,2.3062,2.3101,2.3101,2.3101,2.2586,2.2159,2.1914,2.1424,2.1035,2.0625,2.0625,2.0625,2.0605,2.1035,2.1484,2.1934,2.2324,2.2691,2.3101,2.3101,2.2886,2.2559,2.2925,2.3101,2.3101,2.3101,2.3101,2.3101,2.3101,2.3101,2.3101,2.3101,2.3101,2.3101,0.0,0.0,0.0,0.0,0.0,0.0,0.0,0.0,0.0,0.0,0.0,0.0,0.0,0.7988,0.7988,0.7988,0.7988,0.0,0.0,0.0,0.0,0.0,0.0,0.0,0.0,0.7988,0.8237,0.8726,0.0,1.0239,1.073,1.2909,1.392,1.392,1.4758,1.4172,1.2501,1.2647,1.1871,1.0547,1.0941,1.0677,1.009,1.0334,1.0908,1.1566,1.1633,1.2894,1.4485,1.4013,1.4151,1.4276,1.2917,1.2033,0.0,0.0,0.0,0.0,0.0,0.0,0.0,1.4349,1.4522,1.4683,1.4683,1.4874,1.4963,1.499,1.5057,1.515,1.5257,1.5951,1.6763,1.7544,1.8115,1.8853,2.0064,2.0338,2.0756,2.1609,2.2103,2.2577,2.308,2.3099,2.3101,2.3101,2.2901,2.2555,2.1914,2.1738,2.1328,2.0625,2.0605,2.0605,2.0605,2.0723,2.1035,2.1465,2.1894,2.2324,2.2691,2.2691,2.2656,2.25,2.2383,2.248,2.2711,2.2984,2.3101,2.3101,2.3101,2.3101,2.3101,2.3101,2.3101,2.3101,0.0,0.0,0.0,0.0,0.0,0.0,0.0,0.0,0.0,0.7988,0.0,0.0,0.0,0.0,0.7988,0.7988,0.7988,0.7988,0.7988,0.7988,0.0,0.0,0.0,0.0,0.0,0.7988,0.7988,0.7988,0.8874,0.9312,0.0,1.1551,1.2813,1.3295,1.4555,1.4698,0.0,0.0,0.0,1.19,1.2159,1.1938,1.1466,1.1622,1.2193,1.2951,1.2944,1.3878,1.5084,1.499,1.495,1.4815,1.3935,0.0,0.0,0.0,0.0,0.0,1.2279,0.0,0.0,0.0,0.0,1.4402,1.4496,0.0,1.4669,1.4669,1.483,1.5008,1.5008,1.5351,1.5926,1.665,1.6801,1.727,1.8498,1.9076,1.9894,2.1252,2.1743,2.2296,2.304,2.3099,2.3101,2.3101,2.3101,2.273,2.1934,2.1894,2.1525,2.0625,2.0605,2.0605,2.0605,2.0605,2.0781,2.119,2.1523,2.1894,2.2305,2.2305,2.2227,2.207,2.1953,2.2129,2.2539,2.2769,2.2964,2.3101,2.3101,2.3101,2.3101,2.3101,2.3101,2.3101,0.0,0.0,0.0,0.0,0.0,0.0,0.0,0.0,0.7988,0.7988,0.0,0.0,0.0,0.0,0.0,0.7995,0.7995,0.7995,0.7988,0.7988,0.0,0.0,0.0,0.0,0.7988,0.7988,0.7988,0.7988,0.7988,0.8038,0.8088,0.941,1.073,1.2047,1.3343,1.3968,1.3993,0.0,1.4086,1.218,1.3828,1.3411,1.1874,1.2596,1.3007,1.3209,1.2936,1.3567,1.4482,1.4202,1.4108,1.4108,1.4095,0.0,0.0,0.0,0.0,0.0,0.0,0.0,0.0,0.0,0.0,0.0,1.4429,1.4282,1.4242,1.4861,1.4981,1.4981,1.4981,1.5164,1.5271,1.5035,1.5589,1.6061,1.6089,1.7754,1.9542,2.1165,2.14,2.1858,2.2964,2.3062,2.3081,2.3081,2.3081,2.2711,2.1914,2.1855,2.1445,2.0625,2.0605,2.0605,2.0605,2.0605,2.0781,2.1171,2.119,2.1465,2.1875,2.1875,2.1641,2.121,2.166,2.209,2.248,2.248,2.2734,2.3081,2.3081,2.3081,2.3101,2.3101,2.3101,2.3101,0.0,0.0,0.0,0.0,0.0,0.0,0.8008,0.7988,0.7988,0.0,0.0,0.0,0.8194,0.8296,0.8316,0.8214,0.8208,0.816,0.7995,0.7988,0.7988,0.7988,0.7988,0.7988,0.7988,0.7988,0.7988,0.7988,0.7988,0.8478,0.946,1.0779,1.2086,1.3392,1.4711,1.518,1.4986,1.5279,0.0,1.4709,1.4825,1.4565,1.4068,1.4027,1.3952,1.3862,1.3978,1.4248,1.4536,1.4669,1.4767,1.4727,1.4469,0.0,0.0,0.0,0.0,0.0,1.3655,0.0,0.0,0.0,0.0,0.0,1.388,1.3988,1.4068,1.4015,1.4175,1.4322,1.4322,1.4402,1.4429,1.4349,1.4688,1.5232,1.5976,1.707,1.8539,2.0569,2.1086,2.158,2.2456,2.2624,2.2676,2.2676,2.2676,2.2262,2.1465,2.1113,2.086,2.0605,2.0605,2.0605,2.0605,2.0605,2.0664,2.0762,2.1074,2.1268,2.1366,2.1366,2.1307,2.119,2.1016,2.1172,2.158,2.1934,2.2305,2.2676,2.2676,2.2828,2.3101,2.3101,2.3101,2.3101,0.0,0.0,0.8459,0.837,0.0,0.8404,0.8248,0.8221,0.8201,0.0,0.0,0.0,0.8343,0.8431,0.8452,0.8364,0.8354,0.8235,0.814,0.8022,0.7988,0.7988,0.7988,0.7988,0.7988,0.7988,0.7988,0.7988,0.7988,0.8676,1.0002,1.0779,1.2086,1.392,1.4663,1.5128,1.5391,0.0,0.0,0.0,1.5142,1.5008,1.4981,1.4629,1.4496,1.4456,1.4509,1.4603,1.4696,1.4629,1.4683,1.475,1.4576,0.0,0.0,0.0,0.0,0.0,0.0,0.0,0.0,0.0,0.0,0.0,1.4202,1.4135,1.4041,1.3868,1.3961,1.4082,1.4082,1.4082,1.4082,1.4082,1.4229,1.455,1.5163,1.6024,1.7351,1.9273,2.0577,2.1574,2.2293,2.2601,2.273,2.273,2.2617,2.2148,2.1249,2.082,2.0605,2.0605,2.0605,2.0605,2.0605,2.0605,2.0605,2.0605,2.084,2.0957,2.0957,2.0957,2.0957,2.0937,2.0723,2.0723,2.0977,2.123,2.1699,2.2246,2.2246,2.2402,2.2637,2.2769,2.2828,2.2867,0.0,0.0,0.8506,0.8506,0.8621,0.8662,0.8506,0.8479,0.8438,0.0,0.8309,0.837,0.8492,0.852,0.8526,0.8506,0.8391,0.8354,0.8327,0.814,0.8008,0.7988,0.7988,0.7988,0.7988,0.7988,0.7988,0.7988,0.7988,0.8676,1.0002,1.0141,1.1551,1.392,1.4064,1.4584,1.5351,1.5378,0.0,1.4914,1.4981,1.4995,1.4928,1.4616,1.4669,1.4874,1.4603,1.4669,1.4834,1.4309,1.4309,1.4522,1.4563,1.4723,0.0,0.0,1.5008,0.0,0.0,0.0,0.0,0.0,1.495,0.0,1.4955,1.4579,1.4135,1.4135,1.4108,1.4082,1.4082,1.4082,1.4095,1.4135,1.4108,1.4082,1.4082,1.5061,1.6273,1.7571,1.9847,2.1549,2.2113,2.2609,2.2886,2.2886,2.2539,2.1973,2.1171,2.0781,2.0605,2.0605,2.0605,2.0605,2.0605,2.0605,2.0605,2.0605,2.0605,2.0605,2.0605,2.0605,2.0605,2.0605,2.0605,2.0605,2.0605,2.0605,2.1094,2.1816,2.1816,2.1875,2.1992,2.2383,2.2539,2.2637,0.8438,0.856,0.8669,0.8669,0.8689,0.8662,0.8506,0.8479,0.8472,0.8445,0.8547,0.8635,0.8662,0.8777,0.8798,0.8676,0.8642,0.8526,0.834,0.8241,0.8167,0.7995,0.7988,0.7988,0.7988,0.7988,0.7988,0.7988,0.7988,0.8676,0.9993,1.1072,1.2377,1.392,1.4949,1.5292,1.5115,1.5297,0.0,1.4295,1.4821,1.4816,1.4603,1.4536,1.4416,1.4282,1.4456,1.4402,1.4282,1.4389,1.4469,1.4563,1.4803,1.475,1.4656,1.4941,0.0,0.0,0.0,0.0,0.0,1.5142,1.5008,0.0,1.4995,1.4696,1.4442,1.4442,1.4255,1.4082,1.4082,1.4082,1.4162,1.4402,1.4242,1.4082,1.4082,1.5257,1.6102,1.6159,1.8894,2.0607,2.0223,2.1034,2.1561,2.1561,2.1191,2.0918,2.0742,2.0644,2.0605,2.0605,2.0605,2.0605,2.0605,2.0605,2.0605,2.0605,2.0605,2.0605,2.0605,2.0605,2.0605,2.0605,2.0605,2.0605,2.0605,2.0605,2.0879,2.1327,2.1327,2.1777,2.2402,2.248,2.2691,2.2984,0.8465,0.8547,0.8648,0.8798,0.8825,0.8798,0.8723,0.871,0.8682,0.8608,0.8662,0.8737,0.8818,0.8838,0.8851,0.8832,0.8757,0.8615,0.8391,0.8361,0.8201,0.7995,0.7988,0.7988,0.7988,0.7988,0.7988,0.7988,0.7988,0.9015,1.0974,1.1609,1.2903,1.47,1.5468,1.5418,1.4776,0.0,1.4977,1.4335,1.4629,0.0,1.4309,1.4309,1.4215,1.4108,1.4255,1.4215,1.4135,1.4429,1.4616,1.4736,1.4736,1.4843,1.499,1.5137,1.5177,1.5217,0.0,0.0,0.0,1.5431,1.5284,0.0,0.0,1.495,1.4736,1.4736,1.4509,1.4309,1.4309,1.4309,1.4349,1.4496,1.4402,1.4309,1.4309,1.4768,1.5088,1.4932,1.7022,1.8772,1.9534,2.0268,2.0857,2.117,2.1035,2.0801,2.0625,2.0605,2.0605,2.0605,2.0605,2.0605,2.0605,2.0605,2.0605,2.0605,2.0605,2.0605,2.0605,2.0605,2.0605,2.0605,2.0605,2.0605,2.0605,2.0605,2.0742,2.0898,2.0898,2.1309,2.1853,2.2129,2.2461,2.2808,0.8411,0.8465,0.8567,0.8845,0.8838,0.8838,0.8838,0.8817,0.8804,0.8682,0.8696,0.8757,0.8824,0.8838,0.9023,0.9411,0.8947,0.8795,0.9044,0.8584,0.8201,0.7995,0.7988,0.7988,0.7988,0.7988,0.7988,0.7988,0.8237,0.946,1.156,1.2037,1.329,1.5159,1.5517,1.5351,0.0,0.0,0.0,1.4522,0.0,1.4416,1.4255,1.4188,1.4175,1.4162,1.4108,1.4082,1.4122,1.4362,1.4629,1.4888,1.4669,1.4897,0.0,0.0,0.0,0.0,0.0,0.0,1.5784,1.5784,1.5658,1.5484,0.0,0.0,0.0,1.5089,0.0,0.0,0.0,0.0,0.0,1.4603,0.0,0.0,0.0,1.4322,0.0,1.4116,1.54,1.697,1.8672,1.9531,2.0282,2.1053,2.1073,2.0858,2.0294,2.0489,2.0527,2.0274,2.0489,2.0605,2.0605,2.0605,2.0605,2.0605,2.0605,2.0605,2.0605,2.0605,2.0605,2.0605,2.0605,2.0605,2.0605,2.0605,2.0605,2.0605,2.0605,2.0898,2.1366,2.1758,2.2207,2.2633,0.8262,0.8397,0.8533,0.871,0.8737,0.8737,0.8737,0.8621,0.8526,0.8513,0.8628,0.8716,0.8737,0.8737,0.9486,1.1321,0.9654,0.9299,1.1025,0.9377,0.8201,0.7995,0.7988,0.7988,0.7988,0.7988,0.7988,0.7988,0.9213,0.9903,1.0288,1.2571,1.3813,1.4112,1.5012,0.0,0.0,0.0,1.4816,0.0,1.4522,1.4656,0.0,1.4576,1.4469,1.4442,1.4175,1.4082,1.4095,1.4122,1.4335,1.4603,0.0,1.4776,1.4776,1.5551,0.0,0.0,0.0,0.0,1.5784,1.5784,1.5758,1.5731,1.5731,0.0,1.5351,1.5351,0.0,0.0,0.0,0.0,0.0,0.0,0.0,0.0,1.4707,1.4539,1.4376,1.4137,1.5354,1.6174,1.617,1.7961,1.9561,2.0605,2.0683,2.0215,1.9234,2.0079,2.0157,1.9195,2.0079,2.0605,2.0605,2.0605,2.0605,2.0605,2.0605,2.0605,2.0605,2.0605,2.0605,2.0605,2.0605,2.0605,2.0605,2.0605,2.0605,2.0605,2.0605,2.1114,2.1816,2.1875,2.2383,2.3042,0.8241,0.8248,0.8303,0.8533,0.0,0.0,0.0,0.0,0.8615,0.8615,0.875,0.9201,1.0209,1.0194,1.0874,1.2737,1.1711,1.0984,1.1036,1.0003,0.8996,0.8045,0.8726,0.9164,0.9164,0.9164,0.9164,0.9164,0.8924,0.9608,1.1121,1.2231,1.3467,1.4803,1.5213,0.0,1.4897,0.0,1.5044,0.0,0.0,1.5097,0.0,1.4509,1.4269,1.4255,1.4135,1.4082,1.4082,1.4082,1.4389,1.4736,0.0,0.0,0.0,1.5271,0.0,0.0,0.0,0.0,0.0,1.5784,1.5784,1.5784,1.5784,1.5691,1.5645,1.5645,0.0,0.0,0.0,0.0,0.0,0.0,1.5115,0.0,0.0,0.0,1.4229,1.4095,0.0,1.5159,1.5655,1.709,1.8181,1.8661,1.87,1.8501,1.802,1.8421,1.8798,1.8997,1.9432,1.9962,2.0605,2.0605,2.0605,2.0605,2.0605,2.0605,2.0605,2.0605,2.0605,2.0605,2.0605,2.0605,2.0605,2.0605,2.0605,2.0605,2.0605,2.0957,2.1543,2.1797,2.2266,2.2812,0.8889,0.8426,0.8174,0.8384,0.0,0.0,0.0,0.8452,0.854,0.8581,0.8723,0.9461,1.1211,1.1313,1.2211,1.442,1.3702,1.2883,1.2197,1.1475,1.0441,0.913,1.0094,1.0587,1.0534,1.0534,1.0534,1.0534,0.9558,1.0239,1.2425,1.2425,1.354,1.5511,1.5431,1.5204,1.4897,0.0,1.5196,1.5022,1.511,1.511,1.4977,1.4416,1.4162,1.4082,1.4082,1.4082,1.4082,1.4082,1.4429,1.4763,1.4335,1.4643,1.5124,0.0,0.0,0.0,1.5631,1.5718,1.5784,1.5784,1.5784,1.5784,1.5784,1.5784,1.5784,1.5784,1.5784,0.0,0.0,0.0,1.5691,1.5444,0.0,1.5075,0.0,1.4482,0.0,0.0,0.0,1.4531,1.5613,1.6396,1.696,1.7185,1.7284,1.7139,1.6758,1.7082,1.7658,1.8519,1.8838,1.9529,2.0605,2.0605,2.0605,2.0605,2.0605,2.0605,2.0605,2.0605,2.0605,2.0605,2.0605,2.0605,2.0605,2.0605,2.0605,2.0605,2.0605,2.0762,2.1094,2.1543,2.2051,2.2559,1.0532,0.9216,0.0,0.0,0.0,0.0,0.0,0.8008,0.8113,0.8262,0.8411,0.918,1.0937,1.1489,1.3143,1.6572,1.5188,1.457,1.5842,1.4232,1.2782,1.1824,1.2103,1.2173,1.1853,1.1853,1.1853,1.1853,1.1804,1.2474,1.3824,1.3824,1.4555,1.5758,1.5524,1.5538,1.5752,1.5204,1.5022,1.4981,1.4656,1.4376,1.4162,0.0,1.4335,1.4082,1.4082,1.4082,1.4082,1.4082,1.4282,1.4536,1.4466,1.4522,1.4603,0.0,0.0,0.0,1.5337,1.5618,1.5784,1.5784,1.5784,1.5784,1.5784,1.5784,1.5784,1.5784,1.5784,1.5784,1.5771,1.5771,1.5691,1.5444,1.5391,0.0,0.0,0.0,0.0,0.0,0.0,0.0,1.5613,1.5737,1.6093,1.6845,1.7176,1.6742,1.5448,1.6589,1.7334,1.7334,1.8439,1.9529,2.0605,2.0605,2.0605,2.0605,2.0605,2.0605,2.0605,2.0605,2.0605,2.0605,2.0605,2.0605,2.0605,2.0605,2.0605,2.0605,2.0605,2.0625,2.0683,2.1094,2.1736,2.2519,1.1814,1.1484,0.0,0.0,0.9493,0.9851,1.0789,0.9392,0.9116,1.1684,1.1056,1.1555,1.4767,1.4917,1.5749,1.8071,1.7308,1.6404,1.5791,1.4862,1.3744,1.2546,1.3062,1.3532,1.3829,1.3415,1.3326,1.3494,1.2402,1.2571,1.392,1.392,1.4555,1.5771,1.5524,1.5444,0.0,0.0,0.0,0.0,0.0,1.4469,1.4362,0.0,1.4175,1.4082,1.4082,1.4082,1.4082,1.4082,1.4282,1.4482,1.4295,1.4496,1.479,1.4696,1.4803,1.5035,1.5129,1.5177,1.5297,1.5498,1.5551,1.5591,1.5744,1.5784,1.5784,1.5784,1.5784,1.5784,1.5784,1.5784,1.5744,1.5698,1.5524,1.5324,0.0,0.0,0.0,0.0,0.0,0.0,0.0,0.0,1.4418,1.471,1.4649,1.4488,1.4184,1.4607,1.5609,1.7253,1.7658,1.874,2.0566,2.0605,2.0605,2.0605,2.0605,2.0605,2.0605,2.0605,2.0605,2.0605,2.0605,2.0605,2.0605,2.0605,2.0605,2.0605,2.0605,2.0605,2.0703,2.1387,2.1855,2.2168,1.3471,1.3499,1.3017,1.1294,1.0984,1.135,1.2385,1.1141,1.0985,1.3515,1.3002,1.3582,1.6762,1.6793,1.7293,1.8951,1.8824,1.7971,1.6389,1.629,1.5615,1.4088,1.4725,1.5159,1.532,1.4837,1.4641,1.4814,1.3326,1.3295,1.4555,1.4112,1.4555,1.5771,0.0,1.5551,1.5524,1.5124,1.5008,0.0,0.0,1.4362,0.0,0.0,1.4148,1.4229,1.4122,1.4082,1.4082,1.4082,1.4457,1.4822,1.4262,1.4636,1.5113,1.4545,1.4576,1.4803,1.4803,1.4928,1.5075,1.5324,1.5391,1.5471,1.5718,1.5784,1.5784,1.5784,1.5784,1.5784,1.5784,1.5784,1.5784,1.5784,1.5578,1.5364,0.0,1.5129,1.4834,1.4295,0.0,0.0,0.0,0.0,1.3667,1.3347,1.3347,1.336,1.344,1.3547,1.4732,1.7212,1.7293,1.8341,2.0566,2.0605,2.0605,2.0605,2.0605,2.0605,2.0605,2.0605,2.0605,2.0605,2.0605,2.0605,2.0605,2.0605,2.0605,2.0605,2.0605,2.0605,2.0703,2.1387,2.1855,2.2207,1.5478,1.5215,1.4665,1.3296,1.2749,1.2626,1.2945,1.3174,1.3466,1.3879,1.4301,1.5183,1.6954,1.7252,1.7877,1.9301,1.9626,1.9172,1.7742,1.8424,1.813,1.6433,1.6898,1.6924,1.6375,1.6005,1.5798,1.5798,1.4615,1.4603,1.5784,1.4555,1.4651,1.5784,1.5784,0.0,1.5765,1.5204,1.4995,1.4914,1.4394,1.4179,1.4193,1.4179,1.4354,1.4526,1.4231,1.4082,1.4137,1.4166,1.4852,1.5545,1.4489,1.4894,1.5504,1.4405,1.4282,1.4496,1.4496,1.471,1.5035,1.5284,1.5364,1.5444,1.5738,1.5771,1.5784,1.5784,1.5784,1.5784,1.5784,1.5784,1.5784,0.0,0.0,0.0,0.0,0.0,1.4897,1.4576,1.4536,0.0,0.0,0.0,1.3735,1.2878,1.328,1.344,1.3227,1.344,1.4691,1.7115,1.7253,1.8341,2.0489,2.0566,2.0605,2.0605,2.0605,2.0605,2.0605,2.0605,2.0605,2.0605,2.0605,2.0605,2.0605,2.0605,2.0605,2.0605,2.0605,2.0625,2.0723,2.1113,2.1775,2.2598,1.6768,1.6847,1.6806,1.6415,1.5155,1.4585,1.5895,1.468,1.4527,1.7229,1.6863,1.7014,1.8861,1.8914,1.901,1.9372,1.9439,1.9225,1.8624,1.8328,1.8009,1.7556,1.7101,1.6847,1.6978,1.6469,1.6152,1.6152,1.5591,1.5486,1.5784,0.0,0.0,0.0,0.0,0.0,1.5484,1.5124,1.4754,1.4381,1.5034,1.54,1.5574,1.5384,1.5443,1.5562,1.4472,1.4082,1.4208,1.5019,1.5462,1.5655,1.5379,1.5504,1.5504,1.4405,1.4135,1.4202,1.4202,1.4255,1.4389,1.4669,1.491,1.515,1.5444,1.5671,1.5784,1.5784,1.5784,1.5784,1.5784,1.5784,1.5784,0.0,0.0,0.0,0.0,0.0,1.5418,1.491,1.4843,0.0,1.4028,1.3654,1.3333,1.3106,1.3052,1.3039,1.32,1.344,1.4378,1.6067,1.6887,1.798,1.9392,2.0196,2.0605,2.0605,2.0605,2.0605,2.0605,2.0605,2.0605,2.0605,2.0605,2.0605,2.0605,2.0605,2.0605,2.0605,2.0605,2.1016,2.1603,2.168,2.2246,2.2945,1.7367,1.7527,1.7582,1.7582,1.6833,1.6533,1.7636,1.6402,1.6259,1.8572,1.828,1.8224,1.9256,1.9386,1.943,1.943,1.943,1.9132,1.8571,1.8422,1.8089,1.7436,1.7221,1.6994,1.6817,1.6496,1.6206,1.6086,1.5912,0.0,1.5784,0.0,0.0,0.0,0.0,1.5738,1.5565,1.5137,1.474,1.4311,1.4783,1.5077,0.0,1.5034,1.5077,1.5135,1.4389,1.4082,1.4208,1.481,1.5628,1.6314,1.5861,1.6026,1.6191,1.5103,1.4447,1.4082,1.4082,1.4082,1.4162,1.4442,1.4643,1.4883,1.5297,1.5524,1.5645,1.5645,1.5738,1.5744,1.5658,1.5738,1.5784,0.0,0.0,0.0,0.0,0.0,0.0,0.0,1.5089,1.4834,1.4322,1.3748,1.3347,1.3227,1.3053,1.308,1.3347,1.3507,1.4255,1.5655,1.6949,1.8029,1.8997,2.0231,2.0762,2.0605,2.0605,2.0605,2.0605,2.0605,2.0605,2.0605,2.0605,2.0605,2.0605,2.0605,2.0605,2.0625,2.0781,2.1269,2.1914,2.209,2.2578,2.3101,1.7528,1.7649,1.7675,1.7595,1.7876,1.821,1.8504,1.813,1.8076,1.8824,1.8985,1.9025,1.8985,1.9212,1.943,1.943,1.939,1.8985,1.8155,1.8515,1.821,1.6874,1.7275,1.7179,1.6335,1.6321,1.6126,1.5784,1.5784,1.5784,0.0,0.0,0.0,0.0,0.0,0.0,0.0,1.5223,1.4763,1.4442,1.4399,1.432,1.4292,1.4292,1.4292,1.4292,1.4166,1.4082,1.4124,1.425,1.5628,1.709,1.6026,1.6437,1.705,1.5861,1.481,1.4082,1.4082,1.4082,1.4148,1.4402,1.4496,1.4656,1.5164,1.5311,1.5337,1.5337,1.5538,1.5645,1.5431,1.5631,1.5784,0.0,0.0,1.5784,1.5784,1.5618,0.0,0.0,1.5204,0.0,1.4656,1.4026,1.3533,1.3293,1.3267,1.3333,1.3586,1.364,1.4296,1.5655,1.7151,1.8299,1.9069,2.044,2.0977,2.0703,2.0625,2.0605,2.0605,2.0605,2.0605,2.0605,2.0605,2.0605,2.0605,2.0664,2.0723,2.082,2.1172,2.1582,2.2012,2.2383,2.273,2.3101,1.7569,1.7983,1.817,1.7675,1.805,1.8517,1.8811,1.8958,1.9025,1.8931,1.9345,1.9559,1.9319,1.9332,1.943,1.943,1.9145,1.8931,1.8728,1.8355,1.7916,1.7448,1.7353,1.6978,1.6286,1.6321,1.6126,1.5784,1.5784,1.5784,1.5784,0.0,0.0,0.0,0.0,0.0,1.511,1.5048,0.0,1.426,1.5319,1.5613,1.5421,1.5421,1.5421,1.5296,1.4405,1.4082,1.425,1.513,1.6273,1.709,1.6026,1.6437,1.6927,1.4936,1.425,1.4082,1.4082,1.4082,1.4095,1.4148,1.4349,1.4549,1.4656,1.4856,1.5089,1.5089,1.5129,1.5177,1.5364,1.5631,1.5784,1.5784,1.5784,1.5784,1.5784,1.5744,0.0,0.0,0.0,1.5297,1.5244,1.4496,1.3895,1.3547,1.3533,1.3547,1.36,1.3881,1.4518,1.5655,1.6828,1.808,1.9467,2.0288,2.082,2.1073,2.0742,2.0605,2.0605,2.0605,2.0605,2.0605,2.0605,2.0605,2.0625,2.0977,2.1328,2.166,2.1738,2.2031,2.2402,2.248,2.273,2.3101,1.8023,0.0,0.0,1.825,1.8517,1.8811,1.9105,1.9399,1.9426,1.8985,1.9038,1.9065,1.8931,1.9185,1.943,1.943,1.9092,1.8865,1.8704,1.8235,1.7716,1.7154,1.7192,1.6857,1.6059,1.6192,1.6126,1.5784,1.5784,1.5784,1.5784,1.5784,0.0,0.0,0.0,1.5671,0.0,0.0,1.503,1.4794,1.5128,1.5318,1.5304,1.4979,1.4951,1.4993,1.4347,1.4082,1.4166,1.4699,1.5587,1.6396,1.5861,1.6437,1.6968,1.5379,1.4936,1.481,1.425,1.4082,1.4082,1.4082,1.4188,1.4335,1.4482,1.4629,1.4736,1.4736,1.4901,1.5048,1.515,1.5404,1.5605,1.5605,1.5725,1.5784,1.5784,1.5784,1.5731,0.0,0.0,0.0,0.0,1.4563,1.4255,1.4066,1.3773,1.36,1.36,1.3921,1.4546,1.5457,1.6885,1.8189,1.9268,2.0364,2.0898,2.0879,2.0703,2.0723,2.0898,2.0703,2.0684,2.0918,2.0918,2.0918,2.0937,2.1387,2.1836,2.2207,2.2207,2.2344,2.2539,2.2711,2.2789,2.2808,1.8437,1.821,1.817,1.8811,1.9078,1.9239,1.9359,1.9613,1.9613,1.9092,1.8811,1.8677,1.8677,1.9149,1.9345,1.9279,1.8998,1.8704,1.841,1.8063,1.7515,1.674,1.6924,1.6607,1.5798,1.6059,1.6059,1.5784,1.5784,1.5784,1.5784,1.5784,1.5784,0.0,0.0,0.0,1.5678,1.5565,1.5418,1.5257,1.4803,1.471,1.4861,1.4282,1.4269,1.4482,1.4188,1.4122,1.4175,1.4108,1.481,1.5655,1.5421,1.6108,1.6764,1.567,1.5379,1.5171,1.4334,1.4082,1.4082,1.4082,1.4082,1.4148,1.4376,1.4429,1.4429,1.4429,1.4656,1.4914,1.4914,1.5164,1.5391,1.5391,1.5645,1.5784,1.5784,1.5784,1.5725,0.0,0.0,0.0,1.4669,1.4563,1.4522,1.4522,1.3999,1.3693,1.3693,1.3961,1.4587,1.5685,1.7097,1.8363,1.9461,2.052,2.1016,2.0879,2.0801,2.0937,2.1327,2.1016,2.1035,2.1327,2.1327,2.1385,2.1483,2.1875,2.2266,2.2637,2.2637,2.2637,2.2676,2.2984,2.2886,2.2652,1.8437,1.8878,1.9145,1.8958,1.9527,1.9947,1.9439,1.9613,1.9679,1.9372,1.9305,1.935,1.935,1.939,1.9265,1.8985,1.8704,1.841,1.8049,1.7555,1.7125,1.6727,1.6473,1.6192,1.5784,1.5811,1.5811,1.5784,1.5784,1.5784,1.5784,1.5784,1.5784,1.5784,1.5784,1.5685,1.5458,1.5685,1.5484,1.5048,1.4995,1.4776,1.4522,1.4215,1.4269,1.4482,1.4188,1.4255,1.4442,1.4175,1.481,1.553,1.4573,1.4977,1.5628,1.4573,1.425,1.4208,1.4124,1.4082,1.4082,1.4082,1.4082,1.4095,1.4122,1.4122,1.4122,1.4122,1.4362,1.4563,1.4563,1.5017,1.5391,1.5391,1.5645,1.5784,1.5784,1.5784,1.5725,1.5431,0.0,0.0,1.4995,1.4683,1.4522,1.4522,1.4229,1.4041,1.4041,1.4068,1.5005,1.7041,1.7269,1.851,2.0972,2.0761,2.1016,2.1758,2.1367,2.1406,2.1816,2.1777,2.1797,2.1816,2.1816,2.2051,2.2402,2.2441,2.2695,2.3042,2.3042,2.3042,2.3042,2.3081,2.3081,2.3042,1.9479,1.9439,1.9492,1.9907,2.012,2.0147,1.992,1.9987,1.9893,1.9484,1.943,1.943,1.943,1.943,1.9252,1.8945,1.8651,1.837,1.8009,1.7488,1.7072,1.6714,1.6433,1.6126,1.5784,1.5784,1.5784,1.5784,1.5784,1.5784,1.5784,1.5784,1.5784,1.5784,1.5784,1.5718,1.5658,1.5731,1.5698,1.5458,1.5156,1.5003,1.4977,1.4335,1.4269,1.4482,1.4188,1.4162,1.4269,1.4322,1.4513,1.4657,1.425,1.4852,1.5504,1.4405,1.4573,1.4936,1.4292,1.4082,1.4082,1.4082,1.4082,1.4082,1.4082,1.4082,1.4082,1.4082,1.4175,1.4255,1.4255,1.4589,1.4937,1.511,1.5378,1.5631,1.5758,1.5671,0.0,1.5177,0.0,1.475,1.4512,1.4335,1.4255,1.4255,1.4148,1.4015,1.3786,1.3988,1.5016,1.7004,1.7218,1.8428,2.084,2.0918,2.1152,2.1504,2.1582,2.1855,2.2246,2.1992,2.2031,2.2266,2.2266,2.25,2.2847,2.2847,2.2945,2.3101,2.3101,2.3101,2.3101,2.3101,2.3101,2.3101,2.0087,1.9907,1.984,2.0548,2.0575,2.0366,2.0254,2.0167,2.0054,1.9559,1.9426,1.943,1.943,1.9292,1.9118,1.8824,1.8531,1.8237,1.7876,1.7355,1.6978,1.6714,1.6339,1.6046,1.5832,1.5784,1.5784,1.5784,1.5784,1.5784,1.5784,1.5784,1.5784,1.5784,1.5784,1.5784,1.5784,1.5784,1.5784,1.5731,1.5204,1.5129,1.5177,1.4389,1.4322,1.4603,1.4215,1.4255,1.4469,1.4509,1.4442,1.4322,1.4242,1.4684,1.5103,1.4334,1.4657,1.5061,1.4292,1.4082,1.4166,1.4489,1.4334,1.4166,1.4489,1.4334,1.4082,1.4082,1.4082,1.4108,1.4202,1.4389,1.4616,1.4955,1.5182,1.5378,1.5658,1.5444,0.0,1.5156,1.475,1.4442,1.4242,1.4135,1.4082,1.4082,1.4405,1.4323,1.3788,1.4378,1.5462,1.6994,1.7765,1.9003,2.0762,2.1211,2.1484,2.158,2.1914,2.2285,2.2695,2.2383,2.2422,2.2695,2.2695,2.2828,2.3101,2.3101,2.3101,2.3101,2.3101,2.3101,2.3101,2.3101,2.3299,2.3584,2.0007,2.0167,2.0321,2.0628,2.0909,2.0909,2.0321,2.0167,2.0134,1.9826,1.9546,1.943,1.943,1.9105,1.8811,1.8517,1.8223,1.7862,1.7609,1.7034,1.6714,1.67,1.6152,1.5784,1.5784,1.5784,1.5784,1.5784,1.5784,1.5784,1.5784,1.5784,1.5784,1.5784,1.5784,1.5784,1.5784,1.5784,1.5784,1.5731,1.5204,1.5008,1.4955,1.4309,1.4442,1.4928,1.4338,1.4643,1.5297,1.471,1.471,1.4941,1.4603,1.4322,1.4124,1.4082,1.4137,1.4124,1.4082,1.4082,1.4377,1.5421,1.4894,1.4377,1.5462,1.4852,1.4082,1.4082,1.4082,1.4175,1.4469,1.4522,1.4616,1.4955,1.5008,1.5115,1.5364,1.515,0.0,1.5351,1.487,1.4522,1.4522,1.4255,1.4082,1.4082,1.5103,1.5213,1.4166,1.546,1.6614,1.7253,1.9158,2.0513,2.119,2.166,2.209,2.25,2.25,2.2672,2.3081,2.3081,2.3081,2.3081,2.3081,2.3081,2.3101,2.3101,2.3101,2.3101,2.3101,2.3101,2.3101,2.3101,2.38,2.4787,2.0355,2.0167,2.0207,2.0361,2.0615,2.0681,2.0233,2.0167,2.0134,1.984,1.9546,1.943,1.943,1.9105,1.8811,1.8517,1.8223,1.7916,1.7609,1.7273,1.6914,1.6714,1.6339,1.6032,1.5784,1.5784,1.5784,1.5784,1.5784,1.5784,1.5784,1.5784,1.5784,1.5784,1.5784,1.5784,1.5784,1.5784,1.5784,1.5744,1.5418,1.5257,1.5217,1.4874,1.4847,1.4981,1.4794,1.4914,1.5156,1.511,1.5044,1.5022,1.5084,1.4923,1.4646,1.4202,1.4229,1.4335,1.4135,1.4229,1.4462,1.4792,1.4634,1.4462,1.4792,1.447,1.4082,1.4082,1.4082,1.4122,1.4202,1.4229,1.4322,1.4616,1.4656,1.4763,1.5057,1.4843,1.4696,1.479,1.4456,1.4229,1.4229,1.4783,1.4894,1.4166,1.5752,1.6314,1.5255,1.664,1.7896,1.8825,1.9716,2.0662,2.168,2.2109,2.2383,2.2519,2.2769,2.2964,2.3101,2.3101,2.3101,2.3101,2.3101,2.3101,2.3101,2.3101,2.3101,2.3101,2.3101,2.3101,2.3101,2.3101,2.3844,2.4787,2.0396,2.0167,2.0167,2.0167,2.0481,2.0535,2.0134,2.016,2.0094,1.9693,1.9479,1.943,1.943,1.8998,1.8691,1.8504,1.8116,1.7796,1.7595,1.7367,1.7072,1.6714,1.6433,1.6126,1.5784,1.5784,1.5784,1.5784,1.5784,1.5784,1.5784,1.5784,1.5784,1.5784,1.5784,1.5784,1.5784,1.5784,1.5784,1.5758,1.5511,1.5391,1.5364,1.5115,1.5075,1.5156,1.5048,1.5156,1.5297,1.5378,1.5351,1.5297,1.5378,1.5351,1.5177,1.4633,1.4469,1.4509,1.4442,1.4549,1.4771,1.5196,1.4977,1.4656,1.4549,1.4295,1.4082,1.4082,1.4082,1.4122,1.4229,1.4162,1.4175,1.4469,1.4429,1.4456,1.4763,1.4549,1.4559,1.5212,1.5091,1.5064,1.5443,1.6141,1.6205,1.5352,1.6927,1.7725,1.7187,1.8213,1.9127,1.9792,2.0758,2.1551,2.2129,2.2539,2.2754,2.2711,2.2964,2.3101,2.3101,2.3101,2.3101,2.3101,2.3101,2.3101,2.3101,2.3101,2.3101,2.3101,2.3101,2.3101,2.3101,2.3101,2.3844,2.4872,2.012,2.0113,2.0113,2.0113,2.0414,2.0428,1.988,2.0027,2.0013,1.9466,1.943,1.943,1.943,1.8865,1.8517,1.8517,1.7943,1.7582,1.7582,1.738,1.7085,1.6727,1.6446,1.6152,1.5784,1.5784,1.5784,1.5784,1.5784,1.5784,1.5784,1.5784,1.5784,1.5784,1.5784,1.5784,1.5784,1.5784,1.5784,1.5758,1.5538,1.5431,1.5391,1.5169,1.519,1.5391,1.5169,1.5378,1.5744,1.5524,1.5605,1.5778,1.5511,1.5605,1.5685,1.5124,1.4776,1.4643,1.4941,1.5022,1.5246,1.6286,1.5768,1.4955,1.4677,1.4352,1.4122,1.4122,1.4095,1.4175,1.4469,1.4282,1.4175,1.4442,1.4269,1.4175,1.4456,1.4341,1.4781,1.6359,1.6483,1.6769,1.7679,1.7987,1.7896,1.7326,1.8439,1.9239,1.9598,2.008,2.034,2.034,2.2141,2.2906,2.2519,2.2886,2.3101,2.3101,2.3101,2.3101,2.3101,2.3101,2.3101,2.3101,2.3101,2.3101,2.3101,2.3101,2.3101,2.3101,2.3101,2.3101,2.3101,2.3101,2.3844,2.4957,1.978,1.9573,1.9573,1.9573,1.9813,1.996,1.9826,1.9853,1.9853,1.972,1.9506,1.943,1.943,1.9038,1.8824,1.8824,1.8063,1.7582,1.7582,1.7515,1.7248,1.6727,1.6647,1.6353,1.5798,1.5784,1.5784,1.5784,1.5784,1.5784,1.5784,1.5784,1.5784,1.5784,1.5784,1.5784,1.5784,1.5784,1.5784,1.5771,1.5752,1.5725,1.5725,1.5645,1.5671,1.5712,1.5645,1.5712,1.5771,1.5752,1.5765,1.5771,1.5752,1.5618,1.5431,1.5115,1.507,1.515,1.5048,1.5169,1.5389,1.5604,1.5467,1.5422,1.5807,1.5133,1.4416,1.4416,1.4242,1.4175,1.4469,1.4282,1.4108,1.4175,1.4135,1.4108,1.4175,1.4867,1.548,1.5878,1.6928,1.7555,1.7417,1.8497,1.8678,1.7408,1.9116,2.0053,1.9639,2.0821,2.1483,2.1483,2.2524,2.2906,2.2519,2.2886,2.3101,2.3101,2.3101,2.3101,2.3101,2.3101,2.3101,2.3101,2.3101,2.3101,2.3101,2.3101,2.3101,2.3101,2.3101,2.3101,2.3101,2.3101,2.3844,2.4957,1.9533,1.943,1.943,1.943,1.9613,1.976,1.9626,1.972,1.976,1.9626,1.9466,1.943,1.943,1.9105,1.8865,1.8731,1.8156,1.7796,1.7796,1.7662,1.7382,1.6927,1.678,1.65,1.6046,1.5899,1.5784,1.5784,1.5784,1.5784,1.5784,1.5784,1.5784,1.5784,1.5784,1.5784,1.5784,1.5784,1.5784,1.5784,1.5784,1.5784,1.5784,1.5784,1.5784,1.5784,1.5784,1.5784,1.5784,1.5784,1.5784,1.5784,1.5784,1.5725,1.5565,1.5404,1.5378,1.5391,1.5364,1.5471,1.5731,1.6323,1.6349,1.6454,1.737,1.6952,1.6212,1.5661,1.5432,1.5203,1.4828,1.4482,1.4282,1.4282,1.4175,1.4292,1.4768,1.5338,1.6154,1.7343,1.8202,1.883,1.9044,1.9832,1.9916,1.8895,1.9923,2.0507,2.0367,2.1354,2.1973,2.2168,2.2769,2.2984,2.2769,2.2984,2.3101,2.3101,2.3101,2.3101,2.3101,2.3101,2.3101,2.3101,2.3101,2.3101,2.3101,2.3101,2.3101,2.3101,2.3101,2.3101,2.3101,2.3101,2.3517,2.4253,1.943,1.9399,1.947,1.943,1.9613,1.9706,1.947,1.9573,1.9639,1.9457,1.943,1.943,1.943,1.9145,1.8891,1.8651,1.8317,1.8022,1.7929,1.7729,1.7501,1.7219,1.686,1.6567,1.6335,1.5979,1.5784,1.5784,1.5784,1.5784,1.5784,1.5784,1.5784,1.5784,1.5784,1.5784,1.5784,1.5784,1.5784,1.5784,1.5784,1.5784,1.5784,1.5784,1.5784,1.5784,1.5784,1.5784,1.5784,1.5784,1.5784,1.5784,1.5784,1.5784,1.5784,1.5784,1.5799,1.5743,1.5812,1.5927,1.6386,1.7684,1.7781,1.7854,1.9101,1.9027,1.836,1.7358,1.6976,1.6507,1.5486,1.4842,1.4522,1.4522,1.4397,1.4671,1.5646,1.6061,1.7105,1.9334,1.9848,2.0372,2.1207,2.1346,2.125,2.084,2.0801,2.0937,2.1268,2.1738,2.2148,2.25,2.2886,2.3101,2.3101,2.3101,2.3101,2.3101,2.3101,2.3101,2.3101,2.3101,2.3101,2.3101,2.3101,2.3101,2.3101,2.3101,2.3101,2.3101,2.3101,2.3101,2.3101,2.3101,2.3101,2.3387,1.943,1.9559,1.9653,1.947,1.9613,1.9706,1.947,1.947,1.947,1.943,1.943,1.943,1.943,1.9332,1.9336,1.9239,1.8731,1.8196,1.7689,1.7609,1.7501,1.7219,1.686,1.6567,1.6335,1.5979,1.5784,1.5784,1.5784,1.5784,1.5784,1.5784,1.5784,1.5784,1.5784,1.5784,1.5784,1.5784,1.5784,1.5784,1.5784,1.5784,1.5784,1.5784,1.5784,1.5784,1.5784,1.5784,1.5784,1.5784,1.5784,1.5784,1.5784,1.5784,1.5784,1.5784,1.6532,1.7113,1.6089,1.6574,1.7684,1.8902,1.9174,1.9405,2.0386,1.9799,1.8974,1.8781,1.7702,1.6712,1.6551,1.5399,1.4522,1.4522,1.505,1.5592,1.5985,1.7738,1.9135,1.9575,2.1047,2.2,2.1816,2.2109,2.2129,2.1719,2.168,2.1719,2.1777,2.2187,2.2441,2.2519,2.2886,2.3101,2.3101,2.3101,2.3101,2.3101,2.3101,2.3101,2.3101,2.3101,2.3101,2.3101,2.3101,2.3101,2.3101,2.3101,2.3101,2.3101,2.3101,2.3101,2.3101,2.3101,2.3101,2.3299,1.943,1.9479,1.9573,1.9599,1.9586,1.9573,1.9599,1.9466,1.943,1.943,1.943,1.943,1.943,1.943,1.9305,1.9145,1.8731,1.8303,1.7862,1.7675,1.7515,1.7434,1.7152,1.674,1.6335,1.5979,1.5784,1.5784,1.5784,1.5784,1.5784,1.5784,1.5784,1.5784,1.5784,1.5784,1.5784,1.5784,1.5784,1.5784,1.5784,1.5784,1.5784,1.5784,1.5784,1.5784,1.5784,1.5784,1.5784,1.5784,1.5784,1.5784,1.5784,1.5784,1.5784,1.5784,1.6197,1.6842,1.7576,1.7264,1.7311,1.9844,1.998,1.9946,2.1701,2.1163,2.0083,1.9474,1.8758,1.7838,1.6493,1.5972,1.5571,1.5053,1.539,1.6084,1.7184,1.8665,1.9985,2.1029,2.1758,2.2187,2.2227,2.2187,2.209,2.1894,2.1894,2.1894,2.1894,2.2285,2.2519,2.2519,2.2886,2.3101,2.3101,2.3101,2.3101,2.3101,2.3101,2.3101,2.3101,2.3101,2.3101,2.3101,2.3101,2.3101,2.3101,2.3101,2.3101,2.3101,2.3101,2.3101,2.3101,2.3101,2.3101,2.3256,1.943,1.9426,1.9519,1.9679,1.9573,1.9519,1.9679,1.9506,1.943,1.943,1.943,1.943,1.943,1.943,1.9279,1.9052,1.8691,1.8397,1.8115,1.7796,1.7555,1.7488,1.7192,1.6777,1.6335,1.5979,1.5784,1.5784,1.5784,1.5784,1.5784,1.5784,1.5784,1.5784,1.5784,1.5784,1.5784,1.5784,1.5784,1.5784,1.5784,1.5784,1.5784,1.5784,1.5784,1.5784,1.5784,1.5784,1.5784,1.5784,1.5784,1.5784,1.5784,1.5784,1.5784,1.5784,1.5784,1.6292,1.8488,1.7902,1.7343,2.0161,2.0387,2.0404,2.2271,2.1765,2.0612,1.9679,1.9268,1.8472,1.6462,1.6557,1.6565,1.5581,1.5922,1.6833,1.8284,1.927,2.0518,2.2295,2.2305,2.2305,2.2617,2.2363,2.2168,2.2168,2.2168,2.2168,2.2168,2.248,2.2656,2.2656,2.2925,2.3101,2.3101,2.3101,2.3101,2.3101,2.3101,2.3101,2.3101,2.3101,2.3101,2.3101,2.3101,2.3101,2.3101,2.3101,2.3101,2.3101,2.3101,2.3101,2.3101,2.3101,2.3101,2.3212,1.943,1.9586,1.9693,1.9439,1.9599,1.9679,1.9439,1.9386,1.943,1.943,1.943,1.943,1.943,1.943,1.9417,1.939,1.8811,1.8477,1.8464,1.7903,1.7514,1.7246,1.6683,1.6362,1.6321,1.5979,1.5784,1.5784,1.5784,1.5784,1.5784,1.5784,1.5784,1.5784,1.5784,1.5784,1.5784,1.5784,1.5784,1.5784,1.5784,1.5784,1.5784,1.5784,1.5784,1.5784,1.5784,1.5784,1.5784,1.5784,1.5784,1.5784,1.5784,1.5784,1.5784,1.5784,1.5784,1.6103,1.7451,1.8503,1.9314,1.9542,2.0387,2.1194,2.1391,2.0477,1.9633,1.9542,1.8596,1.7672,1.7205,1.7161,1.6784,1.5562,1.6995,1.8343,1.872,1.9852,2.1102,2.2372,2.2789,2.3023,2.3042,2.3023,2.3003,2.3003,2.3003,2.3003,2.3003,2.3042,2.3042,2.3042,2.3081,2.3101,2.3101,2.3101,2.3101,2.3101,2.3101,2.3101,2.3101,2.3101,2.3101,2.3101,2.3101,2.3101,2.3101,2.3101,2.3101,2.3101,2.3101,2.3101,2.3101,2.3101,2.3101,2.3101,1.943,1.9452,1.9559,1.9626,1.9573,1.9559,1.9626,1.9479,1.943,1.943,1.943,1.943,1.943,1.943,1.943,1.943,1.8998,1.8677,1.8504,1.8103,1.7729,1.7487,1.686,1.654,1.654,1.6072,1.5784,1.5784,1.5784,1.5784,1.5784,1.5784,1.5784,1.5784,1.5784,1.5784,1.5784,1.5784,1.5784,1.5784,1.5784,1.5784,1.5784,1.5784,1.5784,1.5784,1.5784,1.5784,1.5784,1.5784,1.5784,1.5784,1.5784,1.5784,1.5974,1.6763,1.6433,1.6055,1.7358,1.7451,1.7576,1.9131,1.9268,1.9268,2.0025,1.9268,1.8365,1.8365,1.801,1.7421,1.65,1.6808,1.6872,1.5819,1.6592,1.7746,1.9065,2.0078,2.125,2.2698,2.3003,2.3101,2.3101,2.3101,2.3101,2.3101,2.3101,2.3101,2.3101,2.3101,2.3101,2.3101,2.3101,2.3101,2.3101,2.3101,2.3101,2.3101,2.3101,2.3101,2.3101,2.3101,2.3101,2.3101,2.3101,2.3101,2.3101,2.3101,2.3101,2.3101,2.3101,2.3257,2.3516,2.3198,2.3432,2.3842,1.9492,1.9484,1.9452,1.9746,1.9559,1.9439,1.9639,1.9492,1.943,1.943,1.943,1.943,1.943,1.943,1.943,1.943,1.9092,1.8838,1.8637,1.8209,1.7849,1.7595,1.7021,1.67,1.67,1.6219,1.5925,1.5784,1.5784,1.5784,1.5784,1.5784,1.5784,1.5784,1.5784,1.5784,1.5784,1.5784,1.5784,1.5784,1.5784,1.5784,1.5784,1.5784,1.5784,1.5784,1.5784,1.5784,1.5784,1.5784,1.5784,1.5784,1.5784,1.5784,1.6055,1.7326,1.681,1.6055,1.7358,1.6763,1.6292,1.8395,1.8319,1.7917,1.8734,1.7994,1.7077,1.7077,1.7077,1.6857,1.5974,1.6657,1.7033,1.5981,1.6426,1.7552,1.9248,2.0001,2.1013,2.2887,2.3101,2.3101,2.3101,2.3101,2.3101,2.3101,2.3101,2.3101,2.3101,2.3101,2.3101,2.3101,2.3101,2.3101,2.3101,2.3101,2.3101,2.3101,2.3101,2.3101,2.3101,2.3101,2.3101,2.3101,2.3101,2.3101,2.3101,2.3101,2.3101,2.3101,2.3101,2.3398,2.375,2.3457,2.3789,2.4375,1.9733,1.9559,1.9466,1.9746,1.9559,1.943,1.943,1.943,1.943,1.943,1.943,1.943,1.943,1.943,1.943,1.943,1.9092,1.8931,1.8918,1.8315,1.7862,1.7595,1.7021,1.6714,1.6714,1.642,1.6126,1.5784,1.5784,1.5784,1.5784,1.5784,1.5784,1.5784,1.5784,1.5784,1.5784,1.5784,1.5784,1.5784,1.5784,1.5784,1.5784,1.5784,1.5784,1.5784,1.5784,1.5784,1.5784,1.5784,1.5784,1.5784,1.5784,1.5784,1.6069,1.7311,1.681,1.6055,1.7358,1.6763,1.6103,1.7358,1.7684,1.7684,1.7684,1.6716,1.5784,1.5784,1.5784,1.5784,1.5784,1.681,1.7264,1.6008,1.6857,1.8102,1.9314,1.9497,2.0404,2.2818,2.3101,2.3101,2.3101,2.3101,2.3101,2.3101,2.3101,2.3101,2.3101,2.3101,2.3101,2.3101,2.3101,2.3101,2.3101,2.3101,2.3101,2.3101,2.3101,2.3101,2.3101,2.3101,2.3101,2.3101,2.3101,2.3101,2.3101,2.3101,2.3101,2.3101,2.3101,2.3418,2.3789,2.3789,2.4062,2.4434,1.9479,1.9586,1.9693,1.9786,1.9733,1.9666,1.9666,1.9492,1.943,1.943,1.943,1.943,1.943,1.943,1.943,1.943,1.9292,1.9145,1.8945,1.8571,1.8223,1.7862,1.7341,1.7072,1.7072,1.6576,1.6233,1.6139,1.5939,1.5784,1.5784,1.5784,1.5784,1.5784,1.5784,1.5784,1.5784,1.5784,1.5784,1.5784,1.5784,1.5784,1.5784,1.5784,1.5784,1.5784,1.5784,1.5784,1.5784,1.5784,1.5784,1.5784,1.5784,1.5784,1.5879,1.6244,1.6103,1.5879,1.6244,1.6103,1.5879,1.6244,1.6386,1.6386,1.6386,1.6069,1.5784,1.5784,1.5784,1.5784,1.5784,1.6103,1.6244,1.5879,1.6103,1.681,1.8041,1.8948,2.0087,2.1658,2.258,2.3101,2.3101,2.3101,2.3101,2.3101,2.3101,2.3101,2.3101,2.3101,2.3101,2.3101,2.3101,2.3101,2.3101,2.3101,2.3101,2.3101,2.3437,2.3437,2.3101,2.3457,2.3437,2.3101,2.3101,2.332,2.3574,2.3218,2.3276,2.3594,2.3594,2.3848,2.4238,2.4238,2.4707,2.5245,1.9533,1.9679,1.984,1.9947,1.9786,1.9666,1.9786,1.9559,1.943,1.943,1.943,1.943,1.943,1.943,1.943,1.943,1.943,1.9239,1.8945,1.8758,1.8531,1.8237,1.7756,1.7395,1.7206,1.6857,1.6616,1.6446,1.6152,1.6059,1.6166,1.6059,1.6059,1.6166,1.6059,1.6005,1.5992,1.5885,1.5784,1.5798,1.5952,1.5939,1.5798,1.5965,1.5939,1.5784,1.5784,1.5784,1.5784,1.5784,1.5912,1.6101,1.6566,1.6457,1.6249,1.6594,1.6457,1.6152,1.6032,1.6086,1.6126,1.5838,1.5912,1.5979,1.5811,1.5925,1.5965,1.5811,1.5784,1.5784,1.5784,1.5925,1.5965,1.5798,1.5925,1.6572,1.8195,1.9039,2.0133,2.181,2.2687,2.3101,2.3101,2.3101,2.3101,2.3101,2.3101,2.3179,2.3379,2.3198,2.3257,2.3588,2.3432,2.3398,2.3398,2.3398,2.3257,2.3101,2.3398,2.3354,2.3101,2.3418,2.3379,2.3101,2.3276,2.3555,2.3789,2.3691,2.3789,2.4023,2.3848,2.416,2.4648,2.4473,2.4933,2.5654,1.984,1.9867,1.996,2.0227,1.984,1.9573,1.984,1.9626,1.9439,1.947,1.947,1.9457,1.943,1.943,1.943,1.943,1.943,1.9252,1.8985,1.8958,1.8838,1.8544,1.8222,1.7862,1.734,1.7246,1.7072,1.674,1.646,1.6446,1.67,1.6433,1.646,1.67,1.6433,1.6362,1.6348,1.6019,1.5864,1.5925,1.6206,1.6152,1.5891,1.6206,1.6139,1.5864,1.5864,1.5864,1.5899,1.5824,1.6059,1.6543,1.7746,1.7526,1.7095,1.8056,1.7652,1.6846,1.6576,1.6599,1.658,1.6046,1.6126,1.6308,1.5939,1.6099,1.6233,1.5917,1.5864,1.5864,1.5864,1.6126,1.6219,1.5912,1.6099,1.7021,1.9042,1.9451,2.0359,2.2687,2.3038,2.3101,2.3101,2.3101,2.312,2.314,2.312,2.3276,2.3769,2.3418,2.353,2.4394,2.4043,2.3848,2.3848,2.3848,2.3633,2.3159,2.3198,2.3218,2.3218,2.3257,2.3257,2.3237,2.3672,2.3867,2.3926,2.4277,2.4414,2.4375,2.4043,2.4355,2.5028,2.4648,2.5039,2.5674,2.0134,2.0321,2.0508,2.0575,2.0481,2.0414,2.0481,2.0241,1.996,1.9733,1.9706,1.9626,1.9399,1.943,1.943,1.943,1.943,1.9345,1.9279,1.9265,1.9145,1.8838,1.8771,1.8571,1.821,1.7568,1.7166,1.7099,1.6754,1.6647,1.67,1.6647,1.6647,1.67,1.6647,1.6607,1.6607,1.654,1.6513,1.6513,1.658,1.658,1.6526,1.658,1.6567,1.6513,1.6513,1.6513,1.6473,1.6246,1.6366,1.6815,1.7915,1.8241,1.8528,1.9814,1.9313,1.8247,1.8174,1.7478,1.6673,1.6553,1.674,1.6871,1.6299,1.6406,1.6593,1.6526,1.6513,1.6513,1.6513,1.6567,1.6513,1.6219,1.6233,1.6746,1.7916,1.8902,2.0025,2.1525,2.2536,2.3101,2.3101,2.3101,2.3237,2.3633,2.3296,2.3276,2.3769,2.3691,2.3887,2.4394,2.4336,2.4277,2.4277,2.4277,2.4062,2.3652,2.3984,2.4141,2.4141,2.4492,2.4473,2.4095,2.4238,2.4473,2.4812,2.4512,2.4414,2.4434,2.4687,2.4707,2.4629,2.5187,2.5518,2.5635,2.008,2.0374,2.0681,2.0681,2.0561,2.0508,2.0655,2.0307,2.0013,2.0013,1.976,1.9586,1.9573,1.9511,1.943,1.943,1.943,1.943,1.943,1.943,1.9292,1.9145,1.8998,1.8851,1.8704,1.8103,1.7716,1.7582,1.7128,1.6994,1.7128,1.6981,1.6994,1.7114,1.6981,1.6914,1.6914,1.6767,1.67,1.6714,1.686,1.6834,1.6727,1.686,1.6834,1.67,1.67,1.67,1.67,1.67,1.6844,1.7227,1.9014,1.9395,1.9375,2.0541,2.0063,1.8989,1.8189,1.7567,1.7061,1.678,1.7034,1.7259,1.662,1.67,1.6874,1.674,1.67,1.67,1.67,1.682,1.682,1.6526,1.6966,1.7761,1.8925,2.0016,2.1207,2.259,2.3326,2.3705,2.3705,2.3705,2.3803,2.4082,2.3887,2.3945,2.4375,2.4199,2.4375,2.4972,2.4629,2.4512,2.4727,2.4531,2.4414,2.4394,2.4199,2.4121,2.4121,2.4355,2.4336,2.4141,2.4551,2.4863,2.5106,2.5059,2.4992,2.5059,2.5059,2.5059,2.5031,2.5332,2.5547,2.5654,2.0107,2.0414,2.0748,2.0748,2.0548,2.0468,2.0708,2.0334,2.0094,2.0281,1.9893,1.9666,1.9853,1.9613,1.9426,1.943,1.943,1.943,1.943,1.943,1.943,1.943,1.9132,1.8998,1.8998,1.8718,1.8397,1.7995,1.7542,1.7447,1.7582,1.7393,1.7407,1.7569,1.738,1.7273,1.7259,1.6954,1.686,1.6874,1.7179,1.7074,1.6887,1.7179,1.7125,1.686,1.686,1.686,1.6887,1.7139,1.7233,1.7671,1.9987,2.0206,1.9774,2.083,2.042,1.931,1.7946,1.7603,1.7462,1.6981,1.7221,1.7448,1.6967,1.7048,1.7206,1.6901,1.686,1.686,1.686,1.7061,1.7179,1.6834,1.7618,1.8814,2.0393,2.1268,2.2427,2.419,2.4414,2.4453,2.4531,2.4453,2.4453,2.4531,2.4453,2.4609,2.5086,2.4727,2.4902,2.5674,2.4972,2.4824,2.5176,2.4824,2.4824,2.5176,2.4394,2.4043,2.4121,2.4121,2.4121,2.416,2.4863,2.5176,2.5215,2.5586,2.5635,2.5586,2.5293,2.5371,2.5586,2.5293,2.541,2.5693,2.0895,2.1002,2.1056,2.1056,2.1015,2.1002,2.1042,2.0989,2.0855,2.0641,2.0548,2.0414,2.0201,1.992,1.9639,1.9444,1.943,1.943,1.943,1.943,1.943,1.943,1.939,1.9305,1.9305,1.9011,1.8597,1.7995,1.7943,1.7796,1.7582,1.7542,1.7542,1.7582,1.7542,1.7528,1.7515,1.7475,1.7462,1.7462,1.7502,1.7502,1.7475,1.7515,1.7502,1.7462,1.7462,1.7462,1.7435,1.7273,1.7367,1.7789,1.9036,1.9526,1.987,2.1188,2.066,1.9561,1.9324,1.8471,1.7569,1.7488,1.7528,1.7555,1.7488,1.7488,1.7515,1.7475,1.7462,1.7462,1.7462,1.7502,1.7474,1.7192,1.7292,1.8131,2.0281,2.0729,2.1665,2.4117,2.4414,2.457,2.4988,2.4629,2.457,2.4941,2.4629,2.4609,2.5086,2.5067,2.5215,2.5674,2.5577,2.5538,2.5596,2.5538,2.5538,2.5596,2.5137,2.5098,2.5421,2.5421,2.5421,2.544,2.5557,2.5596,2.5596,2.5674,2.5508,2.5195,2.5527,2.5449,2.5195,2.5527,2.5635,2.5693,2.0588,2.0748,2.0869,2.0869,2.1002,2.1109,2.1109,2.0975,2.0882,2.0909,2.0628,2.0441,2.0481,2.0214,1.9987,1.9867,1.9706,1.9613,1.9613,1.9452,1.943,1.943,1.943,1.943,1.943,1.9239,1.8958,1.8475,1.837,1.813,1.7836,1.7836,1.7756,1.7582,1.7582,1.7582,1.7582,1.7582,1.7582,1.7582,1.7582,1.7582,1.7582,1.7582,1.7582,1.7582,1.7582,1.7582,1.7569,1.7435,1.7475,1.7818,1.9052,1.9508,1.9731,2.0333,2.0092,1.9465,1.8883,1.8249,1.7876,1.805,1.7969,1.7836,1.7836,1.7702,1.7582,1.7582,1.7582,1.7582,1.7582,1.7582,1.7542,1.746,1.8505,1.9787,2.1015,2.2333,2.3595,2.4975,2.5156,2.5234,2.543,2.5273,2.5234,2.543,2.5254,2.5234,2.543,2.5449,2.5527,2.5674,2.5488,2.5488,2.5693,2.5488,2.5488,2.5693,2.5527,2.541,2.5371,2.5371,2.5371,2.5371,2.5577,2.5693,2.5693,2.5693,2.5625,2.5469,2.5615,2.5557,2.5469,2.5615,2.5693,2.5693]}]]